[[{"header":{"parameterUnit":"m.s-1","parameterCategory":1,"la1":30.6,"la2":28.766,"lo1":-90.7593,"lo2":-88.6598,"dy":0.0162,"dx":0.0183,"nx":116,"ny":114,"refTime":"2023-03-25T00:00:00:Z","depth":0,"parameterNumber":2,"parameterNumberName":"U-component_of_WINDS"},"data":[0.0,0.0,0.0,0.0,0.0,0.0,0.0,0.0,0.0,0.0,0.0,0.0,0.0,0.0,0.0,0.0,0.0,0.0,0.0,0.0,0.0,0.0,0.0,0.0,0.0,0.0,0.0,0.0,0.0,0.0,0.0,0.0,0.0,0.0,0.0,0.0,0.0,0.0,0.0,0.0,0.0,0.0,0.0,0.0,0.0,0.0,0.0,0.0,0.0,0.0,0.0,0.0,0.0,0.0,0.0,0.0,0.0,0.0,0.0,0.0,0.0,0.0,0.0,0.0,0.0,0.0,0.0,0.0,0.0,0.0,0.0,0.0,0.0,0.0,0.0,0.0,0.0,0.0,0.0,0.0,0.0,0.0,0.0,0.0,0.0,0.0,0.0,0.0,0.0,0.0,0.0,0.0,0.0,0.0,0.0,0.0,0.0,0.0,0.0,0.0,0.0,0.0,0.0,0.0,0.0,0.0,0.0,0.0,0.0,0.0,0.0,0.0,0.0,0.0,0.0,0.0,0.0,0.0,0.0,0.0,0.0,0.0,0.0,0.0,0.0,0.0,0.0,0.0,0.0,0.0,0.0,0.0,0.0,0.0,0.0,0.0,0.0,0.0,0.0,0.0,0.0,0.0,0.0,0.0,0.0,0.0,0.0,0.0,0.0,0.0,0.0,0.0,0.0,0.0,0.0,0.0,0.0,0.0,0.0,0.0,0.0,0.0,0.0,0.0,0.0,0.0,0.0,0.0,0.0,0.0,0.0,0.0,0.0,0.0,0.0,0.0,0.0,0.0,0.0,0.0,0.0,0.0,0.0,0.0,0.0,0.0,0.0,0.0,0.0,0.0,0.0,0.0,0.0,0.0,0.0,0.0,0.0,0.0,0.0,0.0,0.0,0.0,0.0,0.0,0.0,0.0,0.0,0.0,0.0,0.0,0.0,0.0,0.0,0.0,0.0,0.0,0.0,0.0,0.0,0.0,0.0,0.0,0.0,0.0,0.0,0.0,0.0,0.0,0.0,0.0,0.0,0.0,0.0,0.0,0.0,0.0,0.0,0.0,0.0,0.0,0.0,0.0,0.0,0.0,0.0,0.0,0.0,0.0,0.0,0.0,0.0,0.0,0.0,0.0,0.0,0.0,0.0,0.0,0.0,0.0,0.0,0.0,0.0,0.0,0.0,0.0,0.0,0.0,0.0,0.0,0.0,0.0,0.0,0.0,0.0,0.0,0.0,0.0,0.0,0.0,0.0,0.0,0.0,0.0,0.0,0.0,0.0,0.0,0.0,0.0,0.0,0.0,0.0,0.0,0.0,0.0,0.0,0.0,0.0,0.0,0.0,0.0,0.0,0.0,0.0,0.0,0.0,0.0,0.0,0.0,0.0,0.0,0.0,0.0,0.0,0.0,0.0,0.0,0.0,0.0,0.0,0.0,0.0,0.0,0.0,0.0,0.0,0.0,0.0,0.0,0.0,0.0,0.0,0.0,0.0,0.0,0.0,0.0,0.0,0.0,0.0,0.0,0.0,0.0,0.0,0.0,0.0,0.0,0.0,0.0,0.0,0.0,0.0,0.0,0.0,0.0,0.0,0.0,0.0,0.0,0.0,0.0,0.0,0.0,0.0,0.0,0.0,0.0,0.0,0.0,0.0,0.0,0.0,0.0,0.0,0.0,0.0,0.0,0.0,0.0,0.0,0.0,0.0,0.0,0.0,0.0,0.0,0.0,0.0,0.0,0.0,0.0,0.0,0.0,0.0,0.0,0.0,0.0,0.0,0.0,0.0,0.0,0.0,0.0,0.0,0.0,0.0,0.0,0.0,0.0,0.0,0.0,0.0,0.0,0.0,0.0,0.0,0.0,0.0,0.0,0.0,0.0,0.0,0.0,0.0,0.0,0.0,0.0,0.0,0.0,0.0,0.0,0.0,0.0,0.0,0.0,0.0,0.0,0.0,0.0,0.0,0.0,0.0,0.0,0.0,0.0,0.0,0.0,0.0,0.0,0.0,0.0,0.0,0.0,0.0,0.0,0.0,0.0,0.0,0.0,0.0,0.0,0.0,0.0,0.0,0.0,0.0,0.0,0.0,0.0,0.0,0.0,0.0,0.0,0.0,0.0,0.0,0.0,0.0,0.0,0.0,0.0,0.0,0.0,0.0,0.0,0.0,0.0,0.0,0.0,0.0,0.0,0.0,0.0,0.0,0.0,0.0,0.0,0.0,0.0,0.0,0.0,0.0,0.0,0.0,0.0,0.0,0.0,0.0,0.0,0.0,0.0,0.0,0.0,0.0,0.0,0.0,0.0,0.0,0.0,0.0,0.0,0.0,0.0,0.0,0.0,0.0,0.0,0.0,0.0,0.0,0.0,0.0,0.0,0.0,0.0,0.0,0.0,0.0,0.0,0.0,0.0,0.0,0.0,0.0,0.0,0.0,0.0,0.0,0.0,0.0,0.0,0.0,0.0,0.0,0.0,0.0,0.0,0.0,0.0,0.0,0.0,0.0,0.0,0.0,0.0,0.0,0.0,0.0,0.0,0.0,0.0,0.0,0.0,0.0,0.0,0.0,0.0,0.0,0.0,0.0,0.0,0.0,0.0,0.0,0.0,0.0,0.0,0.0,0.0,0.0,0.0,0.0,0.0,0.0,0.0,0.0,0.0,0.0,0.0,0.0,0.0,0.0,0.0,0.0,0.0,0.0,0.0,0.0,0.0,0.0,0.0,0.0,0.0,0.0,0.0,0.0,0.0,0.0,0.0,0.0,0.0,0.0,0.0,0.0,0.0,0.0,0.0,0.0,0.0,0.0,0.0,0.0,0.0,0.0,0.0,0.0,0.0,0.0,0.0,0.0,0.0,0.0,0.0,0.0,0.0,0.0,0.0,0.0,0.0,0.0,0.0,0.0,0.0,0.0,0.0,0.0,0.0,0.0,0.0,0.0,0.0,0.0,0.0,0.0,0.0,0.0,0.0,0.0,0.0,0.0,0.0,0.0,0.0,0.0,0.0,0.0,0.0,0.0,0.0,0.0,0.0,0.0,0.0,0.0,0.0,0.0,0.0,0.0,0.0,0.0,0.0,0.0,0.0,0.0,0.0,0.0,0.0,0.0,0.0,0.0,0.0,0.0,0.0,0.0,0.0,0.0,0.0,0.0,0.0,0.0,0.0,0.0,0.0,0.0,0.0,0.0,0.0,0.0,0.0,0.0,0.0,0.0,0.0,0.0,0.0,0.0,0.0,0.0,0.0,0.0,0.0,0.0,0.0,0.0,0.0,0.0,0.0,0.0,0.0,0.0,0.0,0.0,0.0,0.0,0.0,0.0,0.0,0.0,0.0,0.0,0.0,0.0,0.0,0.0,0.0,0.0,0.0,0.0,0.0,0.0,0.0,0.0,0.0,0.0,0.0,0.0,0.0,0.0,0.0,0.0,0.0,0.0,0.0,0.0,0.0,0.0,0.0,0.0,0.0,0.0,0.0,0.0,0.0,0.0,0.0,0.0,0.0,0.0,0.0,0.0,0.0,0.0,0.0,0.0,0.0,0.0,0.0,0.0,0.0,0.0,0.0,0.0,0.0,0.0,0.0,0.0,0.0,0.0,0.0,0.0,0.0,0.0,0.0,0.0,0.0,0.0,0.0,0.0,0.0,0.0,0.0,0.0,0.0,0.0,0.0,0.0,0.0,0.0,0.0,0.0,0.0,0.0,0.0,0.0,0.0,0.0,0.0,0.0,0.0,0.0,0.0,0.0,0.0,0.0,0.0,0.0,0.0,0.0,0.0,0.0,0.0,0.0,0.0,0.0,0.0,0.0,0.0,0.0,0.0,0.0,0.0,0.0,0.0,0.0,0.0,0.0,0.0,0.0,0.0,0.0,0.0,0.0,0.0,0.0,0.0,0.0,0.0,0.0,0.0,0.0,0.0,0.0,0.0,0.0,0.0,0.0,0.0,0.0,0.0,0.0,0.0,0.0,0.0,0.0,0.0,0.0,0.0,0.0,0.0,0.0,0.0,0.0,0.0,0.0,0.0,0.0,0.0,0.0,0.0,0.0,0.0,0.0,0.0,0.0,0.0,0.0,0.0,0.0,0.0,0.0,0.0,0.0,0.0,0.0,0.0,0.0,0.0,0.0,0.0,0.0,0.0,0.0,0.0,0.0,0.0,0.0,0.0,0.0,0.0,0.0,0.0,0.0,0.0,0.0,0.0,0.0,0.0,0.0,0.0,0.0,0.0,0.0,0.0,0.0,0.0,0.0,0.0,0.0,0.0,0.0,0.0,0.0,0.0,0.0,0.0,0.0,0.0,0.0,0.0,0.0,0.0,0.0,0.0,0.0,0.0,0.0,0.0,0.0,0.0,0.0,0.0,0.0,0.0,0.0,0.0,0.0,0.0,0.0,0.0,0.0,0.0,0.0,0.0,0.0,0.0,0.0,0.0,0.0,0.0,0.0,0.0,0.0,0.0,0.0,0.0,0.0,0.0,0.0,0.0,0.0,0.0,0.0,0.0,0.0,0.0,0.0,0.0,0.0,0.0,0.0,0.0,0.0,0.0,0.0,0.0,0.0,0.0,0.0,0.0,0.0,0.0,0.0,0.0,0.0,0.0,0.0,0.0,0.0,0.0,0.0,0.0,0.0,0.0,0.0,0.0,0.0,0.0,0.0,0.0,0.0,0.0,0.0,0.0,0.0,0.0,0.0,0.0,0.0,0.0,0.0,0.0,0.0,0.0,0.0,0.0,0.0,0.0,0.0,0.0,0.0,0.0,0.0,0.0,0.0,0.0,0.0,0.0,0.0,0.0,0.0,0.0,0.0,0.0,0.0,0.0,0.0,0.0,0.0,0.0,0.0,0.0,0.0,0.0,0.0,0.0,0.0,0.0,0.0,0.0,0.0,0.0,0.0,0.0,0.0,0.0,0.0,0.0,0.0,0.0,0.0,0.0,0.0,0.0,0.0,0.0,0.0,0.0,0.0,0.0,0.0,0.0,0.0,0.0,0.0,0.0,0.0,0.0,0.0,0.0,0.0,0.0,0.0,0.0,0.0,0.0,0.0,0.0,0.0,0.0,0.0,0.0,0.0,0.0,0.0,0.0,0.0,0.0,0.0,0.0,0.0,0.0,0.0,0.0,0.0,0.0,0.0,0.0,0.0,0.0,0.0,0.0,0.0,0.0,0.0,0.0,0.0,0.0,0.0,0.0,0.0,0.0,0.0,0.0,0.0,0.0,0.0,0.0,0.0,0.0,0.0,0.0,0.0,0.0,0.0,0.0,0.0,0.0,0.0,0.0,0.0,0.0,0.0,0.0,0.0,0.0,0.0,0.0,0.0,0.0,0.0,0.0,0.0,0.0,0.0,0.0,0.0,0.0,0.0,0.0,0.0,0.0,0.0,0.0,0.0,0.0,0.0,0.0,0.0,0.0,0.0,0.0,0.0,0.0,0.0,0.0,0.0,0.0,0.0,0.0,0.0,0.0,0.0,0.0,0.0,0.0,0.0,0.0,0.0,0.0,0.0,0.0,0.0,0.0,0.0,0.0,0.0,0.0,0.0,0.0,0.0,0.0,0.0,0.0,0.0,0.0,0.0,0.0,0.0,0.0,0.0,0.0,0.0,0.0,0.0,0.0,0.0,0.0,0.0,0.0,0.0,0.0,0.0,0.0,0.0,0.0,0.0,0.0,0.0,0.0,0.0,0.0,0.0,0.0,0.0,0.0,0.0,0.0,0.0,0.0,0.0,0.0,0.0,0.0,0.0,0.0,0.0,0.0,0.0,0.0,0.0,0.0,0.0,0.0,0.0,0.0,0.0,0.0,0.0,0.0,0.0,0.0,0.0,0.0,0.0,0.0,0.0,0.0,0.0,0.0,0.0,0.0,0.0,0.0,0.0,0.0,0.0,0.0,0.0,0.0,0.0,0.0,0.0,0.0,0.0,0.0,0.0,0.0,0.0,0.0,0.0,0.0,0.0,0.0,0.0,0.0,0.0,0.0,0.0,0.0,0.0,0.0,0.0,0.0,0.0,0.0,0.0,0.0,0.0,0.0,0.0,0.0,0.0,0.0,0.0,0.0,0.0,0.0,0.0,0.0,0.0,0.0,0.0,0.0,0.0,0.0,0.0,0.0,0.0,0.0,-3.5578,0.0,0.0,0.0,0.0,0.0,0.0,0.0,0.0,0.0,0.0,0.0,0.0,0.0,0.0,0.0,0.0,0.0,0.0,0.0,0.0,0.0,0.0,0.0,0.0,0.0,0.0,0.0,0.0,0.0,0.0,0.0,0.0,0.0,0.0,0.0,0.0,0.0,0.0,0.0,-2.4909,-2.4716,-2.4716,-2.6467,-2.7736,-2.8635,0.0,0.0,0.0,0.0,0.0,0.0,0.0,0.0,0.0,0.0,0.0,0.0,0.0,0.0,0.0,0.0,0.0,0.0,0.0,0.0,0.0,0.0,0.0,0.0,0.0,0.0,0.0,0.0,0.0,0.0,0.0,0.0,0.0,0.0,0.0,0.0,0.0,0.0,0.0,0.0,0.0,0.0,0.0,0.0,0.0,0.0,0.0,0.0,0.0,0.0,0.0,0.0,0.0,0.0,0.0,0.0,0.0,0.0,0.0,0.0,0.0,0.0,0.0,0.0,0.0,0.0,0.0,0.0,0.0,0.0,0.0,-3.5936,0.0,0.0,0.0,0.0,0.0,0.0,0.0,0.0,0.0,0.0,0.0,0.0,0.0,0.0,0.0,0.0,0.0,0.0,0.0,0.0,0.0,0.0,0.0,0.0,0.0,0.0,0.0,0.0,0.0,0.0,0.0,0.0,0.0,0.0,0.0,-2.5308,-2.5231,-2.5096,-2.4432,-2.4509,-2.5327,-2.6351,-2.6832,-2.6928,-2.9019,0.0,0.0,0.0,0.0,0.0,0.0,0.0,0.0,0.0,0.0,0.0,0.0,0.0,0.0,0.0,0.0,0.0,0.0,0.0,0.0,0.0,0.0,0.0,0.0,0.0,0.0,0.0,0.0,0.0,0.0,0.0,0.0,0.0,0.0,0.0,0.0,0.0,0.0,0.0,0.0,0.0,0.0,0.0,0.0,0.0,0.0,0.0,0.0,0.0,0.0,0.0,0.0,0.0,0.0,0.0,0.0,0.0,0.0,0.0,0.0,0.0,0.0,0.0,-3.8444,-3.8483,-3.9335,-3.7865,-3.7332,-3.7524,-3.6714,-3.5765,-3.5062,0.0,0.0,0.0,0.0,0.0,0.0,0.0,0.0,0.0,0.0,0.0,0.0,0.0,0.0,0.0,0.0,0.0,0.0,0.0,0.0,0.0,0.0,0.0,-2.5308,-2.5308,-2.5308,-2.5308,0.0,0.0,0.0,0.0,0.0,0.0,-2.5308,-2.5308,-2.4966,-2.4259,-2.4149,-2.4509,-2.5346,-2.6967,-2.7736,-2.7736,-2.8082,-2.9967,-3.2852,0.0,0.0,0.0,0.0,0.0,0.0,0.0,0.0,0.0,0.0,0.0,0.0,0.0,0.0,0.0,0.0,0.0,0.0,0.0,0.0,0.0,0.0,0.0,0.0,0.0,0.0,0.0,0.0,0.0,0.0,0.0,0.0,0.0,0.0,0.0,0.0,0.0,0.0,0.0,0.0,0.0,-3.1152,-3.1934,0.0,0.0,0.0,0.0,0.0,0.0,0.0,0.0,0.0,0.0,0.0,0.0,0.0,-3.8354,-3.913,-3.8373,-3.8445,-3.9295,-3.8426,-3.8464,-3.9275,-3.7846,-3.6707,-3.5971,-3.8676,0.0,-3.8623,-3.9207,0.0,0.0,0.0,0.0,0.0,0.0,0.0,0.0,0.0,0.0,0.0,0.0,0.0,0.0,0.0,0.0,0.0,0.0,0.0,0.0,0.0,-2.5731,-2.5827,-2.5346,-2.6473,-2.6667,0.0,0.0,0.0,0.0,0.0,-2.5308,-2.5308,-2.487,-2.4452,-2.411,-2.5529,-2.6414,-2.6794,-2.8506,-2.9313,-2.9313,-2.9313,-3.0115,-3.1462,-3.1115,0.0,0.0,0.0,0.0,0.0,0.0,0.0,0.0,0.0,0.0,0.0,0.0,0.0,0.0,0.0,0.0,0.0,0.0,0.0,0.0,0.0,0.0,0.0,0.0,0.0,0.0,0.0,0.0,0.0,0.0,0.0,0.0,0.0,0.0,0.0,0.0,0.0,0.0,0.0,-3.2175,-3.2058,-3.2332,-3.3795,-3.5141,0.0,0.0,0.0,0.0,0.0,0.0,0.0,0.0,0.0,-3.8007,-3.8469,-3.8911,-3.9304,-3.8911,-3.9194,-4.0075,-3.9617,-3.9637,-4.003,-3.8703,-3.8186,-3.8401,-3.9858,-4.0308,-3.9969,-3.9977,-3.9631,-3.9339,0.0,0.0,0.0,0.0,-4.4966,-4.488,0.0,0.0,0.0,0.0,0.0,0.0,0.0,0.0,0.0,0.0,0.0,0.0,-2.5494,-2.6337,-2.6622,-2.6019,-2.7466,-2.7625,-2.5759,0.0,0.0,0.0,0.0,-2.5308,-2.5308,-2.4716,-2.4625,-2.5067,-2.7184,-2.8434,-2.889,-3.0371,-3.1038,-3.1058,-3.1269,-3.1365,-3.1327,-3.0673,-3.1154,-3.2372,0.0,0.0,0.0,0.0,0.0,0.0,0.0,0.0,0.0,0.0,0.0,0.0,0.0,0.0,0.0,0.0,0.0,0.0,0.0,0.0,0.0,0.0,0.0,0.0,0.0,0.0,0.0,0.0,0.0,0.0,0.0,0.0,0.0,0.0,0.0,0.0,0.0,-3.229,-3.2457,-3.2583,-3.3545,-3.4776,0.0,0.0,0.0,0.0,0.0,0.0,-3.8565,-3.8642,-3.8642,-3.8642,-3.9265,-3.9708,-3.9931,-3.9931,-4.0403,-4.1306,-4.1212,-4.1289,-4.1473,-4.0231,-4.0457,-4.1772,-4.1341,-4.1418,-4.1764,-4.1189,-4.0027,-3.8885,-4.128,-4.2011,-4.205,-4.4388,-4.5004,-4.468,0.0,0.0,0.0,0.0,0.0,0.0,0.0,0.0,0.0,0.0,0.0,-2.4951,-2.6123,-2.7026,-2.7612,-2.7764,-2.7707,-2.7331,-2.6572,-2.5646,-2.5184,-2.5279,-2.5308,-2.5308,-2.5308,-2.5269,-2.6038,-2.7703,-2.8607,-2.9896,-3.1525,-3.2372,-3.2776,-3.2814,-3.3641,-3.4013,-3.3859,-3.1423,-3.1814,-3.4013,-3.3218,0.0,0.0,0.0,0.0,0.0,0.0,0.0,0.0,0.0,0.0,0.0,0.0,0.0,0.0,0.0,0.0,0.0,0.0,0.0,0.0,0.0,0.0,0.0,0.0,0.0,0.0,0.0,0.0,0.0,0.0,0.0,0.0,0.0,0.0,0.0,0.0,0.0,0.0,-3.166,-3.3199,0.0,0.0,0.0,0.0,-3.9169,-3.9169,-3.9477,-4.0323,-4.0362,-4.0362,-4.0362,-4.0419,-4.0835,-4.1673,-4.1673,-4.2104,-4.2986,-4.2978,-4.3239,-4.3701,-4.2549,-4.3231,-4.5255,-4.3651,-4.388,-4.5184,-4.3008,-4.1421,-4.0504,-4.1711,-4.1541,-4.0891,-4.3425,-4.4853,-4.5389,0.0,0.0,0.0,0.0,0.0,0.0,0.0,0.0,0.0,-2.4647,-2.5026,-2.5802,-2.7176,-2.826,-2.8828,-2.8681,-2.9317,-2.8833,-2.6734,-2.6612,-2.6473,-2.6149,-2.5596,-2.5308,-2.5308,-2.5846,-2.6967,-2.8665,-3.0083,-3.1641,-3.3333,-3.4718,-3.5353,-3.5391,-3.6257,-3.6642,-3.6411,-3.2776,-3.1442,-3.1679,-3.0814,-3.1429,0.0,0.0,0.0,0.0,0.0,0.0,0.0,0.0,0.0,0.0,0.0,0.0,0.0,0.0,0.0,0.0,0.0,0.0,0.0,0.0,0.0,0.0,0.0,0.0,0.0,0.0,0.0,0.0,0.0,0.0,0.0,0.0,0.0,0.0,0.0,0.0,0.0,-3.3904,-3.4673,0.0,-3.7757,-3.895,-3.9746,-4.0054,-3.9592,-3.965,-4.0458,-4.0496,-4.0766,-4.1316,-4.1873,-4.2566,-4.3393,-4.3412,-4.3855,-4.471,-4.471,-4.4797,-4.497,-4.4566,-4.4836,-4.5565,-4.4979,-4.5045,-4.5535,-4.4729,-4.4152,-4.3756,-4.3412,-4.3049,-4.2896,-4.4542,-4.4985,-4.4795,0.0,0.0,0.0,0.0,0.0,0.0,0.0,0.0,0.0,-2.4551,-2.5497,-2.6639,-2.7982,-2.9627,-3.0434,-3.0002,-3.0392,-2.962,-2.7201,-2.6803,-2.6511,-2.6187,-2.5615,-2.5442,-2.5731,-2.6601,-2.8005,-2.9992,-3.141,-3.2968,-3.4661,-3.5776,-3.6442,-3.6731,-3.7603,-3.8007,-3.7815,-3.5007,-3.3006,-3.1621,-3.0737,-3.1564,-3.3276,0.0,0.0,0.0,0.0,0.0,0.0,0.0,0.0,0.0,0.0,0.0,0.0,0.0,0.0,0.0,0.0,0.0,0.0,0.0,0.0,0.0,0.0,0.0,0.0,0.0,0.0,0.0,0.0,0.0,0.0,0.0,0.0,0.0,0.0,0.0,-3.3923,-3.6488,-3.6776,-3.7546,-3.9515,-4.0189,-4.0631,-4.0912,-4.0431,-4.0623,-4.1728,-4.2055,-4.2497,-4.3066,-4.3932,-4.4509,-4.4739,-4.4739,-4.5037,-4.5594,-4.5594,-4.5594,-4.5594,-4.5594,-4.5594,-4.5594,-4.5594,-4.5594,-4.5594,-4.5594,-4.5593,-4.5522,-4.4765,-4.4468,-4.4564,-4.5321,-4.5235,-4.4825,0.0,0.0,0.0,0.0,0.0,0.0,0.0,0.0,-2.4209,-2.4218,-2.5838,-2.7395,-2.8485,-3.0952,-3.23,-3.1699,-3.0649,-2.9398,-2.7956,-2.6035,-2.5075,-2.5284,-2.5346,-2.5788,-2.6621,-2.7525,-2.9217,-3.1737,-3.2545,-3.3814,-3.55,-3.5558,-3.5981,-3.6769,-3.768,-3.8084,-3.8084,-3.8104,-3.668,-3.4321,-3.3333,-3.3449,-3.4225,0.0,0.0,0.0,0.0,0.0,0.0,0.0,0.0,0.0,0.0,0.0,0.0,0.0,0.0,0.0,0.0,0.0,0.0,0.0,0.0,0.0,0.0,0.0,0.0,0.0,0.0,0.0,0.0,0.0,0.0,0.0,0.0,0.0,-3.4013,-3.4988,-3.6481,-3.9034,-3.9361,-3.9688,-4.0496,-4.0593,-4.0969,-4.1808,-4.1904,-4.2624,-4.4239,-4.5152,-4.5614,-4.5633,-4.6471,-4.6509,-4.5671,-4.5633,-4.5633,-4.5594,-4.5594,-4.5594,-4.5594,-4.5594,-4.5594,-4.5594,-4.5594,-4.5594,-4.5594,-4.5594,-4.5594,-4.5594,-4.5594,-4.5594,-4.5594,-4.5594,-4.5594,-4.5594,0.0,0.0,0.0,0.0,0.0,0.0,0.0,0.0,-2.4469,-2.4615,-2.5848,-2.7233,-2.86,-3.0182,-3.0986,-3.0583,-2.9107,-2.7801,-2.6803,-2.5245,-2.4625,-2.5264,-2.6505,-2.7294,-2.7544,-2.8967,-3.066,-3.2564,-3.341,-3.441,-3.5538,-3.6731,-3.743,-3.7719,-3.9161,-3.9804,-3.9861,-4.0489,-3.9988,-3.8476,-3.5167,-3.4353,-3.5007,0.0,0.0,0.0,0.0,0.0,0.0,0.0,0.0,0.0,0.0,0.0,0.0,0.0,0.0,0.0,0.0,0.0,0.0,0.0,0.0,0.0,0.0,0.0,0.0,0.0,0.0,0.0,0.0,0.0,0.0,0.0,0.0,-3.3891,-3.4988,-3.5846,-3.7315,-3.9881,-4.0719,-4.145,-4.2297,-4.2912,-4.3355,-4.3585,-4.4201,-4.4767,-4.5229,-4.5479,-4.5893,-4.6528,-4.6778,-4.6874,-4.6826,-4.6644,-4.622,-4.5594,-4.5594,-4.5594,-4.5594,-4.5594,-4.5594,-4.5594,-4.5594,-4.5594,-4.5594,-4.5594,-4.5594,-4.5594,-4.5594,-4.5594,-4.5594,-4.5594,-4.5594,-4.5594,0.0,0.0,0.0,0.0,0.0,0.0,0.0,0.0,-2.467,-2.4782,-2.6378,-2.7689,-2.8122,-2.9894,-3.065,-2.9648,-2.8634,-2.7698,-2.6861,-2.5993,-2.563,-2.5846,-2.7486,-2.8563,-2.8948,-3.025,-3.1775,-3.343,-3.3955,-3.4814,-3.6019,-3.7007,-3.7853,-3.8604,-3.9919,-4.0708,-4.1104,-4.197,-4.2047,-4.1373,-3.8911,-3.8238,-3.843,-3.5968,-3.6109,-3.7331,-3.5309,-3.5979,-3.7595,-3.6138,0.0,0.0,0.0,0.0,0.0,0.0,0.0,0.0,0.0,0.0,0.0,0.0,0.0,0.0,0.0,0.0,0.0,0.0,0.0,0.0,0.0,0.0,0.0,0.0,-3.5257,-3.593,-3.7865,-3.795,-3.8854,-4.1747,-4.2547,-4.3181,-4.4066,-4.4566,-4.4836,-4.4836,-4.5306,-4.5594,-4.5594,-4.6259,-4.6721,-4.6885,-4.7471,-4.7576,-4.7144,-4.6624,-4.6105,-4.5594,-4.5594,-4.5594,-4.5594,-4.5594,-4.5594,0.0,-4.5594,-4.5594,-4.5594,-4.5594,-4.5594,0.0,0.0,0.0,0.0,0.0,-4.5594,-4.5594,0.0,0.0,0.0,0.0,0.0,0.0,0.0,0.0,-2.4795,-2.47,-2.6894,-2.8115,-2.7153,-2.9556,-3.0484,-2.8642,-2.8507,-2.8162,-2.7366,-2.7464,-2.7338,-2.6877,-2.8481,-2.9756,-3.0538,-3.1487,-3.2718,-3.4205,-3.4302,-3.5141,-3.6692,-3.6788,-3.7777,-3.9477,-4.0285,-4.1123,-4.2,-4.2874,-4.3239,-4.3239,-4.3335,-4.3201,-4.2604,-3.9469,-3.9674,-4.1305,-3.8863,-3.7767,-3.7396,-3.7064,0.0,0.0,0.0,0.0,0.0,0.0,0.0,0.0,0.0,0.0,0.0,0.0,0.0,0.0,0.0,0.0,0.0,0.0,0.0,0.0,0.0,0.0,0.0,0.0,-3.7135,-3.8296,-4.1615,-4.0796,-4.0997,-4.4085,-4.4451,-4.4739,-4.5518,-4.5594,-4.5594,-4.5594,-4.5594,-4.5642,-4.5772,0.0,0.0,0.0,0.0,-4.8517,-4.7336,-4.6451,-4.6018,-4.5979,-4.5922,-4.5883,-4.5883,-4.5817,-4.5817,-4.5883,-4.5825,-4.5768,-4.5748,-4.5633,-4.5594,-4.5594,-4.5594,-4.5594,-4.5594,-4.5594,-4.5594,-4.5594,0.0,0.0,0.0,0.0,0.0,0.0,0.0,0.0,-2.4727,-2.4074,-2.5489,-2.6264,-2.552,-2.7166,-2.7838,-2.6642,-2.664,-2.655,-2.6242,-2.7224,-2.7992,-2.837,-3.019,-3.1275,-3.1448,-3.2929,-3.3878,-3.4205,-3.4911,-3.575,-3.6712,-3.743,-3.8642,-4.0304,-4.1162,-4.2027,-4.2893,-4.372,-4.4066,-4.4124,-4.4825,-4.3893,-4.1912,-4.0527,-3.9949,-3.9553,-3.7027,-3.7887,-3.9819,-3.7061,-3.7843,-3.9889,-3.9324,-3.8331,0.0,0.0,0.0,0.0,0.0,0.0,0.0,0.0,0.0,0.0,0.0,0.0,0.0,0.0,0.0,0.0,0.0,0.0,0.0,-3.9381,-3.9765,-4.07,-4.3431,-4.3547,-4.3835,-4.519,-4.5344,-4.5421,-4.5575,-4.5594,-4.5594,-4.5594,-4.5594,-4.5949,-4.6762,-4.7117,0.0,-4.872,-4.9231,-4.9644,-4.9971,-4.9096,-4.8557,-4.8335,0.0,0.0,-4.7605,-4.7164,-4.7212,-4.7586,-4.7172,-4.6855,-4.6586,-4.5893,-4.5594,-4.5594,-4.5594,-4.5594,-4.5594,-4.5594,-4.5594,-4.5594,0.0,0.0,0.0,0.0,0.0,0.0,0.0,0.0,-2.5018,-2.4591,-2.5569,-2.5965,-2.51,-2.6618,-2.7287,-2.6246,-2.6572,-2.6899,-2.6987,-2.8224,-2.9091,-2.9384,-3.1693,-3.316,-3.3596,-3.4814,-3.5661,-3.6103,-3.6546,-3.718,-3.8007,-3.845,-3.9546,-4.1181,-4.2066,-4.2912,-4.3758,-4.4586,-4.496,-4.4998,-4.5421,-4.4844,-4.3605,-4.272,-4.2171,-4.1572,-3.9534,-3.9437,-3.9922,-3.7854,-3.8042,-3.9072,-3.8608,-3.8385,-3.8455,0.0,0.0,0.0,0.0,0.0,0.0,0.0,0.0,0.0,0.0,0.0,0.0,0.0,0.0,-3.7565,0.0,0.0,-3.9815,-4.1508,-4.2143,-4.2997,-4.471,-4.496,-4.5114,-4.5556,-4.5594,-4.5594,-4.5594,-4.599,-4.624,-4.624,-4.6624,-4.694,-4.719,-4.794,-4.8611,-4.9185,-4.9812,-5.0128,-5.0048,-4.949,-4.898,-4.8557,-4.824,-4.8105,-4.8086,-4.7827,-4.7846,-4.8067,-4.7394,-4.7028,-4.6827,-4.5951,-4.5594,-4.5594,-4.5594,-4.5594,-4.5594,-4.5594,-4.5594,-4.5594,0.0,0.0,0.0,0.0,0.0,0.0,0.0,0.0,0.0,-2.5096,-2.5808,-2.6022,-2.5159,-2.6614,-2.7324,-2.6536,-2.6803,-2.7331,-2.8053,-2.9339,-3.0271,-3.0719,-3.3112,-3.493,-3.5962,-3.6442,-3.7142,-3.8007,-3.8007,-3.8527,-3.9534,-3.9534,-4.0527,-4.2316,-4.3028,-4.3797,-4.4605,-4.5306,-4.5594,-4.5594,-4.5594,-4.5594,-4.5518,-4.4816,-4.4451,-4.4091,-4.2528,-4.0796,-3.9166,-3.8552,-3.7858,-3.7298,-3.759,-3.8463,-3.9282,-3.8627,-3.9129,0.0,0.0,0.0,0.0,0.0,0.0,0.0,0.0,0.0,-3.7538,-3.8132,-3.898,-3.9837,-4.0616,-4.147,-4.2393,-4.3412,-4.4278,-4.5047,-4.574,-4.5845,-4.5845,-4.5845,-4.571,-4.5671,-4.5845,-4.649,-4.6962,-4.7115,-4.774,-4.7992,-4.7757,-4.8948,-4.9614,-4.9591,-5.0357,-5.0418,-4.9673,-4.9452,-4.9077,-4.8606,-4.8606,-4.8606,-4.8606,-4.8606,-4.8606,-4.8548,-4.7567,-4.7038,-4.6827,-4.5951,-4.5594,-4.5594,-4.5594,-4.5594,-4.5594,-4.5594,-4.5594,-4.5594,0.0,0.0,0.0,0.0,0.0,0.0,0.0,0.0,0.0,-2.4336,-2.4947,-2.5399,-2.5288,-2.6149,-2.6832,-2.7078,-2.5975,-2.6077,-2.7979,-2.9524,-3.1258,-3.3295,-3.4647,-3.6096,-3.77,-3.7046,-3.7142,-3.8007,-3.8007,-3.8815,-4.0362,-4.0362,-4.167,-4.4028,-4.4124,-4.4643,-4.546,-4.5556,-4.5594,-4.5594,-4.5594,-4.5594,-4.5594,-4.5498,-4.4979,-4.4075,-4.2417,-4.0313,-3.834,-3.8258,-3.7693,-3.7308,-3.8851,-3.8883,-3.8496,-3.9079,-3.8253,-3.7266,-3.7841,-3.7507,-3.7142,-3.7719,-3.7353,-3.7392,0.0,0.0,-3.9056,-3.913,-3.9819,-4.0635,-4.1508,-4.2374,-4.347,-4.5056,-4.6047,-4.6644,-4.674,-4.6759,-4.6759,-4.6759,-4.6067,-4.5893,-4.6682,-4.6827,-4.7201,-4.7913,-4.8048,-4.8463,-4.9294,-4.9609,-5.0145,-5.0954,-5.1022,-5.0888,-5.0558,-5.0519,-5.0481,-5.0423,-5.0423,-5.0423,-5.0423,-5.0423,-5.0423,-5.0327,-4.8682,-4.7567,-4.6827,-4.5951,-4.5594,-4.5594,-4.5594,-4.5594,-4.5594,-4.5594,-4.5594,-4.5594,0.0,0.0,0.0,0.0,0.0,0.0,0.0,0.0,0.0,0.0,0.0,-2.55,-2.6,-2.7255,-2.826,-2.8768,-2.751,-2.7344,-2.8921,-2.9889,-3.122,-3.3027,-3.4647,-3.6269,-3.7969,-3.8142,-3.8873,-4.0219,-4.0719,-4.1335,-4.2008,-4.2008,-4.2835,-4.4297,-4.4297,-4.4778,-4.5594,-4.5594,-4.5594,-4.5594,-4.5594,-4.5594,-4.5498,-4.4509,-4.2989,-4.1431,-4.17,-4.0556,0.0,-3.72,-3.7163,-3.7702,-3.7469,-3.7789,-3.822,-3.8011,-3.7777,-3.7514,-3.7305,-3.7353,-3.7546,-3.7911,-3.845,-3.9181,-4.0265,-4.0623,-4.0893,-4.1412,-4.2143,-4.3124,-4.4509,-4.5066,-4.5701,0.0,-4.7355,-4.7432,-4.6962,-4.6904,-4.6721,-4.6201,-4.5825,-4.5748,-4.6105,-4.7028,-4.774,-4.8067,-4.9048,-4.9793,-5.0223,-5.0287,-5.0507,-5.0889,-5.1405,-5.1377,-5.0712,-5.1164,-5.1164,-5.0712,-5.0712,-5.0712,-5.0712,-5.0712,-5.0423,-4.9894,-4.9163,-4.8105,-4.6865,-4.6509,-4.6067,-4.5594,-4.5594,-4.5594,-4.5594,-4.5594,-4.5594,-4.5594,0.0,0.0,0.0,0.0,0.0,0.0,0.0,0.0,0.0,0.0,0.0,0.0,0.0,-2.8242,-2.9255,-2.9634,-2.8586,-2.8255,-2.9066,-2.9691,-3.072,-3.2273,-3.3901,-3.5788,-3.795,-3.8623,-3.9758,-4.145,-4.2316,-4.2854,-4.3104,-4.3335,-4.3874,-4.4662,-4.4662,-4.5017,-4.5594,-4.5594,-4.5594,-4.5594,-4.5594,-4.546,-4.5037,-4.3104,-4.1239,-3.9727,-4.0489,-3.9255,-3.7096,-3.5955,-3.627,-3.7039,-3.6281,-3.7055,-3.8043,-3.7107,-3.7121,-3.7396,-3.7119,-3.7526,-3.8161,-3.8873,-3.995,-4.0977,-4.1439,-4.2047,-4.2739,-4.3605,-4.4239,-4.5124,-4.6624,-4.6701,-4.6874,-4.7932,-4.8105,-4.7894,-4.7308,-4.7231,-4.6913,-4.6047,-4.5748,-4.5594,-4.5594,-4.6913,-4.7971,-4.8413,-4.9856,-5.071,-5.07,-5.1169,-5.1324,-5.1029,-5.1955,-5.2103,-5.1404,-5.1741,-5.1606,-5.1029,-5.0808,-5.0712,-5.0712,-5.0712,-5.0366,-4.974,-4.949,-4.8702,-4.7567,-4.7336,-4.6855,-4.6259,-4.6047,-4.5951,-4.5932,-4.5691,-4.5594,-4.5594,0.0,0.0,0.0,0.0,0.0,0.0,0.0,0.0,0.0,0.0,0.0,0.0,0.0,0.0,-2.9031,-2.8841,-2.8259,-2.7835,-2.7675,-2.8585,-2.991,-3.1654,-3.2526,-3.4545,-3.793,-3.8027,-3.8854,-4.0535,-4.1412,-4.2277,-4.3124,-4.3893,-4.472,-4.5556,-4.5556,-4.5575,-4.5594,-4.5594,-4.5594,-4.5594,-4.5594,-4.5094,-4.4066,-4.1535,-4.0535,-4.0265,-3.8681,-3.5449,-3.2301,-3.4706,-3.4982,-3.461,-3.6175,-3.7291,-3.7829,-3.6957,-3.6168,-3.593,0.0,0.0,-3.8584,-4.1058,-4.1712,-4.22,-4.3816,-4.4201,-4.447,-4.5344,-4.5537,-4.5817,-4.674,-4.6201,-4.6182,-4.7836,-4.8105,-4.8086,-4.8067,-4.8067,-4.7759,-4.6962,-4.6105,-4.5594,0.0,-4.6413,-4.7605,-4.924,-5.0183,-5.0693,-5.0702,-5.2365,-5.2876,-5.1885,-5.2848,-5.3273,-5.3126,-5.2308,-5.1885,-5.1846,-5.1068,-5.0712,-5.0712,-5.0712,-5.0693,-5.0616,-4.976,-4.9375,-4.926,-4.8413,-4.8048,-4.7952,-4.7182,-4.6846,-4.6759,-4.5913,-4.5594,-4.5594,0.0,0.0,0.0,0.0,0.0,0.0,0.0,0.0,0.0,0.0,0.0,0.0,0.0,0.0,0.0,0.0,-2.9156,-2.8912,-2.9416,-2.9233,-2.9621,-3.0788,-3.166,-3.2891,-3.4584,-3.6276,-3.77,-3.8834,-4.0239,-4.1373,-4.2239,-4.2508,-4.3104,-4.3951,-4.4489,-4.4739,-4.4739,-4.4739,-4.4739,-4.4586,-4.2901,-4.2393,-4.2354,-3.9815,-3.8488,-3.7988,0.0,-3.7084,-3.5834,-3.5596,-3.5308,-3.4968,-3.4372,-3.4776,-3.5526,-3.5808,0.0,0.0,0.0,0.0,-4.172,-4.3104,-4.4335,-4.5462,-4.6567,-4.6413,-4.6105,-4.6394,-4.5124,-4.4374,-4.5778,-4.5336,-4.547,-4.774,-4.8586,-4.8952,-4.8952,-4.8952,-4.8452,-4.7058,-4.6644,0.0,0.0,0.0,0.0,-4.7952,-5.0375,-5.2146,-5.2858,-5.3456,-5.3205,-5.1942,-5.334,-5.3562,-5.2346,-5.2615,-5.2462,-5.1885,-5.1087,-5.0712,-5.0712,-5.0712,-5.0712,-5.0673,-5.0385,-4.9933,-4.9375,-4.9086,-4.8625,-4.8067,-4.7798,-4.7702,-4.7605,-4.6778,-4.6471,-4.6374,0.0,0.0,0.0,0.0,0.0,0.0,0.0,0.0,0.0,0.0,0.0,0.0,0.0,0.0,0.0,0.0,0.0,-2.9679,-2.9929,-2.941,-2.9357,-2.991,-3.0769,-3.1756,-3.2872,-3.5115,-3.6692,-3.7546,-3.8604,-3.9585,-4.045,-4.0115,-4.045,-4.1316,-4.2143,-4.2508,-4.2508,-4.2508,-4.2681,-4.2758,-4.0843,-4.0412,-4.0662,-3.8392,-3.7565,0.0,-3.7565,-3.793,-3.82,-3.65,-3.5731,-3.5308,-3.4173,-3.4218,0.0,0.0,0.0,0.0,0.0,-4.1643,-4.3797,-4.4932,-4.6297,-4.7394,-4.7625,-4.7269,-4.6635,-4.574,-4.4239,-4.3239,-4.369,-4.3324,-4.3682,-4.5951,-4.7028,-4.7798,-4.8413,-4.8759,-4.8548,-4.7471,-4.7154,-4.6827,0.0,0.0,0.0,-4.7251,-4.951,-5.177,-5.3888,-5.4388,-5.4059,-5.2876,-5.4184,-5.4395,-5.328,-5.353,-5.3068,-5.1885,-5.1087,-5.0712,-5.0712,-5.0712,-5.0712,-5.0712,-5.0712,-5.0385,-4.9856,-4.9856,-4.9529,-4.899,-4.8682,-4.8375,-4.8009,-4.7201,-4.6701,-4.6355,0.0,0.0,0.0,0.0,0.0,0.0,0.0,0.0,0.0,0.0,0.0,0.0,0.0,0.0,0.0,0.0,0.0,0.0,-2.9146,-2.9069,-2.905,-2.905,-2.9871,-3.1077,-3.266,-3.4404,-3.5673,-3.6442,-3.6481,-3.6969,-3.7853,-3.7026,-3.7142,-3.8046,-3.8911,-3.9304,-3.9304,-3.9304,-3.9746,-4.0362,-3.9477,-3.913,-3.8977,-3.7276,-3.77,-3.8957,-3.7334,-3.7834,-3.8996,-3.7373,0.0,0.0,0.0,0.0,0.0,0.0,0.0,-3.9027,-4.2277,-4.3855,-4.4951,-4.6605,-4.7605,-4.7971,-4.7201,-4.6885,-4.6086,-4.3671,-4.2997,-4.2362,0.0,0.0,-4.1073,-4.2816,-4.3874,-4.5086,-4.6797,-4.7721,-4.8221,0.0,0.0,0.0,0.0,0.0,0.0,-4.7385,0.0,-4.996,-5.3888,-5.5109,-5.5318,-5.453,-5.528,-5.5684,-5.5645,-5.4876,-5.3626,-5.1885,-5.1125,-5.075,-5.0712,-5.0712,-5.0712,-5.0712,-5.0712,-5.0712,-5.0712,-5.0712,-5.0712,-5.0616,-4.974,-4.8894,-4.8067,-4.7212,-4.6374,-4.5671,0.0,0.0,0.0,0.0,0.0,0.0,0.0,0.0,0.0,0.0,0.0,0.0,0.0,0.0,0.0,0.0,0.0,0.0,-2.9107,-2.8549,-2.8203,-2.8203,-2.8986,-2.9621,-3.0069,-3.1775,-3.2776,-3.2968,-3.3583,-3.4661,-3.6135,-3.5904,-3.6596,-3.8046,-3.8911,-3.9304,-3.9304,-3.9304,-3.9419,-3.9419,-3.7315,-3.6834,-3.7257,-3.6192,-3.6442,-3.7392,-3.7584,-3.795,-3.8354,0.0,0.0,0.0,0.0,-3.6796,-3.8411,0.0,0.0,-4.2874,-4.3758,-4.599,-4.8202,-4.8644,-4.8913,-4.9009,-4.8817,-4.6797,-4.4812,-4.4264,-4.1562,-3.9372,0.0,0.0,0.0,-4.2816,-4.5374,0.0,-4.8606,-4.949,0.0,-4.8866,0.0,-4.8385,-4.7953,-4.8817,0.0,0.0,-4.9951,-5.1576,-5.5091,-5.5551,-5.5318,-5.453,-5.528,-5.5415,-5.4799,-5.4607,-5.3626,-5.1904,-5.1692,-5.1279,-5.0712,-5.0712,-5.0712,-5.0712,-5.0712,-5.0712,-5.0712,-5.0712,-5.0712,-5.0616,-4.974,-4.926,-4.8894,-4.7451,-4.6759,-4.649,0.0,0.0,0.0,0.0,0.0,0.0,0.0,0.0,0.0,0.0,0.0,0.0,0.0,0.0,0.0,0.0,0.0,0.0,0.0,-2.8472,-2.8434,-2.8434,-2.9236,-2.9674,-2.9699,-3.1049,-3.1739,-3.1739,-3.1816,-3.2534,-3.3827,-3.3442,-3.3962,-3.5295,-3.6507,-3.7053,-3.7053,-3.7053,-3.7276,0.0,0.0,-3.543,-3.6154,-3.6058,-3.6308,-3.6808,-3.77,-3.7757,0.0,0.0,0.0,-3.7411,-3.7219,-3.8392,-4.0054,-4.117,0.0,-4.4547,-4.5663,-4.7644,-4.9394,-4.9394,-4.9394,-4.9106,-4.799,-4.5951,-4.3811,-4.2015,-3.969,0.0,-3.7726,-3.8322,0.0,0.0,0.0,0.0,-4.8029,-4.8827,-4.9462,0.0,-5.0615,0.0,-5.0692,-5.2019,-5.2895,0.0,-5.2885,-5.3732,-5.56,-5.5705,-5.5491,-5.503,-5.5453,-5.5472,-5.503,-5.4684,-5.3818,-5.2462,-5.2077,-5.1491,-5.0712,-5.0712,-5.0712,-5.0712,0.0,-5.0712,-5.0712,-5.0712,-5.0712,-5.0654,-5.0164,-4.949,-4.8721,-4.7778,-4.6971,-4.6259,0.0,0.0,0.0,0.0,0.0,0.0,0.0,0.0,0.0,0.0,0.0,0.0,0.0,0.0,0.0,0.0,0.0,0.0,0.0,0.0,0.0,-2.9107,-2.9946,-3.0441,-3.0498,-3.1248,-3.1644,-3.1644,-3.0888,-3.098,-3.1863,-3.1107,-3.1268,-3.2275,-3.3718,-3.4379,-3.4379,-3.4379,-3.4872,-3.5596,-3.4834,-3.4988,-3.5731,0.0,0.0,-3.6673,-3.7642,0.0,0.0,0.0,-3.7757,-3.7334,-3.895,-4.0246,-4.1612,-4.3816,-4.4778,-4.5624,-4.7836,-4.9067,-4.9721,-4.9721,-4.9394,-4.8452,-4.6133,-4.4575,-4.2574,-3.8787,0.0,-3.7226,-3.5784,-3.6271,-3.745,-3.9188,0.0,-4.3288,-4.6577,-4.7357,-4.8721,-5.1808,-5.2856,-5.3549,-5.4166,-5.511,-5.5698,-5.5696,-5.5696,-5.5696,-5.5696,-5.5695,-5.5703,-5.5703,-5.5703,-5.5703,-5.5703,-5.5011,-5.4164,-5.3203,-5.2423,-5.1587,-5.0712,-5.0712,-5.0712,-5.0712,0.0,0.0,-5.0712,-5.0712,-5.0712,-5.0693,-5.0577,-4.9606,-4.8259,-4.8144,-4.7105,-4.5768,0.0,0.0,0.0,0.0,0.0,0.0,0.0,0.0,0.0,0.0,-2.7346,-2.785,0.0,0.0,0.0,0.0,0.0,0.0,0.0,0.0,0.0,0.0,-2.9989,-3.0495,-3.0498,0.0,0.0,0.0,0.0,-3.1325,-3.2773,-3.2618,-3.3365,-3.4846,-3.5135,-3.5269,-3.5269,-3.5269,-3.575,-3.6481,-3.6327,-3.6365,-3.65,-3.6654,0.0,0.0,0.0,0.0,0.0,0.0,-3.9515,-3.9015,-3.9996,-4.2324,-4.4806,-4.5248,-4.7384,-4.9692,-5.0135,-5.0837,-5.1462,-5.1462,-4.9385,-4.7028,-4.5864,-4.2786,0.0,0.0,-3.6935,-3.5855,-3.5623,-3.6775,-3.8334,-4.0015,-4.2297,-4.4816,-4.7509,-4.8538,-5.0183,0.0,-5.3781,-5.4271,0.0,0.0,0.0,0.0,0.0,-5.5695,-5.5695,-5.5714,-5.5703,-5.5703,-5.5703,-5.5703,-5.5703,-5.5549,-5.4722,-5.3203,-5.3049,-5.2183,-5.0712,-5.0712,-5.0712,-5.0712,-5.0712,0.0,-5.0712,-5.0712,-5.0712,-5.0635,-4.9913,-4.9433,-4.9086,-4.8375,-4.7509,-4.6682,0.0,0.0,0.0,0.0,0.0,0.0,0.0,-2.6295,-2.6574,-2.7427,-2.8199,-2.8632,-2.8532,-2.8871,-2.9275,0.0,0.0,0.0,0.0,0.0,0.0,0.0,0.0,0.0,0.0,0.0,0.0,0.0,0.0,0.0,0.0,0.0,0.0,0.0,0.0,0.0,-3.55,-3.55,-3.5962,-3.6692,-3.6692,-3.6962,0.0,0.0,0.0,0.0,0.0,0.0,0.0,0.0,-4.0335,-3.9611,-4.1316,-4.3574,-4.5768,-4.6644,-4.8375,-5.0202,-5.1087,-5.1952,-5.2462,-5.2,-4.9692,-4.6971,-4.4797,0.0,0.0,0.0,-3.608,-3.5508,-3.5534,-3.6523,0.0,-3.8988,-4.0219,-4.2162,-4.5442,-4.7806,0.0,-5.2049,-5.3309,-5.428,0.0,0.0,0.0,0.0,0.0,-5.5703,-5.5703,-5.5703,-5.5703,-5.5703,-5.5703,-5.5703,-5.5703,-5.5703,-5.5088,-5.3876,-5.3414,-5.2549,-5.1318,-5.0894,-5.0712,-5.0712,-5.0712,0.0,-5.0712,-5.0712,-5.0712,-5.0654,-5.025,-4.9798,-4.9356,-4.8933,-4.8259,-4.7528,0.0,0.0,0.0,0.0,0.0,0.0,0.0,-2.6992,-2.7338,-2.8309,-2.879,-2.9126,-2.9375,-2.8816,-2.8698,0.0,0.0,0.0,0.0,0.0,0.0,0.0,0.0,0.0,0.0,0.0,0.0,0.0,0.0,0.0,0.0,0.0,0.0,0.0,0.0,0.0,0.0,0.0,-3.6231,0.0,0.0,0.0,0.0,0.0,0.0,0.0,0.0,0.0,0.0,0.0,-4.0642,-3.9938,-4.2124,-4.397,-4.5633,-4.7124,-4.8682,-5.0221,-5.1538,-5.2673,-5.328,-5.2404,-4.9981,-4.7009,-4.3835,-4.0969,0.0,-3.5981,-3.55,-3.55,-3.55,-3.6019,-3.6846,0.0,-3.8219,-3.9604,-4.3692,-4.6784,-4.9151,0.0,-5.2549,0.0,0.0,0.0,0.0,0.0,0.0,0.0,-5.5703,-5.5703,-5.5703,-5.5703,-5.5703,-5.5703,-5.5703,-5.5703,-5.5299,-5.4491,-5.3818,-5.3029,-5.2154,-5.151,-5.1241,-5.1221,-5.1029,0.0,0.0,-5.077,-5.0712,-5.0712,-5.0712,-5.0289,-4.9683,-4.9683,-4.9125,-4.8375,0.0,0.0,0.0,0.0,0.0,0.0,0.0,-2.6947,-2.7465,-2.9002,-2.8612,-2.876,-3.0208,-3.0257,-3.0192,0.0,0.0,0.0,0.0,0.0,0.0,0.0,0.0,0.0,0.0,0.0,0.0,0.0,0.0,0.0,0.0,0.0,0.0,0.0,0.0,0.0,0.0,0.0,0.0,0.0,0.0,0.0,0.0,0.0,0.0,0.0,0.0,0.0,0.0,0.0,0.0,-4.0573,-4.1604,-4.3066,-4.4605,-4.5556,0.0,0.0,-5.1865,-5.3106,-5.4164,-5.3299,-5.0029,-4.6317,-4.3701,0.0,-3.7623,-3.5865,-3.55,-3.55,-3.55,-3.5558,-3.6385,-3.8796,-3.8931,-4.0288,-4.4797,-4.6614,-4.8249,-5.0442,0.0,0.0,0.0,0.0,0.0,0.0,0.0,0.0,0.0,-5.5703,-5.5703,-5.5703,-5.5703,-5.5703,-5.5703,-5.5703,-5.5299,-5.4491,-5.4414,-5.3914,-5.3087,-5.301,-5.2972,-5.2933,-5.2135,0.0,0.0,-5.0991,-5.0712,-5.0712,-5.0712,-5.0654,-5.0577,-5.0577,-5.0029,-4.9279,0.0,0.0,0.0,0.0,0.0,0.0,-2.6875,-2.6972,-2.7571,-2.9259,-2.9166,-2.9377,-3.0497,-3.0056,-2.969,-2.969,0.0,0.0,0.0,0.0,0.0,0.0,0.0,0.0,0.0,0.0,0.0,0.0,0.0,0.0,0.0,0.0,0.0,0.0,0.0,0.0,0.0,0.0,0.0,0.0,0.0,0.0,0.0,0.0,0.0,0.0,0.0,0.0,0.0,0.0,0.0,0.0,-4.0758,-4.147,0.0,0.0,-4.7509,-4.9837,-5.0894,-5.2414,-5.3395,-5.2029,-4.8875,-4.5451,-4.2893,0.0,-3.7661,-3.6462,-3.6212,-3.6212,-3.6212,-3.5827,-3.5827,-3.6853,-3.6904,0.0,-4.0627,0.0,0.0,0.0,0.0,0.0,0.0,0.0,0.0,0.0,0.0,0.0,0.0,-5.5703,-5.5703,-5.5703,-5.5703,-5.5472,-5.4972,-5.5453,-5.5299,-5.4491,-5.4491,-5.4049,-5.3183,-5.2654,-5.2145,-5.1683,-5.1337,0.0,0.0,-5.0827,-5.0712,-5.0712,-5.0712,-5.0712,-5.0712,-5.0712,-5.0481,-5.0183,0.0,0.0,0.0,0.0,0.0,-2.5996,-2.6875,-2.6992,-2.7539,-2.8982,-2.9152,-2.9432,-3.0209,-2.9213,-2.8679,-2.9151,-2.9134,0.0,0.0,0.0,0.0,0.0,0.0,0.0,0.0,0.0,-3.1133,-3.1641,-3.2246,0.0,0.0,0.0,0.0,0.0,0.0,0.0,0.0,0.0,0.0,0.0,0.0,0.0,0.0,0.0,0.0,0.0,0.0,0.0,0.0,0.0,0.0,0.0,0.0,-4.0496,-4.1016,0.0,-4.6028,-4.8009,-4.924,-5.0991,-5.2125,-5.0664,-4.7942,-4.4998,0.0,0.0,-3.8142,-3.7257,-3.7084,-3.7084,-3.7084,-3.6615,-3.6327,-3.6577,-3.6262,-3.6736,-3.8831,-4.0792,0.0,0.0,0.0,0.0,0.0,0.0,0.0,0.0,0.0,0.0,0.0,-5.5703,-5.5703,-5.5703,-5.5703,-5.5299,-5.4511,-5.5049,-5.5049,-5.4491,-5.4491,-5.4299,-5.3914,-5.3299,-5.2587,-5.1808,0.0,0.0,0.0,-5.0808,-5.0712,-5.0712,-5.0712,-5.0712,-5.0712,-5.0712,-5.0712,-5.0712,0.0,0.0,0.0,0.0,0.0,0.0,-2.6875,-2.6992,-2.7283,-2.8101,-2.8276,-2.8566,-2.9249,-2.7826,-2.7471,-2.9063,-2.9134,0.0,0.0,0.0,0.0,0.0,0.0,0.0,0.0,0.0,-3.1719,-3.3379,-3.3379,-3.4163,-3.5668,0.0,0.0,0.0,0.0,0.0,0.0,0.0,0.0,0.0,0.0,0.0,0.0,0.0,0.0,0.0,0.0,0.0,0.0,0.0,0.0,0.0,0.0,-4.0496,-4.0689,-4.1585,-4.425,-4.6923,-4.6923,-4.8798,-5.0519,-4.9625,-4.749,-4.5171,0.0,0.0,-3.9034,-3.8161,-3.7988,-3.7988,-3.7988,-3.7988,-3.8257,-3.913,-3.8093,0.0,-4.1327,-4.3957,0.0,0.0,0.0,0.0,0.0,0.0,0.0,0.0,0.0,0.0,0.0,-5.5703,-5.5703,-5.5703,-5.5703,-5.5299,-5.4511,-5.4511,-5.4511,-5.4491,-5.4491,-5.4914,-5.5665,-5.5665,-5.5222,0.0,0.0,0.0,0.0,-5.1029,-5.0712,-5.0712,-5.0712,-5.0712,-5.0712,-5.0712,-5.0712,-5.0712,0.0,0.0,0.0,0.0,0.0,0.0,0.0,-2.6113,-2.6426,-2.7263,-2.7402,-2.7714,-2.8524,-2.7528,-2.724,-2.8353,-2.8347,0.0,0.0,0.0,0.0,0.0,0.0,0.0,0.0,-3.0898,-3.1445,-3.2578,-3.3125,-3.3598,-3.4011,-3.5159,-3.53,0.0,0.0,0.0,0.0,0.0,0.0,0.0,0.0,0.0,0.0,0.0,0.0,0.0,0.0,0.0,0.0,0.0,0.0,0.0,0.0,0.0,0.0,-4.1546,-4.2989,0.0,-4.497,-4.6144,-4.7018,-4.6124,-4.4451,-4.2701,-4.1585,-4.0265,-3.9227,-3.8957,-3.8892,-3.8892,-3.8892,-3.8096,-3.7788,-3.8792,-3.8577,0.0,0.0,0.0,0.0,0.0,0.0,0.0,0.0,0.0,0.0,0.0,0.0,0.0,0.0,-5.5703,-5.5703,-5.5703,-5.5703,-5.503,-5.3626,-5.4203,-5.4203,-5.3626,-5.4222,-5.4626,-5.4857,-5.426,0.0,0.0,0.0,0.0,0.0,-5.1279,-5.101,-5.1471,-5.0914,-5.0712,-5.0712,-5.0712,-5.0712,-5.0712,0.0,0.0,0.0,0.0,0.0,0.0,0.0,-2.5703,-2.5898,-2.6445,-2.6504,-2.6836,-2.7672,-2.689,-2.6901,-2.8395,-2.8144,0.0,0.0,0.0,0.0,0.0,0.0,0.0,-3.0898,-3.0898,-3.1484,-3.2656,-3.3144,-3.3505,-3.3763,-3.5126,-3.5247,-3.4345,-3.5243,-3.5591,0.0,0.0,0.0,0.0,0.0,0.0,-3.818,0.0,0.0,0.0,0.0,0.0,0.0,0.0,0.0,0.0,0.0,0.0,0.0,0.0,-4.245,0.0,0.0,-4.3989,-4.4528,-4.397,-4.2816,0.0,0.0,-4.0362,-3.9746,-3.9746,-3.9746,-3.9746,-3.9746,-3.9038,-3.8654,-3.933,-3.9438,0.0,0.0,0.0,0.0,0.0,0.0,0.0,0.0,0.0,0.0,0.0,0.0,0.0,0.0,0.0,-5.5703,-5.5703,-5.5703,-5.4895,-5.3222,-5.3741,-5.3741,-5.3222,-5.376,-5.4337,-5.4934,-5.4395,0.0,0.0,0.0,0.0,0.0,-5.1587,-5.1279,-5.1395,-5.0894,-5.0712,-5.0712,-5.0712,-5.0712,-5.0712,0.0,0.0,0.0,0.0,0.0,0.0,0.0,-2.5703,-2.5703,-2.5703,-2.5703,-2.5973,-2.6731,-2.6026,-2.6439,-2.8825,0.0,0.0,0.0,0.0,0.0,0.0,0.0,0.0,-3.0898,-3.0898,-3.1699,-3.3301,-3.3379,-3.3843,-3.471,-3.5589,-3.5522,-3.4704,-3.5477,-3.5737,-3.5616,-3.5592,-3.5591,-3.5731,-3.743,-3.8084,0.0,0.0,0.0,0.0,0.0,0.0,0.0,0.0,0.0,0.0,0.0,0.0,0.0,0.0,0.0,0.0,0.0,-4.2354,-4.2912,-4.2912,-4.2354,0.0,-4.1712,-4.1123,0.0,-4.0516,-4.0496,-4.0496,-4.0496,-4.0496,-4.0496,-4.0496,0.0,0.0,0.0,0.0,0.0,0.0,0.0,0.0,0.0,0.0,0.0,0.0,0.0,0.0,0.0,0.0,-5.5703,-5.5703,-5.5703,-5.4914,-5.3318,-5.3299,-5.3299,-5.3299,-5.3299,-5.4145,-5.5703,-5.5645,0.0,0.0,0.0,0.0,0.0,-5.1885,-5.1414,-5.0789,-5.0731,-5.0712,-5.0712,-5.0712,-5.0712,-5.0712,0.0,0.0,0.0,0.0,0.0,0.0,0.0,0.0,0.0,0.0,-2.5659,-2.5706,-2.5874,-2.5617,-2.5927,0.0,0.0,0.0,0.0,0.0,0.0,0.0,0.0,0.0,-3.0898,-3.0898,-3.1426,-3.248,-3.3105,-3.4156,-3.5609,-3.6489,-3.6716,-3.6434,-3.6726,-3.6418,-3.5722,-3.6313,-3.6511,-3.6577,-3.8296,-3.8996,0.0,0.0,0.0,0.0,-4.0496,-4.0931,0.0,0.0,0.0,0.0,0.0,0.0,0.0,0.0,-4.297,0.0,-4.1788,0.0,-4.1112,-4.1112,-4.145,-4.1643,0.0,-4.1162,-4.1316,-4.065,-4.0496,-4.0496,0.0,0.0,0.0,0.0,0.0,0.0,0.0,0.0,0.0,0.0,0.0,0.0,0.0,0.0,0.0,0.0,0.0,0.0,0.0,0.0,-5.5703,-5.5703,-5.5703,-5.5222,-5.4203,-5.4184,-5.4184,-5.4184,-5.4184,-5.4722,-5.5684,-5.5049,0.0,0.0,0.0,0.0,-5.3741,-5.1779,-5.1221,-5.1568,-5.0933,-5.0712,-5.0712,-5.0712,-5.0712,-5.0712,0.0,0.0,0.0,0.0,0.0,0.0,0.0,0.0,0.0,0.0,0.0,0.0,0.0,0.0,0.0,0.0,0.0,0.0,0.0,0.0,0.0,0.0,0.0,-3.0898,-3.0898,-3.0898,-3.1504,-3.2754,-3.3184,-3.4061,-3.5361,-3.6239,-3.6407,-3.5976,-3.682,-3.7084,-3.6926,-3.7318,-3.7422,-3.7411,-3.8757,0.0,0.0,0.0,0.0,0.0,-4.065,-4.1066,0.0,-4.172,-4.1739,-4.2085,0.0,0.0,0.0,0.0,-4.3701,-4.2412,-4.2412,-4.147,-4.0496,-4.0496,-4.0854,-4.1085,-4.0612,-4.0854,-4.1066,-4.0593,-4.0496,-4.0496,0.0,0.0,0.0,0.0,0.0,0.0,0.0,0.0,0.0,0.0,0.0,0.0,0.0,0.0,0.0,0.0,0.0,0.0,0.0,0.0,-5.5703,-5.5703,-5.5703,-5.5299,-5.4511,-5.4491,-5.4491,-5.4491,-5.4087,-5.453,-5.5665,-5.4453,-5.4357,0.0,0.0,0.0,-5.3203,-5.1818,-5.1298,-5.1318,-5.0856,-5.0712,-5.0712,-5.0712,-5.0712,-5.0712,0.0,0.0,0.0,0.0,0.0,0.0,0.0,0.0,0.0,0.0,0.0,0.0,0.0,0.0,0.0,0.0,0.0,0.0,0.0,0.0,0.0,0.0,-3.0837,-3.0957,-3.1094,-3.0976,-3.166,-3.3223,-3.3476,-3.3984,-3.4726,-3.5859,-3.5996,-3.5351,-3.6648,-3.7617,-3.8307,-3.8374,-3.8342,-3.8277,-3.915,0.0,0.0,0.0,0.0,0.0,0.0,0.0,0.0,-4.2805,-4.2604,-4.2412,-4.4682,0.0,0.0,0.0,0.0,0.0,-4.3124,-4.1912,-4.0669,-4.0535,-4.0593,-4.0669,-4.0535,-4.0593,-4.0669,-4.0535,-4.0489,-4.0508,0.0,-4.065,0.0,0.0,0.0,0.0,0.0,0.0,0.0,0.0,0.0,0.0,0.0,0.0,0.0,0.0,0.0,0.0,0.0,0.0,0.0,-5.5703,-5.5703,-5.5376,-5.4684,-5.4684,-5.4626,-5.4491,-5.376,-5.4068,-5.5261,-5.3857,-5.3606,0.0,0.0,0.0,-5.1885,-5.1769,-5.1318,-5.0712,-5.0712,-5.0712,-5.0712,-5.0712,-5.0712,-5.0712,0.0,0.0,0.0,0.0,0.0,0.0,0.0,0.0,0.0,0.0,0.0,0.0,0.0,0.0,0.0,0.0,0.0,0.0,0.0,0.0,0.0,-3.0878,-3.0898,-3.125,-3.1973,-3.1289,-3.1387,-3.2383,-3.3809,-3.457,-3.4746,-3.7109,-3.8125,-3.7988,-3.75,-3.7669,-3.8346,-3.9085,-3.9273,-3.9169,-3.9996,0.0,0.0,0.0,0.0,0.0,0.0,0.0,0.0,-4.2834,-4.3008,-4.3085,-4.4162,0.0,0.0,0.0,0.0,0.0,-4.3297,-4.2374,-4.1431,-4.0689,-4.1046,-4.1412,-4.0669,-4.1066,-4.1393,-4.065,-4.0492,0.0,0.0,-4.1288,-4.1992,0.0,0.0,0.0,0.0,0.0,0.0,0.0,0.0,0.0,0.0,0.0,0.0,0.0,0.0,0.0,0.0,0.0,0.0,-5.5703,-5.5703,-5.5645,-5.5511,-5.5511,-5.5164,-5.4491,-5.4357,-5.4049,-5.3587,-5.3318,-5.328,0.0,0.0,-5.2019,-5.1846,-5.1164,-5.0808,-5.0712,-5.0712,-5.0712,-5.0712,-5.0712,-5.0712,-5.0712,0.0,0.0,0.0,0.0,0.0,0.0,0.0,0.0,0.0,0.0,0.0,0.0,0.0,0.0,0.0,0.0,0.0,0.0,0.0,0.0,-3.0898,-3.0898,-3.0898,-3.1309,-3.2187,-3.1816,-3.2461,-3.4258,-3.4551,-3.5176,-3.6113,-3.6855,-3.7695,-3.8574,-3.8119,-3.8545,-3.9665,-4.0048,-4.0093,-3.9977,0.0,0.0,0.0,0.0,0.0,0.0,0.0,0.0,0.0,0.0,-4.3739,-4.3893,-4.4739,0.0,0.0,0.0,0.0,0.0,-4.3201,-4.2124,-4.0893,-4.0054,-4.0469,-4.0873,-4.0035,-4.0489,-4.0989,-4.0588,-4.125,0.0,0.0,0.0,0.0,0.0,0.0,0.0,0.0,0.0,0.0,0.0,0.0,0.0,0.0,0.0,0.0,0.0,0.0,0.0,0.0,0.0,0.0,0.0,-5.4539,-5.4752,-5.5151,-5.4688,-5.4477,-5.4491,-5.3549,-5.3126,-5.3164,-5.226,-5.2087,-5.2442,0.0,-5.1241,-5.1221,-5.0837,-5.0712,-5.0712,-5.0712,-5.0712,-5.0712,-5.0712,-5.0712,-5.0712,0.0,0.0,0.0,0.0,0.0,0.0,0.0,0.0,0.0,0.0,0.0,0.0,0.0,0.0,0.0,0.0,0.0,0.0,0.0,-3.0898,-3.0898,-3.0858,-3.0879,-3.1406,-3.2461,-3.2305,-3.3359,-3.5703,-3.5234,-3.5781,-3.7285,-3.6406,-3.6934,-3.8594,-3.8484,-3.9314,-4.0793,-4.0771,-4.0678,-4.0564,0.0,0.0,0.0,0.0,0.0,0.0,0.0,0.0,0.0,0.0,0.0,0.0,0.0,0.0,0.0,-4.5594,-4.4682,-4.3605,-4.3201,-4.2124,-4.0823,-3.9611,-3.99,-4.0265,-3.9385,-4.0181,-4.1219,-4.1599,-4.2547,0.0,0.0,0.0,0.0,0.0,0.0,0.0,0.0,0.0,0.0,0.0,0.0,0.0,0.0,0.0,0.0,0.0,0.0,0.0,0.0,0.0,0.0,0.0,-5.3545,-5.3863,-5.4389,-5.3526,-5.3467,-5.4184,-5.2635,-5.2154,-5.2568,-5.1279,-5.1029,-5.1587,-5.0971,-5.0712,-5.0712,-5.0712,-5.0712,-5.0712,-5.0712,-5.0712,-5.0712,-5.0712,-5.0712,-5.0712,0.0,0.0,0.0,0.0,0.0,0.0,0.0,0.0,0.0,0.0,0.0,0.0,0.0,0.0,0.0,0.0,0.0,0.0,0.0,-3.0898,-3.0838,-3.072,-3.0837,-3.166,-3.3281,-3.2578,-3.3047,-3.4785,-3.5547,-3.6387,-3.7285,-3.6406,-3.6934,-3.8594,-3.8594,-3.9408,-4.0805,-4.0939,-4.0875,-4.0756,-4.1636,0.0,0.0,0.0,0.0,0.0,0.0,0.0,0.0,0.0,0.0,0.0,0.0,0.0,-4.5594,-4.5594,-4.5518,-4.5075,-4.3528,-4.3008,-4.2335,-3.9919,-3.99,-4.0219,-3.9092,-4.0954,-4.3344,-4.49,-4.4481,0.0,0.0,0.0,0.0,0.0,0.0,0.0,0.0,0.0,0.0,0.0,0.0,0.0,0.0,0.0,0.0,0.0,0.0,0.0,0.0,0.0,0.0,0.0,-5.3597,-5.3572,-5.3495,-5.2624,-5.2558,-5.328,-5.2346,-5.1548,-5.0885,-5.077,-5.0731,-5.0789,-5.0731,-5.0712,-5.0712,-5.0712,-5.0712,-5.0712,-5.0712,-5.0712,-5.0712,-5.0712,-5.0712,-5.0712,0.0,0.0,0.0,0.0,0.0,0.0,0.0,0.0,0.0,0.0,0.0,0.0,0.0,0.0,0.0,0.0,0.0,0.0,0.0,-3.0898,-3.0837,-3.0716,-3.0836,-3.1405,-3.251,-3.2792,-3.3516,-3.4707,-3.5566,-3.6172,-3.6484,-3.6152,-3.6641,-3.7812,-3.8273,-3.9087,-4.0157,-4.0665,-4.1143,-4.1601,-4.196,-4.2949,0.0,0.0,0.0,0.0,0.0,0.0,0.0,0.0,-4.5543,-4.529,-4.5522,-4.5594,-4.5594,-4.5594,-4.5229,-4.4528,-4.3412,-4.2701,-4.1758,-3.9538,-3.9758,-4.0392,-3.9962,-4.2351,-4.482,-4.5475,-4.6382,0.0,0.0,0.0,0.0,0.0,0.0,0.0,0.0,0.0,0.0,0.0,0.0,0.0,0.0,0.0,0.0,0.0,0.0,0.0,0.0,0.0,0.0,0.0,-5.1921,-5.2434,-5.284,-5.1928,-5.1832,-5.2503,-5.1587,-5.0991,-5.0712,-5.0712,-5.0712,-5.0712,-5.0712,-5.0712,-5.0712,-5.0712,-5.0712,-5.0712,-5.0712,-5.0712,-5.0712,-5.0712,-5.0712,-5.0712,0.0,0.0,0.0,0.0,0.0,0.0,0.0,0.0,0.0,0.0,0.0,0.0,0.0,0.0,0.0,0.0,0.0,0.0,-3.0898,-3.0858,-3.079,-3.0675,-3.0759,-3.1029,-3.1529,-3.2739,-3.3808,-3.4707,-3.5566,-3.5996,-3.5996,-3.5996,-3.6601,-3.7734,-3.8232,-3.9075,-4.0153,-4.0699,-4.124,-4.1805,-4.2379,-4.3326,0.0,0.0,0.0,0.0,0.0,0.0,0.0,0.0,-4.579,-4.573,-4.5627,-4.5594,-4.5594,-4.5594,-4.4979,-4.4124,-4.3316,-4.2527,-4.1508,-3.9769,-4.0342,-4.1331,-4.1324,-4.3541,-4.5907,-4.6985,-4.8016,-4.8499,-4.7836,0.0,0.0,0.0,0.0,0.0,0.0,0.0,0.0,0.0,0.0,0.0,0.0,0.0,0.0,0.0,0.0,0.0,0.0,0.0,0.0,0.0,-5.027,-5.0834,-5.1291,-5.0622,-5.0631,-5.13,-5.0612,-5.0442,-5.0712,-5.0712,-5.0712,-5.0712,-5.0712,-5.0539,-5.0289,-5.0289,-5.0289,-5.0327,-5.0596,-5.0712,-5.0712,-5.0712,-5.0712,-5.0712,0.0,0.0,0.0,0.0,0.0,0.0,0.0,0.0,0.0,0.0,0.0,0.0,0.0,0.0,0.0,0.0,0.0,0.0,-3.0898,-3.0771,-3.0675,-3.0609,-3.0606,-3.0565,-3.0503,-3.2345,-3.3758,-3.4707,-3.5566,-3.5996,-3.5996,-3.6016,-3.6934,-3.8594,-3.8594,-3.9506,-4.1,-4.1149,-4.1127,-4.1177,-4.2986,-4.3711,-4.3906,0.0,0.0,0.0,0.0,0.0,0.0,0.0,-4.577,-4.5594,-4.5594,-4.5594,-4.5594,-4.5594,-4.4998,-4.4143,-4.3335,-4.2662,-4.1939,-4.0785,-4.182,-4.3091,-4.3113,-4.4421,-4.6584,-4.9998,-4.9307,-4.7855,-4.7058,0.0,0.0,0.0,0.0,0.0,0.0,0.0,0.0,0.0,0.0,0.0,0.0,0.0,0.0,0.0,0.0,0.0,0.0,0.0,0.0,0.0,-4.8906,-4.8843,-4.8701,-4.8565,-4.8863,-4.9589,-4.9446,-4.9837,-5.0693,-5.0693,-5.0673,-5.0673,-5.0693,-5.0183,-4.9394,-4.9394,-4.9394,-4.949,-5.0346,-5.0693,-5.0712,-5.0712,-5.0712,-5.0712,0.0,0.0,0.0,0.0,0.0,0.0,0.0,0.0,0.0,0.0,0.0,0.0,0.0,0.0,0.0,0.0,0.0,0.0,-3.0937,-3.0858,-3.0762,-3.0609,-3.0652,-3.0625,-3.0503,-3.2345,-3.4052,-3.5605,-3.5254,-3.5391,-3.6016,-3.6621,-3.7187,-3.7734,-3.8965,-3.9784,-4.027,-4.0918,-4.1855,-4.2946,-4.3476,-4.4433,-4.5586,0.0,0.0,0.0,0.0,0.0,0.0,0.0,0.0,0.0,-4.5627,-4.5594,-4.5594,-4.5594,-4.5421,-4.5037,-4.4182,-4.3393,0.0,-4.0888,0.0,0.0,0.0,-4.586,-4.7353,0.0,-4.8884,-4.8221,-4.8586,0.0,0.0,0.0,0.0,0.0,0.0,0.0,0.0,0.0,0.0,0.0,0.0,0.0,0.0,0.0,0.0,0.0,0.0,0.0,0.0,0.0,-4.8574,-4.8886,-4.8843,-4.8617,-4.8604,-4.883,-4.8577,-4.8933,-4.9779,-4.9779,-4.9452,-4.8913,-4.951,-4.9298,-4.849,-4.849,-4.8856,-4.9433,-4.9683,-5.0164,-5.0712,-5.0712,-5.0712,-5.0789,0.0,0.0,0.0,0.0,0.0,0.0,0.0,0.0,0.0,0.0,-3.0898,-3.0898,0.0,0.0,0.0,0.0,0.0,0.0,-3.1445,-3.1033,-3.0915,-3.1112,-3.1126,-3.1439,-3.2089,-3.3206,-3.4506,-3.5996,-3.5469,-3.5488,-3.6016,-3.6894,-3.748,-3.7871,-3.9277,-4.0098,-4.0449,-4.0976,-4.1973,-4.3203,-4.3555,-4.4531,-4.582,0.0,0.0,0.0,0.0,0.0,0.0,0.0,0.0,0.0,-4.5637,-4.5594,-4.5537,-4.519,-4.4863,-4.4432,-4.3662,-4.3121,0.0,-4.1434,-4.2019,-4.3352,-4.5186,0.0,0.0,0.0,0.0,-4.7875,-4.8721,0.0,0.0,0.0,0.0,0.0,0.0,0.0,0.0,0.0,0.0,0.0,0.0,0.0,0.0,0.0,0.0,0.0,0.0,0.0,0.0,0.0,-4.7598,-4.7871,-4.7871,-4.7596,-4.763,-4.7976,-4.7739,-4.7894,-4.8413,-4.874,-4.8606,-4.8105,-4.8317,-4.8105,-4.7663,-4.7971,-4.8221,-4.8509,-4.951,-5.0029,-5.0231,-5.0577,-5.0894,-5.1241,0.0,0.0,0.0,0.0,0.0,0.0,0.0,0.0,0.0,0.0,-3.0898,-3.0898,0.0,0.0,0.0,0.0,0.0,0.0,0.0,-3.1337,-3.1178,-3.1981,-3.1941,-3.2717,-3.4465,-3.4507,-3.4985,-3.5996,-3.5996,-3.6035,-3.6133,-3.7012,-3.7871,-3.8769,-3.9629,-4.0469,-4.1191,-4.1191,-4.166,-4.248,-4.3359,-4.4219,-4.5098,-4.5976,0.0,0.0,0.0,0.0,0.0,0.0,0.0,0.0,-4.5594,-4.5594,-4.5441,-4.4643,-4.3835,-4.3104,-4.2632,-4.2348,-4.2171,-4.2197,-4.3025,0.0,-4.5325,-4.6402,-4.7538,-4.8894,0.0,0.0,0.0,0.0,0.0,0.0,0.0,0.0,0.0,0.0,0.0,0.0,0.0,0.0,0.0,0.0,0.0,0.0,0.0,0.0,0.0,0.0,0.0,0.0,-4.6308,-4.6308,-4.6308,-4.6045,-4.632,0.0,-4.6892,-4.6805,-4.6824,-4.7634,-4.799,-4.7952,-4.7142,-4.6835,-4.6951,-4.7624,-4.7508,-4.7144,-4.9529,-5.0029,-4.951,-5.0385,-5.1202,-5.1904,0.0,0.0,0.0,0.0,0.0,0.0,0.0,0.0,0.0,0.0,0.0,0.0,0.0,0.0,0.0,0.0,0.0,0.0,0.0,-3.1899,-3.2091,-3.2882,-3.2754,-3.3228,-3.4465,-3.4507,-3.4985,-3.5996,-3.5996,-3.6348,-3.7031,-3.791,-3.8789,-3.9668,-4.0527,-4.1016,-4.1191,-4.1191,-4.166,-4.248,-4.3359,-4.4219,-4.5098,-4.5976,-4.6308,0.0,0.0,0.0,0.0,0.0,0.0,0.0,-4.5594,-4.5594,-4.5556,-4.5383,-4.4701,-4.4171,-4.4726,-4.3418,0.0,0.0,-4.2747,-4.369,-4.5248,-4.5787,-4.6249,-4.724,0.0,0.0,0.0,0.0,0.0,0.0,0.0,0.0,0.0,0.0,0.0,0.0,0.0,0.0,0.0,0.0,0.0,0.0,0.0,0.0,0.0,0.0,0.0,0.0,-4.6308,-4.6308,-4.6308,-4.6144,-4.6145,0.0,-4.6133,-4.6051,-4.6063,-4.6818,-4.7154,-4.7114,-4.6364,-4.636,-4.6864,-4.6461,-4.6534,-4.7019,-4.8202,-4.8952,-4.951,-5.0385,-5.1202,-5.2,0.0,0.0,0.0,0.0,0.0,0.0,0.0,0.0,0.0,0.0,0.0,0.0,0.0,0.0,0.0,0.0,0.0,0.0,0.0,0.0,-3.2985,-3.3797,-3.4066,-3.4691,-3.5766,-3.5376,-3.5651,-3.6621,-3.6621,-3.6855,-3.7324,-3.8184,-3.9062,-3.9941,-4.0801,-4.1191,-4.1191,-4.1191,-4.166,-4.2441,-4.2891,-4.3848,-4.5058,-4.5508,-4.5937,-4.6269,-4.6075,0.0,0.0,0.0,0.0,0.0,0.0,0.0,-4.5592,-4.512,-4.4662,-4.4124,-4.3374,0.0,0.0,-4.2489,0.0,-4.4008,-4.5306,-4.5287,-4.522,0.0,0.0,0.0,0.0,0.0,0.0,0.0,0.0,0.0,0.0,0.0,0.0,0.0,0.0,0.0,0.0,0.0,0.0,0.0,0.0,0.0,0.0,0.0,0.0,0.0,-4.6308,-4.6308,-4.6308,-4.6173,-4.6108,-4.6108,-4.5933,-4.5859,-4.5853,-4.6218,-4.6394,-4.6402,-4.6013,-4.6078,-4.6428,-4.6459,-4.6668,-4.7066,-4.834,-4.9062,-4.951,-5.0385,-5.1202,-5.1962,0.0,0.0,0.0,0.0,0.0,0.0,0.0,0.0,0.0,0.0,0.0,0.0,0.0,0.0,0.0,0.0,0.0,0.0,0.0,0.0,0.0,-3.4906,-3.5521,-3.6332,-3.7386,-3.6703,-3.6722,-3.7519,-3.7363,-3.7441,-3.7754,-3.8496,-3.9219,-3.9922,-4.0644,-4.0976,-4.0976,-4.082,-4.1211,-4.1973,-4.2129,-4.3066,-4.4394,-4.4824,-4.5449,-4.6074,-4.6088,-4.6108,-4.608,-4.5955,0.0,0.0,0.0,0.0,-4.5634,-4.4805,-4.4446,-4.3874,-4.1915,0.0,-4.1827,-4.2835,-4.3489,0.0,-4.5152,-4.4701,0.0,0.0,0.0,0.0,0.0,0.0,0.0,0.0,0.0,0.0,0.0,0.0,0.0,0.0,0.0,0.0,0.0,0.0,0.0,0.0,0.0,0.0,0.0,0.0,-4.5859,-4.5839,-4.5996,-4.6074,-4.6074,-4.6119,-4.6122,-4.6122,-4.5995,-4.5928,-4.5924,-4.588,-4.588,-4.5903,-4.592,-4.592,-4.5957,-4.6673,-4.6904,-4.6964,-4.867,-4.9266,-4.9298,-5.0327,-5.1202,-5.1904,0.0,0.0,0.0,0.0,0.0,0.0,0.0,0.0,0.0,0.0,-3.0898,-3.0898,0.0,0.0,0.0,0.0,0.0,0.0,0.0,0.0,0.0,-3.6631,-3.6751,-3.726,-3.8227,-3.8131,-3.8188,-3.8437,-3.7676,-3.8066,-3.9551,-3.9668,-3.9785,-3.9902,-4.0019,-4.0078,-4.0019,-3.9277,-3.9453,-4.0293,-4.1055,-4.1504,-4.1953,-4.416,-4.5078,-4.5253,-4.5874,-4.6108,-4.608,-4.5955,-4.5899,0.0,0.0,0.0,0.0,-4.5635,-4.4986,-4.4382,-4.4809,0.0,-4.1053,0.0,-4.2604,-4.2547,0.0,0.0,0.0,0.0,0.0,0.0,0.0,0.0,0.0,0.0,0.0,0.0,0.0,0.0,0.0,0.0,0.0,0.0,0.0,0.0,0.0,0.0,0.0,0.0,0.0,-4.402,-4.4021,-4.3957,-4.4743,-4.5176,-4.5176,-4.5898,-4.6269,-4.6268,-4.6144,-4.6077,-4.6077,-4.6067,-4.5992,-4.5907,-4.6011,-4.6001,-4.5918,-4.6035,-4.6035,-4.6131,-4.7689,-4.8287,-4.8471,-5.0087,-5.1202,-5.1904,0.0,0.0,0.0,0.0,0.0,0.0,0.0,0.0,0.0,0.0,0.0,-3.1094,0.0,0.0,0.0,0.0,0.0,0.0,0.0,0.0,0.0,-3.7082,-3.7549,-3.8241,-3.9212,-3.8763,-3.8786,-3.9336,-3.8945,-3.9141,-3.9902,-4.0391,-4.0625,-4.0605,-4.0117,-3.9902,-3.9844,-3.8965,-3.9101,-3.9922,-4.0312,-4.0762,-4.1426,-4.3496,-4.4277,-4.4433,-4.5757,-4.6203,-4.6201,-4.6145,-4.6119,-4.6113,-4.6036,0.0,0.0,0.0,-4.5497,-4.4997,-4.4375,-4.2396,-4.0798,0.0,-4.245,-4.272,-4.3451,0.0,0.0,0.0,0.0,0.0,0.0,0.0,0.0,0.0,0.0,0.0,0.0,0.0,0.0,0.0,0.0,0.0,0.0,0.0,0.0,0.0,0.0,0.0,-4.3487,-4.3581,-4.3635,-4.3597,-4.4038,-4.4512,-4.5,-4.5371,-4.582,-4.6308,-4.6246,-4.6203,-4.6203,-4.6203,-4.6175,-4.614,-4.6196,-4.6142,-4.6005,-4.6005,-4.6488,-4.7273,-4.7952,-4.8752,-4.9644,-5.0423,-5.0914,-5.1221,0.0,0.0,0.0,0.0,0.0,0.0,0.0,0.0,0.0,0.0,0.0,0.0,0.0,0.0,0.0,0.0,0.0,0.0,0.0,0.0,0.0,-3.7501,-3.8125,-3.9015,-4.0195,-3.959,-3.957,-4.0234,-4.0019,-4.0019,-4.0234,-4.0449,-4.0664,-4.082,-3.9961,-3.9453,-3.918,-3.8301,-3.8574,-3.9551,-3.9336,-3.9766,-4.0703,-4.2168,-4.2734,-4.2988,-4.4941,-4.5644,-4.5703,-4.6152,-4.6308,-4.6289,-4.6177,0.0,0.0,0.0,0.0,0.0,0.0,0.0,-4.1316,-4.1973,-4.245,-4.2777,0.0,0.0,0.0,0.0,0.0,0.0,0.0,0.0,0.0,0.0,0.0,0.0,0.0,0.0,0.0,0.0,0.0,0.0,0.0,0.0,0.0,0.0,0.0,0.0,-4.2726,-4.2869,-4.2926,-4.289,-4.3196,-4.3672,-4.4336,-4.4785,-4.5449,-4.6308,-4.6308,-4.6308,-4.6308,-4.6268,-4.6268,-4.6308,-4.6268,-4.6199,-4.6106,-4.6033,-4.6674,-4.7692,-4.8106,-4.8979,-5.0087,-5.0539,-5.0712,-5.0712,0.0,0.0,0.0,0.0,0.0,0.0,0.0,0.0,0.0,0.0,0.0,0.0,-3.2207,-3.3613,-3.4258,-3.3476,-3.4199,-3.4726,-3.4765,-3.5547,-3.6758,-3.8457,-3.8574,0.0,-4.1094,-4.1094,-4.1094,-4.1133,-4.0293,-4.0312,-4.1094,-3.9492,-3.918,-3.9922,-3.9062,-3.8203,-3.7383,-3.6504,-3.7129,-3.8594,-3.7773,-3.7969,-3.8828,-3.9746,-4.0098,-4.043,-4.2949,-4.3848,-4.4082,-4.5742,-4.6308,-4.6308,-4.6289,0.0,0.0,0.0,0.0,0.0,0.0,-4.4239,0.0,-4.3019,-4.245,0.0,0.0,0.0,0.0,0.0,0.0,0.0,0.0,0.0,0.0,0.0,0.0,0.0,0.0,0.0,0.0,0.0,0.0,0.0,0.0,0.0,0.0,0.0,0.0,0.0,-4.0843,-4.1036,-4.1086,-4.0949,-4.1935,-4.248,-4.2539,-4.418,-4.5449,-4.6308,-4.6308,-4.6308,-4.6308,-4.6173,-4.6175,-4.6289,-4.6171,-4.6113,-4.608,-4.589,-4.5854,-4.6073,-4.7529,-4.8153,-4.8432,-5.0087,-5.0712,-5.0712,0.0,0.0,0.0,0.0,0.0,0.0,0.0,0.0,0.0,0.0,0.0,0.0,0.0,-3.4336,-3.4805,-3.5059,-3.5351,-3.5527,-3.5527,-3.6348,-3.7363,-3.8555,-3.9141,-3.998,-4.1172,-4.1191,-4.1191,-4.1191,-4.0898,-4.0605,-4.0351,-3.9726,-3.9004,-3.8223,-3.7891,-3.7598,-3.7246,-3.6367,-3.668,-3.7734,-3.7422,-3.748,-3.793,-3.9355,-3.9902,-4.0156,0.0,0.0,0.0,0.0,0.0,0.0,0.0,0.0,0.0,0.0,0.0,0.0,0.0,0.0,0.0,-4.3201,-4.2874,0.0,0.0,0.0,0.0,0.0,0.0,0.0,0.0,0.0,0.0,0.0,0.0,0.0,0.0,0.0,0.0,0.0,0.0,0.0,0.0,0.0,0.0,0.0,0.0,0.0,-4.0568,-4.0757,-4.0854,-4.0801,-4.1348,-4.2148,-4.3223,-4.4961,-4.5996,-4.6308,-4.6203,-4.6174,-4.6173,-4.6036,-4.6042,-4.6152,-4.6033,-4.5978,-4.5967,-4.5856,-4.6076,-4.6601,-4.7671,-4.8432,-4.9086,-5.0269,-5.0712,-5.0712,0.0,0.0,0.0,0.0,0.0,0.0,0.0,0.0,0.0,-3.1601,0.0,0.0,0.0,0.0,-3.5371,-3.5957,-3.5996,-3.5996,-3.5996,-3.6543,-3.7383,-3.8555,-3.9141,-4.0019,-4.1172,-4.1191,-4.1191,-4.1191,-4.1191,-4.0898,-4.0312,-3.9746,-3.8848,-3.7715,-3.7129,-3.6855,-3.6836,-3.625,-3.668,-3.7695,-3.7109,-3.7383,-3.8262,-3.9121,-3.9648,0.0,0.0,0.0,0.0,0.0,0.0,0.0,0.0,0.0,-4.6288,-4.6183,-4.6017,-4.5802,-4.5705,0.0,0.0,0.0,0.0,0.0,0.0,0.0,0.0,0.0,0.0,0.0,0.0,0.0,0.0,0.0,0.0,0.0,0.0,0.0,0.0,0.0,0.0,0.0,0.0,0.0,0.0,0.0,0.0,0.0,-4.0581,-4.0727,-4.085,-4.0925,-4.1378,-4.2285,-4.3691,-4.5137,-4.5995,-4.6225,-4.6145,-4.608,-4.6033,-4.5914,-4.5944,-4.6084,-4.5927,-4.5905,-4.5963,-4.585,-4.6095,-4.6632,-4.769,-4.8452,-4.9106,-5.0269,-5.0712,-5.0712,0.0,0.0,0.0,0.0,0.0,0.0,0.0,0.0,-3.0918,-3.0976,0.0,0.0,0.0,0.0,0.0,-3.5996,-3.5996,-3.5996,-3.5996,-3.5996,-3.6777,-3.8496,-3.8594,-3.9394,-4.1113,-4.1191,-4.1191,-4.1191,-4.1191,-4.1191,-4.1113,-3.9434,-3.8613,-3.8496,-3.6797,-3.6035,-3.6035,-3.6016,-3.6992,-3.8418,-3.6719,-3.7559,-3.9726,-3.8887,0.0,0.0,-4.1699,-4.2344,0.0,-4.4355,0.0,0.0,0.0,-4.6308,-4.6308,-4.6302,-4.6306,-4.6217,0.0,0.0,0.0,0.0,0.0,0.0,0.0,0.0,0.0,0.0,0.0,0.0,0.0,0.0,0.0,0.0,0.0,0.0,0.0,0.0,0.0,0.0,0.0,0.0,0.0,0.0,0.0,0.0,0.0,-4.0697,-4.0697,-4.0776,-4.0922,-4.1191,-4.2012,-4.2832,-4.3691,-4.459,-4.5385,-4.6108,-4.6087,-4.6027,-4.589,-4.5832,-4.5901,-4.6077,-4.5899,-4.592,-4.608,-4.5894,-4.5822,-4.5996,-4.751,-4.8125,-4.8355,-5.0067,-5.0712,-5.0712,0.0,0.0,0.0,0.0,0.0,0.0,-3.0898,-3.0898,-3.1348,0.0,0.0,0.0,-3.5137,-3.5703,-3.5996,-3.5996,-3.5996,-3.5996,-3.5996,-3.5996,-3.6504,-3.7617,-3.8262,-3.9121,-4.0234,-4.0879,-4.1191,-4.1191,-4.1191,-4.0879,-4.0254,-3.9766,-3.8867,-3.7637,-3.7168,-3.6934,-3.6894,-3.6269,-3.6641,-3.7617,-3.7129,-3.7363,0.0,0.0,0.0,0.0,0.0,-4.084,-4.2461,0.0,-4.3808,-4.4824,0.0,-4.6308,-4.6308,-4.6306,-4.6233,-4.614,-4.604,0.0,0.0,0.0,0.0,0.0,0.0,0.0,0.0,0.0,0.0,0.0,0.0,0.0,0.0,0.0,0.0,0.0,0.0,0.0,0.0,0.0,0.0,0.0,0.0,0.0,0.0,0.0,-4.0697,-4.0697,-4.0697,-4.0851,-4.1023,-4.1191,-4.2598,-4.3457,-4.3691,-4.5087,-4.5908,-4.6108,-4.5942,-4.5853,-4.5826,-4.5703,-4.5747,-4.5875,-4.5876,-4.5955,-4.6084,-4.5931,-4.6191,-4.677,-4.7835,-4.8574,-4.9183,-5.0289,-5.0712,-5.0712,0.0,0.0,0.0,0.0,0.0,-3.0898,-3.0898,-3.0898,-3.1387,0.0,0.0,0.0,-3.5801,-3.5996,-3.5996,-3.5996,-3.5996,-3.5996,-3.5996,-3.5996,-3.6387,-3.7266,-3.8125,-3.9004,-3.9883,-4.0742,-4.1191,-4.1191,-4.1191,-4.0937,-4.043,-3.9707,-3.8828,-3.7832,-3.7461,-3.7305,-3.7285,-3.7148,-3.7598,-3.832,-3.7598,0.0,0.0,-3.7988,-3.8613,0.0,0.0,0.0,-4.2891,-4.2519,-4.3476,0.0,0.0,0.0,-4.6308,-4.6308,-4.6247,-4.6173,-4.6115,-4.6008,-4.5901,0.0,0.0,0.0,0.0,-4.3431,0.0,0.0,0.0,0.0,0.0,0.0,0.0,0.0,0.0,0.0,0.0,0.0,0.0,0.0,0.0,0.0,0.0,0.0,0.0,0.0,-4.0661,-4.0735,-4.0827,-4.0981,-4.1126,-4.1191,-4.2832,-4.369,-4.3664,-4.5283,-4.6061,-4.5967,-4.585,-4.5763,-4.5715,-4.5635,-4.5681,-4.5847,-4.5891,-4.6001,-4.6215,-4.6499,-4.6801,-4.7163,-4.7979,-4.8759,-4.951,-5.0385,-5.0712,-5.075,0.0,0.0,0.0,-3.0898,-3.0898,-3.0898,-3.0898,-3.0976,-3.1348,0.0,-3.3125,-3.4277,-3.582,-3.6094,-3.6133,-3.6133,-3.623,-3.6289,-3.6289,-3.6191,-3.6484,-3.7266,-3.8125,-3.8965,-3.9746,-4.0703,-4.1191,-4.1191,-4.1191,-4.1191,-4.1152,-3.9512,-3.873,-3.8711,-3.7832,-3.7441,-3.75,-3.8379,0.0,-3.9707,-3.8164,-3.8476,0.0,0.0,-3.9668,-4.1035,-4.0957,-4.1992,-4.332,-4.2676,-4.332,0.0,0.0,0.0,0.0,0.0,-4.6308,-4.6269,-4.6149,-4.6115,-4.6061,-4.5883,0.0,0.0,-4.3763,-4.339,-4.2912,0.0,0.0,0.0,0.0,0.0,0.0,0.0,0.0,0.0,0.0,0.0,0.0,0.0,0.0,0.0,0.0,0.0,-4.0623,-4.0542,-4.0655,-4.0818,-4.1019,-4.1148,-4.1191,-4.1191,-4.2812,-4.3664,-4.3606,-4.5236,-4.599,-4.5803,-4.5783,-4.5723,-4.5594,-4.562,-4.5715,-4.5881,-4.5907,-4.6069,-4.6347,-4.7226,-4.7514,-4.744,-4.8184,-4.893,-4.9653,-5.0442,-5.0712,-5.0827,0.0,0.0,0.0,0.0,-3.0898,-3.0898,-3.0898,-3.1504,-3.2246,-3.3066,-3.4512,-3.5625,-3.5957,-3.6621,-3.7051,-3.7051,-3.7695,-3.8086,-3.8086,-3.7441,-3.7129,-3.7285,-3.8125,-3.8672,-3.8848,-4.0391,-4.1191,-4.1191,-4.1191,-4.1191,-4.1172,-4.0137,-3.9648,-3.9609,-3.873,-3.8359,-3.8398,0.0,0.0,-3.9473,-3.9121,0.0,-3.9844,-3.9414,-3.9629,-4.0059,-3.9355,-4.0215,-4.1797,-4.2558,-4.2988,-4.3535,0.0,0.0,0.0,-4.6308,0.0,0.0,0.0,0.0,0.0,0.0,0.0,0.0,-4.5349,-4.5179,-4.4825,0.0,0.0,0.0,0.0,0.0,0.0,0.0,0.0,0.0,0.0,0.0,0.0,0.0,0.0,0.0,0.0,0.0,-4.0581,-4.0642,-4.0848,-4.1012,-4.115,-4.1191,-4.1191,-4.1191,-4.2761,-4.3619,-4.3606,-4.5103,-4.5846,-4.5796,-4.5685,-4.5637,-4.5603,-4.5715,-4.5783,-4.5826,-4.5994,-4.6084,-4.6206,-4.7205,-4.7918,-4.8485,-4.9348,-5.0052,-5.0635,-5.079,-5.0799,-5.0827,0.0,-3.0898,-3.0898,0.0,0.0,0.0,-3.0898,-3.1641,-3.248,-3.3281,-3.4922,-3.5996,-3.5996,-3.6777,-3.7305,-3.7305,-3.8105,-3.8594,-3.8594,-3.8184,-3.7949,-3.7949,-3.8789,-3.9258,-3.9258,-4.0527,-4.1191,-4.1191,-4.1191,-4.1191,-4.1172,-4.0137,-3.9648,-3.9629,-3.8906,-3.8594,-3.8633,0.0,-3.9668,-4.0254,-3.9648,0.0,-3.9238,-3.9062,-3.8926,-3.875,-3.8301,-3.9199,-4.082,-4.2676,-4.3125,0.0,0.0,-4.6308,-4.6308,0.0,-4.6308,-4.6308,0.0,0.0,0.0,-4.6117,0.0,0.0,0.0,-4.5206,-4.4892,0.0,0.0,0.0,0.0,0.0,0.0,0.0,0.0,0.0,0.0,0.0,0.0,0.0,0.0,0.0,0.0,0.0,-4.0575,-4.0732,-4.0919,-4.1055,-4.1191,-4.1191,-4.1191,-4.1191,-4.2788,-4.3601,-4.3491,-4.5065,-4.5802,-4.57,-4.5627,-4.5635,-4.57,-4.5775,-4.585,-4.5966,-4.6061,-4.6144,-4.6318,-4.7675,-4.8475,-4.8871,-4.9611,-5.0305,-5.0894,-5.0811,-5.0757,-5.0827,-3.0898,-3.0898,-3.0898,0.0,0.0,0.0,-3.1113,-3.1875,-3.2773,-3.3769,-3.5137,-3.5937,-3.5762,-3.668,-3.7226,-3.7051,-3.7851,-3.8496,-3.8828,-3.8535,-3.8359,-3.8359,-3.9355,-3.9746,-3.9414,-4.0586,-4.1191,-4.1191,-4.1191,-4.1191,-4.1172,-4.0195,-3.9746,-3.9687,-3.8242,-3.8164,-3.9101,0.0,0.0,-4.0176,0.0,-3.9297,-3.8633,-3.8965,-3.8652,-3.8047,-3.8105,-3.8789,-4.0019,-4.2402,-4.3144,-4.3437,-4.5605,-4.6308,0.0,0.0,0.0,0.0,0.0,0.0,0.0,0.0,0.0,-4.5902,0.0,0.0,0.0,0.0,0.0,0.0,0.0,0.0,0.0,0.0,0.0,0.0,0.0,0.0,0.0,0.0,0.0,0.0,0.0,0.0,-4.0816,-4.0805,-4.0952,-4.1081,-4.1191,-4.1191,-4.1191,-4.1191,-4.279,-4.3556,-4.3391,-4.5026,-4.5757,-4.5594,-4.5594,-4.5668,-4.5749,-4.5803,-4.592,-4.6053,-4.6115,-4.6297,-4.668,-4.8242,-4.8984,-4.9175,-4.9825,-5.0439,-5.0918,-5.0791,-5.0712,-5.0846,-3.0898,-3.0898,-3.0898,-3.0898,0.0,0.0,0.0,-3.2734,-3.3848,-3.5488,-3.5879,-3.5703,-3.4922,-3.6328,-3.6992,-3.6211,-3.6934,-3.8105,-3.9648,-3.8301,-3.7441,-3.7441,-3.9023,-3.918,-3.7637,-3.9961,-4.1191,-4.1191,-4.1191,-4.1191,-4.1191,-4.1055,-4.0996,-4.0781,-3.6094,-3.6562,-4.0898,0.0,-3.9238,0.0,-3.9805,-4.0039,0.0,-4.0312,-4.0195,-3.9258,-3.9531,-3.9258,-3.9023,0.0,-4.2422,-4.3926,0.0,-4.6308,-4.6308,-4.6308,0.0,0.0,0.0,0.0,0.0,0.0,-4.6198,0.0,0.0,0.0,0.0,0.0,0.0,0.0,0.0,0.0,0.0,0.0,0.0,0.0,0.0,0.0,0.0,0.0,0.0,0.0,0.0,0.0,0.0,-4.0856,-4.1028,-4.1172,-4.1191,-4.1191,-4.1191,-4.1191,-4.2651,-4.3416,-4.3391,-4.4884,-4.5627,-4.5594,-4.5594,-4.5603,-4.5627,-4.5805,-4.5894,-4.5932,-4.6174,-4.6718,-4.7539,-4.8496,-4.9291,-4.9942,-5.0747,-5.1059,-5.1053,-5.0925,-5.0797,-5.0943,-3.0898,-3.0898,-3.0898,-3.0898,0.0,0.0,0.0,-3.3301,-3.4609,-3.584,-3.5996,-3.5859,-3.5488,-3.7012,0.0,-3.6113,0.0,-3.8359,0.0,0.0,-3.8516,-3.9512,-4.0254,-4.0312,-3.957,-4.0644,-4.1191,-4.1191,-4.1191,-4.1191,-4.1191,-4.1191,-4.1191,-4.1094,-3.8906,0.0,-3.832,0.0,-4.0351,0.0,0.0,0.0,0.0,-4.0156,-4.0254,-3.8945,-3.9101,-3.9238,-3.9531,0.0,-4.2305,0.0,0.0,0.0,0.0,0.0,0.0,0.0,0.0,0.0,0.0,0.0,0.0,0.0,-4.6222,0.0,-4.6122,0.0,0.0,0.0,0.0,0.0,0.0,0.0,0.0,0.0,0.0,0.0,0.0,0.0,0.0,0.0,0.0,0.0,0.0,0.0,0.0,-4.1191,-4.1191,-4.1191,-4.1405,-4.182,-4.2929,-4.3681,-4.4034,-4.5149,-4.568,-4.5594,-4.5594,-4.5643,-4.573,-4.5802,-4.591,-4.603,-4.6142,-4.6683,-4.7541,-4.8421,-4.923,-4.9968,-5.0719,-5.1006,-5.0959,-5.0827,-5.0739,-5.0866,-3.0898,-3.0898,-3.0976,-3.1211,0.0,0.0,0.0,0.0,-3.5371,-3.623,-3.6367,-3.6269,-3.6035,-3.7344,0.0,0.0,-3.6582,-3.7383,0.0,0.0,-3.8457,0.0,0.0,0.0,0.0,-4.0703,-4.1191,-4.1191,-4.1191,-4.1191,-4.1191,-4.1191,-4.1191,-4.1191,0.0,-3.9258,-3.6172,0.0,-4.0332,-4.0976,-3.8437,-3.6855,-3.6328,-3.9336,-3.9707,-3.8633,-3.8867,-3.9355,-4.0039,-4.0918,-4.2168,0.0,-4.4141,0.0,0.0,0.0,0.0,0.0,-4.6308,0.0,0.0,0.0,0.0,0.0,0.0,0.0,0.0,0.0,0.0,0.0,0.0,0.0,0.0,0.0,0.0,0.0,0.0,0.0,0.0,0.0,0.0,0.0,0.0,0.0,0.0,0.0,-4.0979,-4.1082,-4.1082,-4.1342,-4.1724,-4.2234,-4.3326,-4.4086,-4.4505,-4.5336,-4.5692,-4.5594,-4.5594,-4.566,-4.5747,-4.5776,-4.589,-4.6042,-4.6042,-4.6696,-4.7799,-4.8407,-4.922,-5.014,-5.0687,-5.0879,-5.0827,-5.074,-5.0846,-5.1144,-3.0898,-3.0898,-3.1172,0.0,0.0,0.0,0.0,0.0,0.0,0.0,0.0,0.0,0.0,0.0,0.0,0.0,0.0,-3.4277,-3.5976,0.0,-3.6113,0.0,0.0,-3.9629,0.0,0.0,0.0,-4.1191,-4.1191,-4.1191,-4.1191,-4.1191,-4.1191,-4.1191,-4.1191,-3.9258,-3.6016,-3.6113,-3.8105,-4.1191,-4.1074,-3.9004,-3.6191,0.0,-3.8652,-3.8711,-3.9551,0.0,0.0,-4.0918,-4.1758,0.0,0.0,0.0,0.0,0.0,0.0,0.0,0.0,0.0,0.0,-4.6308,0.0,0.0,0.0,0.0,-4.6308,0.0,0.0,0.0,0.0,0.0,-4.5833,-4.5055,-4.4656,0.0,0.0,0.0,0.0,0.0,0.0,0.0,0.0,0.0,0.0,-4.082,-4.0761,-4.0809,-4.0809,-4.1749,-4.222,-4.2105,-4.3774,-4.4608,-4.4499,-4.524,-4.5603,-4.5594,-4.5594,-4.5594,-4.5612,-4.574,-4.5836,-4.5907,-4.5907,-4.6956,-4.8657,-4.8557,-4.944,-5.0877,-5.0889,-5.0822,-5.0702,-5.0693,-5.1183,-5.1981,-3.1758,-3.1758,-3.1855,0.0,0.0,0.0,0.0,-3.5996,0.0,0.0,0.0,0.0,0.0,-3.7637,-3.7226,0.0,0.0,-3.4766,-3.5918,-3.5996,0.0,0.0,0.0,-4.0644,0.0,0.0,0.0,0.0,0.0,-4.1191,-4.1191,-4.1191,-4.1191,-4.1191,0.0,-4.0547,0.0,0.0,0.0,0.0,0.0,-3.9101,-3.6328,0.0,0.0,-4.0273,-4.0,-4.0273,0.0,-4.1094,-4.1738,-4.2363,-4.2129,-4.3418,-4.5,-4.5,-4.5625,0.0,0.0,0.0,-4.6308,-4.6308,0.0,0.0,0.0,0.0,0.0,0.0,0.0,0.0,0.0,0.0,-4.6096,-4.5625,-4.5043,-4.4361,0.0,0.0,0.0,0.0,0.0,0.0,0.0,0.0,0.0,-4.2395,-4.1388,-4.1303,0.0,-4.2307,-4.2626,-4.3654,-4.4256,-4.4783,-4.5213,-4.5475,-4.5594,-4.5594,-4.5594,-4.5594,-4.5594,-4.5651,-4.574,-4.5825,-4.5825,-4.6494,-4.7614,-4.8145,-4.8989,-4.9965,-5.0543,-5.1067,-5.1433,-5.0894,-5.1202,-5.2115,-3.2519,-3.2402,0.0,0.0,0.0,0.0,0.0,0.0,0.0,0.0,-3.8574,0.0,-3.8223,0.0,-3.7793,0.0,-3.5059,-3.5078,-3.5937,-3.5996,0.0,-3.8711,-3.9746,0.0,0.0,0.0,0.0,0.0,0.0,-4.1191,-4.1191,-4.1191,-4.1191,-4.1191,0.0,-4.1191,-4.0976,0.0,-3.5996,0.0,0.0,-3.875,0.0,0.0,-4.082,-4.1133,0.0,-4.0723,-4.1191,-4.1191,-4.1543,-4.1875,-4.1367,-4.2519,-4.4141,-4.4453,-4.5156,-4.5918,-4.6211,-4.6308,0.0,-4.6308,-4.6308,0.0,-4.6308,0.0,0.0,0.0,0.0,0.0,0.0,0.0,-4.6247,-4.6075,-4.5526,-4.4923,0.0,-4.3855,0.0,0.0,0.0,0.0,0.0,0.0,-4.3347,-4.2748,-4.2039,-4.2117,0.0,0.0,-4.3402,-4.4397,-4.4782,-4.5177,-4.5594,-4.5594,-4.5594,-4.5594,-4.5594,-4.5594,-4.5594,-4.5594,-4.5673,-4.5815,-4.6076,-4.6675,-4.7538,-4.8361,-4.9155,-4.9913,-5.0481,-5.101,-5.1452,-5.1202,-5.1856,-5.2991,0.0,0.0,0.0,0.0,-3.5586,0.0,0.0,0.0,-3.8828,0.0,-3.9883,-3.9844,-3.9844,-3.9101,-3.8223,-3.7324,-3.5684,0.0,-3.5937,-3.5996,0.0,0.0,-3.8242,-3.7773,-3.6035,0.0,0.0,0.0,0.0,0.0,-4.1191,-4.1191,-4.1289,-4.1445,-4.1445,0.0,-4.0976,-3.7656,-3.6152,-3.6016,-3.6094,-3.8164,-4.1074,-3.9922,-4.0195,-4.1191,-4.1191,-4.1191,-4.1191,-4.1191,-4.1191,-4.1211,-4.1308,-4.1836,-4.2598,-4.3496,-4.4355,-4.5195,-4.6055,-4.6269,-4.625,-4.6289,0.0,0.0,0.0,0.0,-4.6308,0.0,0.0,0.0,0.0,0.0,0.0,-4.6289,-4.6075,-4.5545,0.0,0.0,0.0,0.0,0.0,0.0,0.0,0.0,-4.3662,-4.2096,-4.2681,-4.3143,0.0,0.0,-4.445,-4.4363,-4.5286,-4.5718,-4.5594,-4.5594,-4.5594,-4.5594,-4.5594,-4.5594,-4.5594,-4.5594,-4.5692,-4.5892,-4.6604,-4.743,-4.8348,-4.9101,-4.9894,-5.0635,-5.0673,-5.0731,-5.0866,-5.1683,-5.301,-5.4453,-3.4141,-3.4199,-3.4336,0.0,-3.5898,-3.6855,0.0,0.0,0.0,0.0,-3.9746,-3.8926,-3.8926,-3.873,-3.7988,-3.6465,-3.5332,0.0,0.0,0.0,0.0,-3.6426,-3.7832,-3.7773,-3.6035,-3.6875,0.0,-4.1191,0.0,0.0,-4.1191,-4.1191,-4.2558,0.0,0.0,0.0,-4.1133,-4.0234,-3.8379,-3.6113,-3.7402,-3.9238,0.0,0.0,-4.0937,-4.1191,-4.1191,-4.1191,-4.1191,-4.1191,-4.1191,-4.1426,-4.2676,-4.293,-4.3027,-4.4297,-4.4824,-4.5195,-4.6055,-4.582,-4.5488,-4.6133,-4.6308,-4.6308,0.0,0.0,0.0,0.0,0.0,0.0,0.0,0.0,0.0,-4.6173,-4.6001,-4.5803,0.0,0.0,0.0,0.0,0.0,0.0,0.0,0.0,-4.4393,-4.4605,-4.3682,0.0,0.0,0.0,0.0,-4.5248,-4.5511,-4.5635,-4.5594,-4.5594,-4.5594,-4.5594,-4.5594,-4.5594,-4.5594,-4.5594,-4.5967,-4.6626,-4.6815,-4.7382,-4.8225,-4.9057,-4.9529,-4.9798,-5.0462,-5.1068,-5.1702,-5.2549,-5.3145,-5.3703,-3.5019,0.0,0.0,-3.5918,0.0,0.0,-3.8398,0.0,0.0,-4.0371,-3.9785,0.0,-3.8633,-3.8594,-3.8047,-3.6699,-3.5762,0.0,-3.6504,0.0,0.0,-3.6719,-3.7207,-3.6992,-3.6016,-3.5996,0.0,-4.3437,0.0,0.0,-4.3437,0.0,0.0,0.0,0.0,-4.5234,-4.3223,-4.0215,-3.8672,-3.8359,-3.9336,0.0,0.0,-4.0605,-4.0742,-4.1191,-4.1191,-4.1191,-4.1191,-4.1191,-4.1191,-4.1367,-4.2305,-4.3086,-4.375,-4.4277,-4.4707,-4.5195,-4.6055,-4.5937,-4.5683,-4.6172,-4.6308,-4.6308,-4.6308,-4.6308,-4.6308,0.0,0.0,0.0,0.0,0.0,0.0,0.0,0.0,0.0,0.0,0.0,0.0,0.0,0.0,0.0,0.0,0.0,0.0,0.0,0.0,0.0,0.0,0.0,0.0,-4.5575,-4.5594,-4.5594,-4.5594,-4.5594,-4.5594,-4.5594,-4.5594,-4.5594,-4.5594,-4.5594,-4.6086,-4.6923,-4.7269,-4.7894,-4.874,-4.9606,-4.9971,-5.001,-5.0519,-5.1183,-5.2,-5.2876,-5.3433,-5.3895,0.0,0.0,0.0,0.0,0.0,0.0,0.0,-3.9316,0.0,-4.0039,0.0,-3.9434,-3.8672,-3.8496,-3.8086,-3.7207,0.0,-3.6328,-3.707,-3.6426,-3.6445,-3.7422,-3.6523,-3.5996,-3.5996,-3.5996,0.0,0.0,0.0,0.0,0.0,0.0,0.0,0.0,0.0,0.0,0.0,-3.959,-3.8633,-4.1191,-4.1191,-4.1191,-4.1094,-4.0039,-4.043,-4.1523,-4.1523,-4.1387,-4.1191,-4.1191,-4.1191,-4.1191,-4.1191,-4.2715,-4.4394,-4.3945,-4.4355,-4.5156,-4.6055,-4.6191,-4.6113,-4.6269,-4.6308,-4.6308,-4.6308,-4.6308,-4.6308,-4.6308,-4.6308,-4.6308,0.0,0.0,0.0,0.0,0.0,0.0,0.0,0.0,0.0,0.0,0.0,0.0,0.0,0.0,0.0,0.0,0.0,0.0,0.0,0.0,0.0,-4.5594,-4.5594,0.0,-4.5594,0.0,-4.5594,-4.5594,-4.5594,-4.5612,-4.5637,-4.5637,-4.6149,-4.7122,-4.7824,-4.8672,-4.9625,-5.0385,-5.0712,-5.0712,-5.0712,-5.1183,-5.2,-5.2876,-5.376,-5.4511,0.0,0.0,0.0,0.0,0.0,-3.9492,-3.9648,-3.9199,-3.9336,-4.0781,-3.9726,-3.8769,-3.8613,-3.7969,-3.7187,-3.6309,-3.6094,0.0,0.0,0.0,0.0,-3.6289,-3.6113,-3.5996,-3.5996,-3.5996,-3.6582,0.0,0.0,0.0,0.0,0.0,0.0,0.0,0.0,0.0,-4.4785,-4.3086,0.0,-4.1191,-4.1191,-4.1191,-4.1172,-4.0976,-4.1875,-4.3262,-4.3262,-4.2363,-4.1191,-4.1191,-4.1191,-4.1191,-4.1191,-4.2422,-4.3926,-4.4336,-4.4551,-4.4902,-4.5996,-4.5605,-4.5117,-4.6074,-4.6308,-4.6308,-4.6308,-4.6308,-4.6308,-4.6308,-4.6308,-4.6308,-4.6308,0.0,0.0,0.0,0.0,0.0,0.0,0.0,0.0,0.0,0.0,0.0,0.0,0.0,0.0,0.0,0.0,0.0,0.0,0.0,0.0,0.0,0.0,0.0,0.0,0.0,-4.5594,-4.5594,-4.5594,-4.5648,-4.5756,-4.5756,-4.66,-4.8055,-4.821,-4.9101,-5.0481,-5.0635,-5.0712,-5.0712,-5.0712,-5.1183,-5.2,-5.2876,-5.376,-5.4587,0.0,0.0,0.0,0.0,0.0,0.0,0.0,-3.9922,0.0,-3.9863,-3.9121,-3.8262,-3.7344,-3.7285,-3.6953,-3.6074,-3.5996,-3.5996,-3.5996,-3.5996,-3.5996,-3.5996,-3.6875,0.0,-3.6894,-3.7187,-3.6914,-3.5996,0.0,0.0,0.0,0.0,0.0,0.0,0.0,-4.5117,0.0,0.0,0.0,-4.1191,-4.1191,-4.1191,-4.1191,-4.1191,-4.207,-4.3437,-4.4629,-4.4141,-4.2773,-4.1601,-4.1777,-4.2344,-4.1465,-4.2578,-4.4101,-4.3808,-4.4238,-4.5039,-4.6035,-4.5898,-4.5605,-4.6152,-4.6308,-4.6308,-4.6308,-4.6308,-4.6308,-4.6308,-4.6308,-4.6308,-4.6308,-4.6308,0.0,0.0,0.0,0.0,0.0,0.0,0.0,0.0,0.0,0.0,0.0,0.0,0.0,0.0,0.0,0.0,0.0,0.0,0.0,0.0,0.0,0.0,0.0,0.0,0.0,-4.5594,-4.5594,-4.5627,-4.5692,-4.5692,-4.6611,-4.8205,-4.8205,-4.9148,-5.0721,-5.0784,-5.0766,-5.0741,-5.1236,-5.1894,-5.2673,-5.3549,-5.4395,-5.5184,0.0,-3.7734,0.0,0.0,-3.9609,0.0,-4.0176,-4.0762,-4.0644,-3.9082,-3.8711,-3.8008,-3.6445,-3.6719,-3.6758,-3.6055,-3.5996,-3.5996,-3.5996,-3.5996,-3.5996,-3.5996,-3.8027,-3.8926,-3.8457,-3.8906,-3.8301,0.0,0.0,0.0,0.0,0.0,0.0,0.0,0.0,0.0,0.0,0.0,-4.2344,-4.123,-4.1582,-4.1738,-4.1758,-4.1875,-4.2637,-4.3828,-4.5449,-4.5449,-4.4414,-4.2617,-4.2754,-4.3496,-4.2305,-4.332,-4.4648,-4.3027,-4.3848,-4.543,-4.6113,-4.6308,-4.6308,-4.6308,-4.6308,-4.6308,-4.6308,-4.6308,-4.6308,-4.6308,-4.6308,-4.6308,-4.6308,-4.6308,0.0,0.0,0.0,0.0,0.0,0.0,0.0,0.0,0.0,0.0,0.0,0.0,0.0,0.0,0.0,0.0,0.0,0.0,0.0,0.0,0.0,-4.5594,-4.5594,0.0,-4.5594,0.0,-4.5594,-4.5697,-4.5894,-4.5894,-4.681,-4.8428,-4.8428,-4.9287,-5.0712,-5.0844,-5.0919,-5.1039,-5.1791,-5.2668,-5.3568,-5.4241,-5.5011,-5.5703,0.0,0.0,0.0,0.0,0.0,0.0,0.0,-4.1152,-4.0859,-3.9902,-3.9082,-3.8242,-3.7285,-3.6543,-3.6094,-3.6016,-3.5996,-3.5996,-3.5996,-3.5996,-3.5996,-3.5996,-3.918,-4.0937,-4.0879,-4.0937,-4.0098,0.0,0.0,0.0,0.0,0.0,0.0,0.0,0.0,0.0,0.0,-4.3672,-4.2695,-4.1328,-4.2851,-4.3476,-4.3535,-4.4062,-4.498,-4.5918,-4.5332,-4.5058,-4.4922,-4.4726,-4.4219,-4.3769,-4.416,-4.5137,-4.5508,-4.2305,-4.3652,-4.6191,-4.6289,-4.6308,-4.6308,-4.6308,-4.6308,-4.6308,-4.6308,-4.6308,-4.6308,-4.6308,-4.6308,-4.6308,-4.6308,-4.6308,-4.6308,0.0,0.0,0.0,0.0,0.0,0.0,0.0,0.0,0.0,0.0,0.0,0.0,0.0,0.0,0.0,0.0,0.0,0.0,-4.5594,0.0,-4.5594,-4.5594,-4.5594,0.0,-4.5594,-4.5594,-4.6042,-4.6858,-4.6858,-4.7826,-4.9463,-4.9463,-4.9928,-5.0712,-5.0844,-5.1247,-5.1818,-5.2023,-5.3035,-5.4395,-5.4472,-5.5011,-5.5703,0.0,0.0,0.0,0.0,0.0,0.0,0.0,-4.1191,-4.0898,-4.0019,-3.9141,-3.8262,-3.7402,-3.6992,-3.6992,-3.7519,-3.707,-3.6992,-3.7539,-3.7851,-3.7891,-3.7578,-3.9902,-4.1191,-4.1191,-4.1191,-4.0859,0.0,0.0,0.0,0.0,0.0,0.0,0.0,0.0,-4.2754,-4.3633,-4.2637,-4.1816,-4.1348,-4.3027,-4.3398,-4.3047,-4.418,-4.498,-4.5469,-4.5137,-4.5332,-4.5781,-4.5781,-4.5195,-4.4433,-4.4141,-4.4726,-4.5156,-4.3262,-4.4043,-4.5625,-4.6152,-4.6308,-4.6308,-4.6308,-4.6308,-4.6308,-4.6308,-4.6308,-4.6308,-4.6308,-4.6308,-4.6308,-4.6308,-4.6308,-4.6308,0.0,0.0,0.0,0.0,0.0,0.0,0.0,0.0,0.0,0.0,0.0,0.0,0.0,0.0,0.0,0.0,0.0,0.0,-4.5594,0.0,-4.5594,-4.5594,-4.5594,-4.5855,-4.6374,-4.6374,-4.6823,-4.7659,-4.7659,-4.8334,-4.9511,-5.0032,-5.0463,-5.0819,-5.0959,-5.1423,-5.2095,-5.2737,-5.3607,-5.4549,-5.503,-5.5415,-5.5703,-3.998,0.0,-4.0488,0.0,-4.1191,-4.1191,-4.1191,-4.1191,-4.0898,-4.0019,-3.9355,-3.8652,-3.7773,-3.7676,-3.793,-3.8555,-3.7871,-3.7676,-3.8301,-3.8867,-3.9219,-3.9355,-4.0547,0.0,-4.1191,-4.1191,-4.1191,-4.1191,-4.1191,0.0,0.0,0.0,0.0,0.0,-4.332,-4.3359,-4.4375,-4.2832,-4.2109,-4.2051,-4.3496,-4.3672,-4.3203,-4.457,-4.5215,-4.5371,-4.5371,-4.5781,-4.6308,-4.6308,-4.5898,-4.5273,-4.4668,-4.4883,-4.5254,-4.4648,-4.4902,-4.5527,-4.6133,-4.6308,-4.6308,-4.6308,-4.6308,-4.6308,-4.6308,-4.6308,-4.6308,-4.6308,-4.6308,-4.6308,-4.6308,-4.6308,-4.6308,-4.6308,0.0,0.0,0.0,0.0,0.0,0.0,-4.6308,-4.6268,-4.6173,0.0,0.0,0.0,0.0,0.0,0.0,0.0,0.0,0.0,0.0,0.0,0.0,-4.5855,-4.6297,-4.6904,-4.7135,-4.7682,-4.849,-4.8759,-4.9202,-4.9817,-5.0442,-5.0793,-5.0923,-5.1309,-5.1863,-5.2589,-5.359,-5.4335,-5.4914,-5.5491,-5.5703,-5.5703,-4.1016,-4.1172,-4.1191,-4.1191,-4.1191,-4.1191,-4.1191,-4.1191,-4.0898,-4.0019,-3.9883,-3.9551,-3.8672,-3.8574,-3.8594,-3.8594,-3.8047,-3.7695,-3.7715,-3.8281,-3.9375,0.0,0.0,-4.1191,-4.1191,-4.1191,-4.1191,-4.1191,0.0,0.0,-4.623,0.0,-4.1211,-4.1406,-4.4746,-4.625,-4.6191,-4.5058,-4.4219,-4.375,-4.4629,-4.4824,-4.4707,-4.584,-4.6289,-4.6289,-4.6289,-4.6289,-4.6308,-4.6308,-4.6289,-4.6289,-4.6269,-4.6289,-4.6289,-4.6269,-4.6289,-4.6289,-4.6308,-4.6308,-4.6308,-4.6308,-4.6308,-4.6308,-4.6308,-4.6308,-4.6308,-4.6308,-4.6308,-4.6308,-4.6308,-4.6308,-4.6308,-4.6308,0.0,0.0,0.0,0.0,0.0,0.0,-4.6308,-4.6308,-4.6308,0.0,0.0,0.0,0.0,0.0,0.0,0.0,0.0,-4.5594,-4.5594,0.0,-4.5594,-4.6451,-4.6885,-4.6904,-4.7721,-4.8548,-4.9413,-5.0289,-5.0673,-5.0693,-5.0712,-5.0793,-5.0961,-5.1897,-5.2717,-5.348,-5.449,-5.5215,-5.5684,-5.5703,-5.5703,-5.5703,-4.1035,-4.1191,-4.1191,-4.1191,-4.1191,-4.1191,-4.1191,-4.1191,-4.1094,-4.082,-4.0781,-4.0684,-4.0391,-3.9844,-3.9726,0.0,-3.9434,-3.9219,0.0,-3.9492,-3.9766,-4.1133,-4.1191,-4.1191,-4.1191,-4.3476,-4.3535,-4.1191,0.0,0.0,0.0,-4.5195,-4.4043,-4.3008,-4.5273,-4.6308,-4.6289,-4.5918,-4.4961,-4.3828,-4.5293,-4.5371,-4.4726,-4.5879,-4.6308,-4.6308,-4.6308,-4.6308,-4.6308,-4.6308,-4.6308,-4.6308,-4.6308,-4.6308,-4.6308,-4.6308,-4.6308,-4.6308,-4.6308,-4.6308,-4.6308,-4.6308,-4.6308,-4.6308,-4.6308,-4.6308,-4.6308,-4.6308,-4.6308,-4.6308,-4.6308,-4.6308,-4.6308,-4.6308,-4.6308,0.0,0.0,0.0,0.0,0.0,-4.6308,-4.6308,0.0,-4.6308,0.0,0.0,0.0,0.0,0.0,0.0,0.0,0.0,-4.6182,0.0,-4.649,-4.7317,-4.8029,-4.8606,-4.8856,-4.9433,-5.0308,-5.0577,-5.0712,-5.0721,-5.0808,-5.0903,-5.1114,-5.2045,-5.2877,-5.3636,-5.455,-5.5234,-5.5703,-5.5703,-5.5703,-5.5703,-4.1094,-4.1191,-4.1191,-4.1191,-4.1191,-4.1191,-4.1191,-4.1191,-4.1191,-4.1191,-4.1191,-4.1191,-4.1191,-4.0703,0.0,-4.1152,-4.0508,-4.0391,-4.1152,-4.1074,-4.1348,-4.2109,-4.1953,-4.1641,-4.1211,0.0,0.0,-4.1191,-4.248,-4.4219,-4.6308,-4.6308,-4.5723,-4.4726,-4.5801,-4.6308,-4.6308,-4.6308,-4.5664,-4.4766,-4.5859,-4.5879,-4.5312,-4.6035,-4.6308,-4.6308,-4.6308,-4.6308,-4.6308,-4.6308,-4.6308,-4.6308,-4.6308,-4.6308,-4.6308,-4.6308,-4.6308,-4.6308,-4.6308,-4.6308,-4.6308,-4.6308,-4.6308,-4.6308,-4.6308,-4.6308,-4.6308,-4.6308,-4.6308,-4.6308,-4.6308,-4.6308,-4.6308,-4.6308,-4.6308,-4.6308,-4.6308,0.0,0.0,0.0,0.0,0.0,0.0,-4.6308,0.0,0.0,0.0,0.0,0.0,0.0,0.0,-4.6095,-4.6913,0.0,-4.7355,-4.8163,-4.8856,-4.9394,-4.9721,-5.0164,-5.0712,-5.0712,-5.0721,-5.0773,-5.0856,-5.099,-5.1203,-5.2122,-5.2968,-5.3754,-5.4587,-5.5259,-5.5769,-5.5726,-5.5703,-5.5703,-4.1191,-4.1191,0.0,0.0,-4.1191,0.0,-4.1191,-4.1191,-4.1191,-4.1191,-4.1191,-4.1191,-4.1191,-4.1191,-4.1191,-4.1191,0.0,0.0,0.0,-4.2871,-4.3848,-4.3769,-4.3281,-4.2519,-4.1465,-4.1504,-4.1543,-4.1543,-4.4746,-4.6308,-4.6308,-4.6308,-4.6308,-4.6308,-4.6308,-4.6308,-4.6308,-4.6308,-4.6308,-4.6308,-4.6308,-4.6308,-4.6308,-4.6308,-4.6308,-4.6308,-4.6308,-4.6308,-4.6308,-4.6308,-4.6308,-4.6308,-4.6308,-4.6308,-4.6308,-4.6308,-4.6308,-4.6308,-4.6308,-4.6308,-4.6308,-4.6308,-4.6308,-4.6308,-4.6308,-4.6308,-4.6308,-4.6308,-4.6308,-4.6308,-4.6308,-4.6308,-4.6308,-4.6308,-4.6308,-4.6308,-4.6308,0.0,0.0,0.0,0.0,0.0,0.0,-4.6348,-4.6308,0.0,0.0,0.0,0.0,0.0,-4.7146,-4.6997,-4.7777,-4.8219,-4.8218,-4.9066,-4.949,-4.949,-5.0308,-5.0702,-5.0712,-5.0712,-5.0791,-5.0911,-5.0925,-5.1025,-5.1262,-5.2223,-5.3079,-5.388,-5.4688,-5.5378,-5.5872,-5.5769,-5.5705,-5.5703,0.0,0.0,-4.1191,-4.1191,-4.1191,-4.1191,-4.1191,-4.1191,-4.1191,-4.1191,-4.1191,-4.1191,-4.1191,-4.1191,-4.1191,-4.1191,-4.1191,-4.1191,-4.1191,-4.4004,-4.5293,-4.4414,-4.4277,-4.4062,-4.3808,-4.4648,-4.5098,-4.5098,-4.5898,-4.6308,-4.6308,-4.6308,-4.6308,-4.6308,-4.6308,-4.6308,-4.6308,-4.6308,-4.6308,-4.6308,-4.6308,-4.6308,-4.6308,-4.6308,-4.6308,-4.6308,-4.6308,-4.6308,-4.6308,-4.6308,-4.6308,-4.6308,-4.6308,-4.6308,-4.6308,-4.6308,-4.6308,-4.6308,-4.6308,-4.6308,-4.6308,-4.6308,-4.6308,-4.6308,-4.6308,-4.6308,-4.6308,-4.6308,-4.6308,-4.6308,-4.6308,-4.6308,-4.6308,-4.6308,-4.6308,-4.6308,-4.6308,-4.6308,0.0,0.0,-4.6699,-4.6562,-4.7226,-4.6699,-4.6308,0.0,0.0,0.0,0.0,-4.8584,-4.8876,-4.7993,-4.879,-4.9289,-4.939,-5.0167,-5.0488,-5.0385,-5.0596,-5.0748,-5.0859,-5.0859,-5.0925,-5.1067,-5.1109,-5.1151,-5.1323,-5.2979,-5.3715,-5.3944,-5.5451,-5.5983,-5.5896,-5.5857,-5.5779,-5.5703,-4.1191,-4.1191,-4.1191,-4.1191,-4.1191,-4.1191,-4.1191,-4.1191,-4.1191,-4.1191,-4.1191,-4.1191,-4.1191,-4.1191,-4.1191,-4.1191,-4.1191,-4.1523,-4.2285,-4.4824,-4.6016,-4.5391,-4.5371,-4.5371,-4.5371,-4.5976,-4.6308,-4.6308,-4.6308,-4.6308,-4.6308,-4.6308,-4.6308,-4.6308,-4.6308,-4.6308,-4.6308,-4.6308,-4.6308,-4.6308,-4.6308,-4.6308,-4.6308,-4.6308,-4.6308,-4.6308,-4.6308,-4.6308,-4.6308,-4.6308,-4.6308,-4.6308,-4.6308,-4.6308,-4.6308,-4.6308,-4.6308,-4.6308,-4.6308,-4.6308,-4.6308,-4.6308,-4.6308,-4.6308,-4.6308,-4.6308,-4.6308,-4.6308,-4.6308,-4.6308,-4.6308,-4.6308,-4.6308,-4.6308,-4.6308,-4.6308,-4.6308,-4.6308,0.0,-4.75,-4.7187,-4.7246,-4.8105,-4.7773,-4.748,-4.748,0.0,0.0,-4.8571,-4.9484,-4.9685,-4.9015,-4.9833,-5.032,-5.0398,-5.0733,-5.0882,-5.0879,-5.0822,-5.0848,-5.0991,-5.0991,-5.1058,-5.1156,-5.1185,-5.1453,-5.196,-5.2987,-5.3825,-5.4571,-5.5465,-5.5909,-5.6038,-5.6038,-5.5932,-5.5789,-4.1191,-4.1191,-4.1191,-4.1191,-4.1191,-4.1191,-4.1191,-4.1191,-4.1191,-4.1191,-4.1191,-4.1191,-4.1191,-4.166,-4.1973,-4.1973,-4.1973,-4.2578,-4.4004,-4.5488,-4.6308,-4.6308,-4.6308,-4.6308,-4.6308,-4.6308,-4.6308,-4.6308,-4.6308,-4.6308,-4.6308,-4.6308,-4.6308,-4.6308,-4.6308,-4.6308,-4.6308,-4.6308,-4.6308,-4.6308,-4.6308,-4.6308,-4.6308,-4.6308,-4.6308,-4.6308,-4.6308,-4.6308,-4.6308,-4.6308,-4.6308,-4.6308,-4.6308,-4.6308,-4.6308,-4.6308,-4.6308,-4.6308,-4.6308,-4.6308,-4.6308,-4.6308,-4.6308,-4.6308,-4.6308,-4.6308,-4.6308,-4.6308,-4.6308,-4.6308,-4.6308,-4.6308,-4.6308,-4.6308,-4.6308,-4.6308,-4.6308,0.0,-4.6816,-4.7695,-4.7793,-4.8144,-4.9004,-4.8984,-4.8906,-4.8906,-4.9023,-4.9372,0.0,-5.0141,-5.0157,-5.005,-5.0746,-5.1122,-5.1122,-5.1002,-5.099,-5.1108,-5.0985,-5.1062,-5.1317,-5.118,-5.1222,-5.1431,-5.1431,-5.1902,-5.2715,-5.2988,-5.3965,-5.5293,-5.5329,-5.5695,-5.6222,-5.6222,-5.6109,-5.5951,-4.1191,-4.1191,-4.1191,-4.1191,-4.1191,-4.1191,-4.1191,-4.1191,-4.1191,-4.1191,-4.1191,-4.1191,-4.1191,-4.3789,-4.5508,-4.5508,-4.5508,-4.5625,-4.5879,-4.6152,-4.6308,-4.6308,-4.6308,-4.6308,-4.6308,-4.6308,-4.6308,-4.6308,-4.6308,-4.6308,-4.6308,-4.6308,-4.6308,-4.6308,-4.6308,-4.6308,-4.6308,-4.6308,-4.6308,-4.6308,-4.6308,-4.6308,-4.6308,-4.6308,-4.6308,-4.6308,-4.6308,-4.6308,-4.6308,-4.6308,-4.6308,-4.6308,-4.6308,-4.6308,-4.6308,-4.6308,-4.6308,-4.6308,-4.6308,-4.6308,-4.6308,-4.6308,-4.6308,-4.6308,-4.6308,-4.6308,-4.6308,-4.6308,-4.6308,-4.6308,-4.6308,-4.6308,-4.6308,-4.6308,-4.6308,-4.6308,-4.6308,0.0,-4.7715,-4.8594,-4.8691,-4.9043,-4.9902,-4.9336,-4.8906,-4.8906,-4.957,-5.0058,-5.0155,-5.0819,-5.117,-5.1148,-5.1176,-5.1185,-5.1185,-5.1154,-5.1133,-5.1089,-5.1069,-5.1501,-5.2261,-5.152,-5.165,-5.2479,-5.2479,-5.2558,-5.2812,-5.4297,-5.5058,-5.5371,-5.6093,-5.6369,-5.6371,-5.6371,-5.6273,-5.6158,-4.1289,-4.1191,-4.1191,-4.1191,-4.1191,-4.1191,-4.1191,-4.1191,-4.1191,-4.1191,-4.1191,-4.1894,-4.375,-4.5351,-4.6308,-4.6308,-4.6308,-4.6308,-4.6308,-4.6308,-4.6308,-4.6308,-4.6308,-4.6308,-4.6308,-4.6308,-4.6308,-4.6308,-4.6308,-4.6308,-4.6308,-4.6308,-4.6308,-4.6308,-4.6308,-4.6308,-4.6308,-4.6308,-4.6308,-4.6308,-4.6308,-4.6308,-4.6308,-4.6308,-4.6308,-4.6308,-4.6308,-4.6308,-4.6308,-4.6308,-4.6308,-4.6308,-4.6308,-4.6308,-4.6308,-4.6308,-4.6308,-4.6308,-4.6308,-4.6308,-4.6308,-4.6308,-4.6308,-4.6308,-4.6308,-4.6308,-4.6308,-4.6308,-4.6308,-4.6308,-4.6308,-4.6308,-4.6308,-4.6308,-4.6308,0.0,0.0,-4.7051,-4.793,-4.8808,-4.9316,-4.9922,-5.0762,-5.0488,-5.0254,-5.0254,-5.0625,-5.0859,-5.0859,-5.1191,-5.1406,-5.1406,-5.1343,-5.1318,-5.1318,-5.1238,-5.146,-5.195,-5.1892,-5.2364,-5.3291,-5.288,-5.2965,-5.3398,-5.3398,-5.3672,-5.416,-5.4961,-5.5586,-5.6035,-5.6445,-5.6514,-5.6414,-5.6484,-5.6421,-5.6367,-4.1641,-4.1543,-4.1504,-4.125,-4.1191,-4.1191,-4.1191,-4.1191,-4.1484,-4.2285,-4.2383,-4.3398,-4.6016,-4.6308,-4.6308,-4.6308,-4.6308,-4.6308,-4.6308,-4.6308,-4.6308,-4.6308,-4.6308,-4.6308,-4.6308,-4.6308,-4.6308,-4.6308,-4.6308,-4.6308,-4.6308,-4.6308,-4.6308,-4.6308,-4.6308,-4.6308,-4.6308,-4.6308,-4.6308,-4.6308,-4.6308,-4.6308,-4.6308,-4.6308,-4.6308,-4.6308,-4.6308,-4.6308,-4.6308,-4.6308,-4.6308,-4.6308,-4.6308,-4.6308,-4.6308,-4.6308,-4.6308,-4.6308,-4.6308,-4.6308,-4.6348,-4.6543,-4.6445,-4.6348,-4.6562,-4.6445,-4.6367,-4.6562,-4.6601,-4.6601,-4.6601,-4.6777,-4.6777,-4.6367,0.0,0.0,0.0,-4.7344,-4.8223,-4.9101,-4.9961,-5.0723,-5.1348,-5.1406,-5.1406,-5.1406,-5.1406,-5.1406,-5.1406,-5.1406,-5.1484,-5.1699,-5.1504,-5.1406,-5.1406,-5.1296,-5.1745,-5.2695,-5.2605,-5.3153,-5.4297,-5.4082,-5.4101,-5.4297,-5.4297,-5.4687,-5.5312,-5.5527,-5.5996,-5.6601,-5.6601,-5.6654,-5.677,-5.6853,-5.6967,-5.7155,-4.248,-4.2558,-4.2441,-4.1387,-4.1191,-4.1191,-4.1191,-4.1191,-4.2344,-4.5508,-4.5918,-4.6016,-4.6269,-4.6308,-4.6308,-4.6308,-4.6308,-4.6308,-4.6308,-4.6308,-4.6308,-4.6308,-4.6308,-4.6308,-4.6308,-4.6308,-4.6308,-4.6308,-4.6308,-4.6308,-4.6308,-4.6308,-4.6308,-4.6308,-4.6308,-4.6308,-4.6308,-4.6308,-4.6308,-4.6308,-4.6308,-4.6308,-4.6308,-4.6308,-4.6308,-4.6308,-4.6308,-4.6308,-4.6308,-4.6308,-4.6308,-4.6308,-4.6308,-4.6308,-4.6308,-4.6308,-4.6308,-4.6308,-4.6308,-4.6308,-4.6484,-4.7305,-4.6894,-4.6504,-4.7324,-4.6875,-4.6523,-4.7344,-4.75,-4.75,-4.75,-4.8164,-4.8183,-4.6562,0.0,0.0,-4.75,-4.8242,-4.9121,-5.0,-5.082,-5.1328,-5.1387,-5.1406,-5.1406,-5.1406,-5.1406,-5.1406,-5.1406,-5.1406,-5.1777,-5.2578,-5.1816,-5.1406,-5.1406,-5.1386,-5.1836,-5.2695,-5.2695,-5.3574,-5.5176,-5.4375,-5.4433,-5.5195,-5.5195,-5.5234,-5.5351,-5.6172,-5.6543,-5.6601,-5.6601,-5.709,-5.7793,-5.7793,-5.8301,-5.9003,-4.2676,-4.25,-4.2305,-4.1367,-4.1191,-4.1191,-4.1191,-4.3008,-4.4824,-4.6133,-4.6308,-4.6308,-4.6308,-4.6308,-4.6308,-4.6308,-4.6308,-4.6308,-4.6308,-4.6308,-4.6308,-4.6308,-4.6308,-4.6308,-4.6308,-4.6308,-4.6308,-4.6308,-4.6308,-4.6308,-4.6308,-4.6308,-4.6308,-4.6308,-4.6308,-4.6308,-4.6308,-4.6308,-4.6308,-4.6308,-4.6308,-4.6308,-4.6308,-4.6308,-4.6308,-4.6308,-4.6308,-4.6308,-4.6308,-4.6308,-4.6308,-4.6308,-4.6308,-4.6308,-4.6308,-4.6308,-4.6797,-4.7324,-4.7148,-4.7109,-4.7187,-4.7519,-4.7344,-4.7324,-4.8203,-4.7734,-4.7344,-4.8223,-4.8418,-4.8418,-4.8418,-4.8672,-4.8672,-4.8027,0.0,-4.8418,-4.8418,-4.916,-4.9824,-5.0156,-5.0918,-5.1406,-5.1406,-5.1406,-5.1406,-5.1406,-5.1406,-5.1406,-5.1406,-5.1914,-5.2363,-5.2695,-5.2891,-5.2754,-5.2207,-5.2734,-5.3183,-5.3516,-5.4043,-5.4941,-5.6094,-5.5762,-5.5781,-5.6113,-5.6113,-5.6113,-5.6133,-5.6465,-5.6601,-5.6601,-5.6601,-5.6797,-5.7168,-5.7695,-5.8105,-5.8535,-4.3105,-4.2812,-4.2461,-4.1387,-4.1191,-4.1191,-4.1191,-4.4101,-4.6308,-4.6308,-4.6308,-4.6308,-4.6308,-4.6308,-4.6308,-4.6308,-4.6308,-4.6308,-4.6308,-4.6308,-4.6308,-4.6308,-4.6308,-4.6308,-4.6308,-4.6308,-4.6308,-4.6308,-4.6308,-4.6308,-4.6308,-4.6308,-4.6308,-4.6308,-4.6308,-4.6308,-4.6308,-4.6308,-4.6465,-4.668,-4.6406,-4.6621,-4.709,-4.6816,-4.6758,-4.6836,-4.6836,-4.7051,-4.7305,-4.6953,-4.6601,-4.6367,-4.6719,-4.707,-4.7363,-4.7363,-4.7793,-4.8242,-4.8066,-4.8203,-4.8418,-4.8418,-4.8203,-4.8242,-4.9101,-4.8633,-4.8262,-4.9121,-4.9316,-4.9316,-4.9316,-4.9512,-4.9512,-4.8984,-4.9121,-4.9316,-4.9316,-4.9824,-5.0293,-5.0547,-5.1055,-5.1406,-5.1406,-5.1406,-5.1504,-5.1797,-5.1816,-5.1933,-5.2207,-5.2773,-5.3223,-5.3516,-5.4101,-5.4121,-5.3516,-5.3848,-5.4141,-5.4414,-5.5019,-5.5762,-5.6601,-5.6601,-5.6601,-5.6601,-5.6601,-5.6601,-5.6601,-5.6601,-5.6601,-5.6601,-5.6601,-5.6777,-5.7109,-5.7988,-5.8476,-5.8887,-4.3867,-4.3691,-4.3164,-4.1484,-4.1191,-4.1191,-4.1191,-4.4101,-4.6308,-4.6308,-4.6308,-4.6308,-4.6308,-4.6308,-4.6308,-4.6308,-4.6308,-4.6308,-4.6308,-4.6308,-4.6308,-4.6308,-4.6308,-4.6308,-4.6308,-4.6308,-4.6308,-4.6308,-4.6308,-4.6308,-4.6308,-4.6308,-4.6308,-4.6308,-4.6308,-4.6308,-4.6328,-4.6328,-4.6816,-4.7539,-4.668,-4.7363,-4.8808,-4.7949,-4.7773,-4.8008,-4.8008,-4.873,-4.9512,-4.8398,-4.7266,-4.6504,-4.7656,-4.8789,-4.9687,-4.9687,-4.9316,-4.8906,-4.8906,-4.9551,-5.0215,-5.0195,-4.9551,-4.9141,-5.0019,-4.9531,-4.916,-5.0039,-5.0215,-5.0215,-5.0215,-5.0859,-5.0859,-4.9199,-4.9648,-5.0215,-5.0215,-5.0215,-5.0508,-5.1308,-5.1406,-5.1406,-5.1406,-5.1406,-5.1777,-5.2637,-5.2715,-5.3086,-5.3945,-5.4004,-5.4414,-5.5273,-5.5312,-5.5312,-5.5312,-5.4453,-5.4453,-5.5293,-5.5312,-5.5762,-5.6601,-5.6601,-5.6601,-5.6601,-5.6601,-5.6601,-5.6601,-5.6601,-5.6601,-5.6601,-5.6601,-5.7129,-5.8008,-5.8887,-5.9707,-6.0527,-4.3867,-4.3203,-4.2441,-4.1387,-4.1191,-4.1191,-4.1191,-4.4101,-4.6308,-4.6308,-4.6308,-4.6308,-4.6308,-4.6308,-4.6308,-4.6308,-4.6308,-4.6308,-4.6308,-4.6308,-4.6308,-4.6308,-4.6308,-4.6308,-4.6308,-4.6308,-4.6308,-4.6308,-4.6308,-4.6308,-4.6308,-4.6308,-4.6621,-4.7207,-4.7207,-4.7558,-4.8125,-4.8125,-4.8262,-4.8496,-4.8223,-4.8437,-4.8867,-4.8613,-4.8555,-4.8633,-4.8633,-4.8848,-4.9277,-5.0098,-4.9101,-4.7695,-4.8828,-4.918,-4.9141,-4.9141,-4.9453,-4.9805,-4.9805,-5.041,-5.0918,-5.0332,-5.0,-5.0039,-5.0859,-5.0391,-5.0058,-5.0879,-5.1035,-5.1035,-5.1035,-5.123,-5.123,-5.0742,-5.0879,-5.1035,-5.1035,-5.1035,-5.1133,-5.1367,-5.1406,-5.1406,-5.1406,-5.1953,-5.2422,-5.2676,-5.3262,-5.373,-5.3984,-5.457,-5.5039,-5.5293,-5.5898,-5.6211,-5.6211,-5.5957,-5.5644,-5.5312,-5.5918,-5.6348,-5.6601,-5.6601,-5.6601,-5.6601,-5.6601,-5.6601,-5.6601,-5.6601,-5.6601,-5.6601,-5.6601,-5.7129,-5.8008,-5.8887,-5.9707,-6.0527,-4.4316,-4.2988,-4.1777,-4.1289,-4.1191,-4.166,-4.3008,-4.4961,-4.6308,-4.6308,-4.6308,-4.6308,-4.6308,-4.6308,-4.6308,-4.6308,-4.6308,-4.6308,-4.6308,-4.6308,-4.6308,-4.6308,-4.6308,-4.6308,-4.6308,-4.6308,-4.6308,-4.6308,-4.6308,-4.6308,-4.6308,-4.6308,-4.6777,-4.7598,-4.7598,-4.8086,-4.8906,-4.8906,-4.9101,-4.9375,-4.9043,-4.9297,-4.9844,-4.9531,-4.9609,-4.9883,-4.9883,-4.9883,-5.0039,-5.1055,-5.0488,-4.9394,-4.9629,-4.9785,-4.9883,-4.9883,-5.0254,-5.0664,-5.0664,-5.1035,-5.1289,-5.0801,-5.0664,-5.0801,-5.1289,-5.1016,-5.0801,-5.1308,-5.1406,-5.1406,-5.1406,-5.1406,-5.1406,-5.1406,-5.1406,-5.1406,-5.1406,-5.1406,-5.1406,-5.1406,-5.1699,-5.1777,-5.1426,-5.25,-5.3359,-5.3691,-5.4531,-5.5039,-5.5039,-5.5527,-5.5801,-5.5801,-5.6328,-5.6601,-5.6601,-5.6601,-5.6348,-5.582,-5.6348,-5.6601,-5.6601,-5.6601,-5.6601,-5.6601,-5.6601,-5.6601,-5.6601,-5.6601,-5.6601,-5.6601,-5.6601,-5.7129,-5.8008,-5.8887,-5.9707,-6.0527,-4.5,-4.3066,-4.1387,-4.123,-4.1328,-4.2539,-4.5801,-4.6308,-4.6308,-4.6308,-4.6308,-4.6308,-4.6308,-4.6308,-4.6308,-4.6308,-4.6308,-4.6308,-4.6308,-4.6308,-4.6348,-4.6445,-4.6348,-4.6348,-4.6445,-4.6348,-4.6308,-4.6308,-4.6308,-4.6387,-4.6523,-4.6445,-4.6914,-4.7832,-4.7832,-4.8301,-4.9121,-4.9121,-4.957,-5.0234,-4.9433,-5.0039,-5.1328,-5.0586,-5.0762,-5.1406,-5.1406,-5.1406,-5.1406,-5.1406,-5.1406,-5.1211,-5.0176,-5.0566,-5.1406,-5.1406,-5.1465,-5.1523,-5.1523,-5.1562,-5.1601,-5.1543,-5.1523,-5.1504,-5.1426,-5.1406,-5.1426,-5.1504,-5.1523,-5.1543,-5.1621,-5.1621,-5.1601,-5.1523,-5.1523,-5.1484,-5.1406,-5.1406,-5.1426,-5.1504,-5.2226,-5.2422,-5.1699,-5.3144,-5.4473,-5.5351,-5.6152,-5.6601,-5.6601,-5.6601,-5.6601,-5.6601,-5.6601,-5.6601,-5.6601,-5.6601,-5.6601,-5.6601,-5.6601,-5.6601,-5.6601,-5.6601,-5.6601,-5.6601,-5.6601,-5.6601,-5.6601,-5.6601,-5.6601,-5.6601,-5.6601,-5.7129,-5.8008,-5.8887,-5.9707,-6.0527,-4.5,-4.4004,-4.2734,-4.1426,-4.2285,-4.3867,-4.5976,-4.6308,-4.6308,-4.6308,-4.6308,-4.6308,-4.6308,-4.6308,-4.6308,-4.6308,-4.6308,-4.6308,-4.6308,-4.6308,-4.6699,-4.7598,-4.6777,-4.6719,-4.7617,-4.6758,-4.6308,-4.6308,-4.6308,-4.6992,-4.832,-4.7637,-4.8144,-4.9648,-4.9648,-5.0098,-5.0859,-5.0859,-5.0976,-5.1113,-5.0937,-5.1074,-5.1387,-5.1211,-5.125,-5.1406,-5.1406,-5.1406,-5.1406,-5.1406,-5.1406,-5.1367,-5.1113,-5.1191,-5.1406,-5.1406,-5.1875,-5.2422,-5.2422,-5.293,-5.3262,-5.2598,-5.2422,-5.2246,-5.1562,-5.1406,-5.1582,-5.2285,-5.2422,-5.2637,-5.3301,-5.3437,-5.3203,-5.2539,-5.2422,-5.2187,-5.1504,-5.1406,-5.1641,-5.2344,-5.2578,-5.2891,-5.3398,-5.4394,-5.5371,-5.625,-5.6484,-5.6601,-5.6601,-5.6601,-5.6601,-5.6601,-5.6601,-5.6601,-5.6601,-5.6601,-5.6601,-5.6601,-5.6601,-5.6601,-5.6601,-5.6601,-5.6601,-5.6601,-5.6601,-5.6601,-5.6601,-5.6601,-5.6601,-5.6601,-5.6601,-5.7129,-5.8008,-5.8887,-5.9707,-6.0527,-4.5625,-4.4922,-4.418,-4.3711,-4.3906,-4.4629,-4.6074,-4.6308,-4.6308,-4.6308,-4.6308,-4.6308,-4.6308,-4.6308,-4.6308,-4.6308,-4.6308,-4.6308,-4.6308,-4.6308,-4.6758,-4.7773,-4.7246,-4.7383,-4.8418,-4.7558,-4.6836,-4.6308,-4.6719,-4.7598,-4.8887,-4.8437,-4.8926,-5.0195,-5.0195,-5.0644,-5.1406,-5.1406,-5.1406,-5.1406,-5.1406,-5.1406,-5.1406,-5.1406,-5.1406,-5.1406,-5.1406,-5.1406,-5.1406,-5.1406,-5.1406,-5.1406,-5.1406,-5.1406,-5.1406,-5.1406,-5.2012,-5.2695,-5.2695,-5.334,-5.3887,-5.3437,-5.332,-5.2988,-5.1699,-5.1406,-5.1641,-5.2519,-5.2695,-5.2969,-5.3848,-5.4004,-5.3711,-5.2832,-5.3047,-5.3027,-5.2148,-5.2383,-5.2812,-5.3262,-5.3691,-5.4277,-5.5156,-5.5273,-5.5664,-5.6523,-5.6601,-5.6601,-5.6601,-5.6601,-5.6601,-5.6601,-5.6601,-5.6601,-5.6601,-5.6601,-5.6601,-5.6601,-5.6601,-5.6601,-5.6601,-5.6601,-5.6601,-5.6601,-5.6601,-5.6601,-5.6601,-5.6601,-5.6601,-5.6601,-5.6601,-5.7383,-5.8535,-5.8574,-5.9355,-6.0527,-4.6308,-4.5723,-4.5449,-4.6172,-4.5527,-4.5215,-4.6152,-4.6308,-4.6308,-4.6308,-4.6308,-4.6308,-4.6308,-4.6308,-4.6308,-4.6308,-4.6308,-4.6367,-4.6504,-4.6523,-4.6973,-4.8008,-4.7891,-4.8223,-4.9101,-4.8379,-4.7441,-4.6308,-4.7402,-4.8437,-4.9316,-4.9199,-4.957,-5.041,-5.041,-5.0781,-5.1406,-5.1406,-5.1406,-5.1406,-5.1406,-5.1406,-5.1406,-5.1406,-5.1406,-5.1406,-5.1406,-5.1406,-5.1406,-5.1406,-5.1406,-5.1406,-5.1406,-5.1601,-5.1816,-5.168,-5.2344,-5.3144,-5.3144,-5.3789,-5.4414,-5.4258,-5.4219,-5.3808,-5.2207,-5.1836,-5.209,-5.2969,-5.3144,-5.3418,-5.4277,-5.4433,-5.416,-5.3281,-5.375,-5.3926,-5.3047,-5.3535,-5.4062,-5.4199,-5.498,-5.5801,-5.6523,-5.5957,-5.582,-5.6543,-5.6601,-5.6601,-5.6601,-5.6601,-5.6601,-5.6601,-5.6601,-5.6601,-5.6601,-5.6601,-5.6601,-5.6601,-5.6601,-5.6601,-5.6601,-5.6601,-5.6601,-5.6601,-5.6601,-5.6601,-5.6601,-5.6601,-5.6601,-5.6601,-5.6601,-5.7578,-5.8926,-5.8496,-5.9297,-6.0723,-4.6308,-4.6211,-4.6152,-4.6289,-4.6172,-4.6113,-4.6289,-4.6308,-4.6308,-4.6308,-4.6308,-4.6308,-4.6308,-4.6308,-4.6308,-4.6308,-4.6308,-4.6621,-4.7363,-4.7422,-4.8144,-4.9785,-4.9121,-4.9121,-5.0019,-4.8691,-4.7441,-4.6308,-4.8398,-4.998,-5.1055,-5.0351,-5.0469,-5.123,-5.123,-5.1308,-5.1406,-5.1406,-5.1406,-5.1406,-5.1406,-5.1406,-5.1406,-5.1406,-5.1406,-5.1406,-5.1406,-5.1406,-5.1406,-5.1406,-5.1406,-5.1406,-5.1406,-5.2422,-5.3496,-5.2754,-5.3672,-5.4941,-5.4941,-5.5586,-5.6074,-5.5312,-5.5117,-5.4863,-5.3867,-5.3652,-5.3906,-5.4765,-5.4941,-5.5215,-5.6094,-5.625,-5.5957,-5.5098,-5.5058,-5.4824,-5.3945,-5.3926,-5.4277,-5.5039,-5.5898,-5.6465,-5.6582,-5.6484,-5.6465,-5.6582,-5.6601,-5.6601,-5.6601,-5.6601,-5.6601,-5.6601,-5.6601,-5.6601,-5.6601,-5.6601,-5.6601,-5.6601,-5.6601,-5.6601,-5.6601,-5.6601,-5.6601,-5.6601,-5.6601,-5.6601,-5.6601,-5.6601,-5.6601,-5.6601,-5.6601,-5.7207,-5.8242,-5.957,-6.0683,-6.1543,-4.6308,-4.6308,-4.6308,-4.6308,-4.6308,-4.6308,-4.6308,-4.6308,-4.6308,-4.6308,-4.6308,-4.6308,-4.6308,-4.6308,-4.6308,-4.6308,-4.6308,-4.668,-4.7539,-4.7598,-4.8379,-5.0117,-4.9824,-5.0019,-5.0859,-5.0234,-4.9648,-4.9141,-4.9512,-5.0273,-5.1387,-5.1035,-5.1055,-5.1406,-5.1406,-5.1406,-5.1445,-5.2129,-5.2402,-5.2344,-5.168,-5.1797,-5.2324,-5.166,-5.1406,-5.1406,-5.1406,-5.1406,-5.1406,-5.1406,-5.1406,-5.1406,-5.1406,-5.2598,-5.3828,-5.2969,-5.3926,-5.5293,-5.5293,-5.5937,-5.6504,-5.6113,-5.6035,-5.5937,-5.5547,-5.5449,-5.543,-5.5312,-5.5293,-5.5566,-5.6445,-5.6601,-5.6308,-5.5449,-5.5703,-5.5723,-5.4844,-5.5156,-5.5605,-5.5976,-5.6367,-5.6601,-5.6601,-5.6601,-5.6601,-5.6601,-5.6601,-5.6601,-5.6601,-5.6601,-5.6601,-5.6601,-5.707,-5.7324,-5.7324,-5.7324,-5.7578,-5.8047,-5.7558,-5.7324,-5.7324,-5.7324,-5.7598,-5.8047,-5.8047,-5.7773,-5.7363,-5.7851,-5.7773,-5.7363,-5.7851,-5.8281,-5.8828,-6.0508,-6.1055,-6.1035]},{"header":{"parameterUnit":"m.s-1","parameterCategory":1,"la1":30.6,"la2":28.766,"lo1":-90.7593,"lo2":-88.6598,"dy":0.0162,"dx":0.0183,"nx":116,"ny":114,"refTime":"2023-03-25T00:00:00:Z","depth":0,"parameterNumber":3,"parameterNumberName":"V-component_of_WINDS"},"data":[0.0,0.0,0.0,0.0,0.0,0.0,0.0,0.0,0.0,0.0,0.0,0.0,0.0,0.0,0.0,0.0,0.0,0.0,0.0,0.0,0.0,0.0,0.0,0.0,0.0,0.0,0.0,0.0,0.0,0.0,0.0,0.0,0.0,0.0,0.0,0.0,0.0,0.0,0.0,0.0,0.0,0.0,0.0,0.0,0.0,0.0,0.0,0.0,0.0,0.0,0.0,0.0,0.0,0.0,0.0,0.0,0.0,0.0,0.0,0.0,0.0,0.0,0.0,0.0,0.0,0.0,0.0,0.0,0.0,0.0,0.0,0.0,0.0,0.0,0.0,0.0,0.0,0.0,0.0,0.0,0.0,0.0,0.0,0.0,0.0,0.0,0.0,0.0,0.0,0.0,0.0,0.0,0.0,0.0,0.0,0.0,0.0,0.0,0.0,0.0,0.0,0.0,0.0,0.0,0.0,0.0,0.0,0.0,0.0,0.0,0.0,0.0,0.0,0.0,0.0,0.0,0.0,0.0,0.0,0.0,0.0,0.0,0.0,0.0,0.0,0.0,0.0,0.0,0.0,0.0,0.0,0.0,0.0,0.0,0.0,0.0,0.0,0.0,0.0,0.0,0.0,0.0,0.0,0.0,0.0,0.0,0.0,0.0,0.0,0.0,0.0,0.0,0.0,0.0,0.0,0.0,0.0,0.0,0.0,0.0,0.0,0.0,0.0,0.0,0.0,0.0,0.0,0.0,0.0,0.0,0.0,0.0,0.0,0.0,0.0,0.0,0.0,0.0,0.0,0.0,0.0,0.0,0.0,0.0,0.0,0.0,0.0,0.0,0.0,0.0,0.0,0.0,0.0,0.0,0.0,0.0,0.0,0.0,0.0,0.0,0.0,0.0,0.0,0.0,0.0,0.0,0.0,0.0,0.0,0.0,0.0,0.0,0.0,0.0,0.0,0.0,0.0,0.0,0.0,0.0,0.0,0.0,0.0,0.0,0.0,0.0,0.0,0.0,0.0,0.0,0.0,0.0,0.0,0.0,0.0,0.0,0.0,0.0,0.0,0.0,0.0,0.0,0.0,0.0,0.0,0.0,0.0,0.0,0.0,0.0,0.0,0.0,0.0,0.0,0.0,0.0,0.0,0.0,0.0,0.0,0.0,0.0,0.0,0.0,0.0,0.0,0.0,0.0,0.0,0.0,0.0,0.0,0.0,0.0,0.0,0.0,0.0,0.0,0.0,0.0,0.0,0.0,0.0,0.0,0.0,0.0,0.0,0.0,0.0,0.0,0.0,0.0,0.0,0.0,0.0,0.0,0.0,0.0,0.0,0.0,0.0,0.0,0.0,0.0,0.0,0.0,0.0,0.0,0.0,0.0,0.0,0.0,0.0,0.0,0.0,0.0,0.0,0.0,0.0,0.0,0.0,0.0,0.0,0.0,0.0,0.0,0.0,0.0,0.0,0.0,0.0,0.0,0.0,0.0,0.0,0.0,0.0,0.0,0.0,0.0,0.0,0.0,0.0,0.0,0.0,0.0,0.0,0.0,0.0,0.0,0.0,0.0,0.0,0.0,0.0,0.0,0.0,0.0,0.0,0.0,0.0,0.0,0.0,0.0,0.0,0.0,0.0,0.0,0.0,0.0,0.0,0.0,0.0,0.0,0.0,0.0,0.0,0.0,0.0,0.0,0.0,0.0,0.0,0.0,0.0,0.0,0.0,0.0,0.0,0.0,0.0,0.0,0.0,0.0,0.0,0.0,0.0,0.0,0.0,0.0,0.0,0.0,0.0,0.0,0.0,0.0,0.0,0.0,0.0,0.0,0.0,0.0,0.0,0.0,0.0,0.0,0.0,0.0,0.0,0.0,0.0,0.0,0.0,0.0,0.0,0.0,0.0,0.0,0.0,0.0,0.0,0.0,0.0,0.0,0.0,0.0,0.0,0.0,0.0,0.0,0.0,0.0,0.0,0.0,0.0,0.0,0.0,0.0,0.0,0.0,0.0,0.0,0.0,0.0,0.0,0.0,0.0,0.0,0.0,0.0,0.0,0.0,0.0,0.0,0.0,0.0,0.0,0.0,0.0,0.0,0.0,0.0,0.0,0.0,0.0,0.0,0.0,0.0,0.0,0.0,0.0,0.0,0.0,0.0,0.0,0.0,0.0,0.0,0.0,0.0,0.0,0.0,0.0,0.0,0.0,0.0,0.0,0.0,0.0,0.0,0.0,0.0,0.0,0.0,0.0,0.0,0.0,0.0,0.0,0.0,0.0,0.0,0.0,0.0,0.0,0.0,0.0,0.0,0.0,0.0,0.0,0.0,0.0,0.0,0.0,0.0,0.0,0.0,0.0,0.0,0.0,0.0,0.0,0.0,0.0,0.0,0.0,0.0,0.0,0.0,0.0,0.0,0.0,0.0,0.0,0.0,0.0,0.0,0.0,0.0,0.0,0.0,0.0,0.0,0.0,0.0,0.0,0.0,0.0,0.0,0.0,0.0,0.0,0.0,0.0,0.0,0.0,0.0,0.0,0.0,0.0,0.0,0.0,0.0,0.0,0.0,0.0,0.0,0.0,0.0,0.0,0.0,0.0,0.0,0.0,0.0,0.0,0.0,0.0,0.0,0.0,0.0,0.0,0.0,0.0,0.0,0.0,0.0,0.0,0.0,0.0,0.0,0.0,0.0,0.0,0.0,0.0,0.0,0.0,0.0,0.0,0.0,0.0,0.0,0.0,0.0,0.0,0.0,0.0,0.0,0.0,0.0,0.0,0.0,0.0,0.0,0.0,0.0,0.0,0.0,0.0,0.0,0.0,0.0,0.0,0.0,0.0,0.0,0.0,0.0,0.0,0.0,0.0,0.0,0.0,0.0,0.0,0.0,0.0,0.0,0.0,0.0,0.0,0.0,0.0,0.0,0.0,0.0,0.0,0.0,0.0,0.0,0.0,0.0,0.0,0.0,0.0,0.0,0.0,0.0,0.0,0.0,0.0,0.0,0.0,0.0,0.0,0.0,0.0,0.0,0.0,0.0,0.0,0.0,0.0,0.0,0.0,0.0,0.0,0.0,0.0,0.0,0.0,0.0,0.0,0.0,0.0,0.0,0.0,0.0,0.0,0.0,0.0,0.0,0.0,0.0,0.0,0.0,0.0,0.0,0.0,0.0,0.0,0.0,0.0,0.0,0.0,0.0,0.0,0.0,0.0,0.0,0.0,0.0,0.0,0.0,0.0,0.0,0.0,0.0,0.0,0.0,0.0,0.0,0.0,0.0,0.0,0.0,0.0,0.0,0.0,0.0,0.0,0.0,0.0,0.0,0.0,0.0,0.0,0.0,0.0,0.0,0.0,0.0,0.0,0.0,0.0,0.0,0.0,0.0,0.0,0.0,0.0,0.0,0.0,0.0,0.0,0.0,0.0,0.0,0.0,0.0,0.0,0.0,0.0,0.0,0.0,0.0,0.0,0.0,0.0,0.0,0.0,0.0,0.0,0.0,0.0,0.0,0.0,0.0,0.0,0.0,0.0,0.0,0.0,0.0,0.0,0.0,0.0,0.0,0.0,0.0,0.0,0.0,0.0,0.0,0.0,0.0,0.0,0.0,0.0,0.0,0.0,0.0,0.0,0.0,0.0,0.0,0.0,0.0,0.0,0.0,0.0,0.0,0.0,0.0,0.0,0.0,0.0,0.0,0.0,0.0,0.0,0.0,0.0,0.0,0.0,0.0,0.0,0.0,0.0,0.0,0.0,0.0,0.0,0.0,0.0,0.0,0.0,0.0,0.0,0.0,0.0,0.0,0.0,0.0,0.0,0.0,0.0,0.0,0.0,0.0,0.0,0.0,0.0,0.0,0.0,0.0,0.0,0.0,0.0,0.0,0.0,0.0,0.0,0.0,0.0,0.0,0.0,0.0,0.0,0.0,0.0,0.0,0.0,0.0,0.0,0.0,0.0,0.0,0.0,0.0,0.0,0.0,0.0,0.0,0.0,0.0,0.0,0.0,0.0,0.0,0.0,0.0,0.0,0.0,0.0,0.0,0.0,0.0,0.0,0.0,0.0,0.0,0.0,0.0,0.0,0.0,0.0,0.0,0.0,0.0,0.0,0.0,0.0,0.0,0.0,0.0,0.0,0.0,0.0,0.0,0.0,0.0,0.0,0.0,0.0,0.0,0.0,0.0,0.0,0.0,0.0,0.0,0.0,0.0,0.0,0.0,0.0,0.0,0.0,0.0,0.0,0.0,0.0,0.0,0.0,0.0,0.0,0.0,0.0,0.0,0.0,0.0,0.0,0.0,0.0,0.0,0.0,0.0,0.0,0.0,0.0,0.0,0.0,0.0,0.0,0.0,0.0,0.0,0.0,0.0,0.0,0.0,0.0,0.0,0.0,0.0,0.0,0.0,0.0,0.0,0.0,0.0,0.0,0.0,0.0,0.0,0.0,0.0,0.0,0.0,0.0,0.0,0.0,0.0,0.0,0.0,0.0,0.0,0.0,0.0,0.0,0.0,0.0,0.0,0.0,0.0,0.0,0.0,0.0,0.0,0.0,0.0,0.0,0.0,0.0,0.0,0.0,0.0,0.0,0.0,0.0,0.0,0.0,0.0,0.0,0.0,0.0,0.0,0.0,0.0,0.0,0.0,0.0,0.0,0.0,0.0,0.0,0.0,0.0,0.0,0.0,0.0,0.0,0.0,0.0,0.0,0.0,0.0,0.0,0.0,0.0,0.0,0.0,0.0,0.0,0.0,0.0,0.0,0.0,0.0,0.0,0.0,0.0,0.0,0.0,0.0,0.0,0.0,0.0,0.0,0.0,0.0,0.0,0.0,0.0,0.0,0.0,0.0,0.0,0.0,0.0,0.0,0.0,0.0,0.0,0.0,0.0,0.0,0.0,0.0,0.0,0.0,0.0,0.0,0.0,0.0,0.0,0.0,0.0,0.0,0.0,0.0,0.0,0.0,0.0,0.0,0.0,0.0,0.0,0.0,0.0,0.0,0.0,0.0,0.0,0.0,0.0,0.0,0.0,0.0,0.0,0.0,0.0,0.0,0.0,0.0,0.0,0.0,0.0,0.0,0.0,0.0,0.0,0.0,0.0,0.0,0.0,0.0,0.0,0.0,0.0,0.0,0.0,0.0,0.0,0.0,0.0,0.0,0.0,0.0,0.0,0.0,0.0,0.0,0.0,0.0,0.0,0.0,0.0,0.0,0.0,0.0,0.0,0.0,0.0,0.0,0.0,0.0,0.0,0.0,0.0,0.0,0.0,0.0,0.0,0.0,0.0,0.0,0.0,0.0,0.0,0.0,0.0,0.0,0.0,0.0,0.0,0.0,0.0,0.0,0.0,0.0,0.0,0.0,0.0,0.0,0.0,0.0,0.0,0.0,0.0,0.0,0.0,0.0,0.0,0.0,0.0,0.0,0.0,0.0,0.0,0.0,0.0,0.0,0.0,0.0,0.0,0.0,0.0,0.0,0.0,0.0,0.0,0.0,0.0,0.0,0.0,0.0,0.0,0.0,0.0,0.0,0.0,0.0,0.0,0.0,0.0,0.0,0.0,0.0,0.0,0.0,0.0,0.0,0.0,0.0,0.0,0.0,0.0,0.0,0.0,0.0,0.0,0.0,0.0,0.0,0.0,0.0,0.0,0.0,0.0,0.0,0.0,0.0,0.0,0.0,0.0,0.0,0.0,0.0,0.0,0.0,0.0,0.0,0.0,0.0,0.0,0.0,0.0,0.0,0.0,0.0,0.0,0.0,0.0,0.0,0.0,0.0,0.0,0.0,0.0,0.0,0.0,0.0,0.0,0.0,0.0,0.0,0.0,0.0,0.0,0.0,0.0,0.0,0.0,0.0,0.0,0.0,0.0,0.0,0.0,0.0,0.0,0.0,0.0,0.0,0.0,0.0,0.0,0.0,0.0,0.0,0.0,0.0,0.0,0.0,0.0,0.0,0.0,0.0,0.0,0.0,0.0,0.0,0.0,0.0,0.0,0.0,0.0,0.0,0.0,0.0,0.0,0.0,0.0,0.0,0.0,0.0,0.0,0.0,0.0,0.0,0.0,0.0,0.0,0.0,0.0,0.0,0.0,0.0,0.0,0.0,0.0,0.0,0.0,0.0,0.0,0.0,-0.6634,0.0,0.0,0.0,0.0,0.0,0.0,0.0,0.0,0.0,0.0,0.0,0.0,0.0,0.0,0.0,0.0,0.0,0.0,0.0,0.0,0.0,0.0,0.0,0.0,0.0,0.0,0.0,0.0,0.0,0.0,0.0,0.0,0.0,0.0,0.0,0.0,0.0,0.0,0.0,-0.4392,-0.4358,-0.4358,-0.4667,-0.4891,-0.5081,0.0,0.0,0.0,0.0,0.0,0.0,0.0,0.0,0.0,0.0,0.0,0.0,0.0,0.0,0.0,0.0,0.0,0.0,0.0,0.0,0.0,0.0,0.0,0.0,0.0,0.0,0.0,0.0,0.0,0.0,0.0,0.0,0.0,0.0,0.0,0.0,0.0,0.0,0.0,0.0,0.0,0.0,0.0,0.0,0.0,0.0,0.0,0.0,0.0,0.0,0.0,0.0,0.0,0.0,0.0,0.0,0.0,0.0,0.0,0.0,0.0,0.0,0.0,0.0,0.0,0.0,0.0,0.0,0.0,0.0,0.0,-0.6741,0.0,0.0,0.0,0.0,0.0,0.0,0.0,0.0,0.0,0.0,0.0,0.0,0.0,0.0,0.0,0.0,0.0,0.0,0.0,0.0,0.0,0.0,0.0,0.0,0.0,0.0,0.0,0.0,0.0,0.0,0.0,0.0,0.0,0.0,0.0,-0.4491,-0.4477,-0.4453,-0.4281,-0.4294,-0.4494,-0.4646,-0.4731,-0.4748,-0.515,0.0,0.0,0.0,0.0,0.0,0.0,0.0,0.0,0.0,0.0,0.0,0.0,0.0,0.0,0.0,0.0,0.0,0.0,0.0,0.0,0.0,0.0,0.0,0.0,0.0,0.0,0.0,0.0,0.0,0.0,0.0,0.0,0.0,0.0,0.0,0.0,0.0,0.0,0.0,0.0,0.0,0.0,0.0,0.0,0.0,0.0,0.0,0.0,0.0,0.0,0.0,0.0,0.0,0.0,0.0,0.0,0.0,0.0,0.0,0.0,0.0,0.0,0.0,-0.6347,-0.6354,-0.5703,-0.6379,-0.6709,-0.6743,-0.6722,-0.6588,-0.6419,0.0,0.0,0.0,0.0,0.0,0.0,0.0,0.0,0.0,0.0,0.0,0.0,0.0,0.0,0.0,0.0,0.0,0.0,0.0,0.0,0.0,0.0,0.0,-0.4491,-0.4491,-0.4491,-0.4491,0.0,0.0,0.0,0.0,0.0,0.0,-0.4491,-0.4491,-0.4402,-0.425,-0.4204,-0.4294,-0.4498,-0.4755,-0.4891,-0.4891,-0.4952,-0.5284,-0.5793,0.0,0.0,0.0,0.0,0.0,0.0,0.0,0.0,0.0,0.0,0.0,0.0,0.0,0.0,0.0,0.0,0.0,0.0,0.0,0.0,0.0,0.0,0.0,0.0,0.0,0.0,0.0,0.0,0.0,0.0,0.0,0.0,0.0,0.0,0.0,0.0,0.0,0.0,0.0,0.0,0.0,-0.4136,-0.5487,0.0,0.0,0.0,0.0,0.0,0.0,0.0,0.0,0.0,0.0,0.0,0.0,0.0,-0.6763,-0.6856,-0.6766,-0.6692,-0.6708,-0.6689,-0.6696,-0.6705,-0.6716,-0.6762,-0.687,-0.6733,0.0,-0.681,-0.6869,0.0,0.0,0.0,0.0,0.0,0.0,0.0,0.0,0.0,0.0,0.0,0.0,0.0,0.0,0.0,0.0,0.0,0.0,0.0,0.0,0.0,-0.4566,-0.4583,-0.4498,-0.5266,-0.5395,0.0,0.0,0.0,0.0,0.0,-0.4491,-0.4491,-0.4385,-0.4284,-0.4197,-0.4473,-0.4628,-0.4724,-0.5026,-0.5169,-0.5169,-0.5169,-0.5344,-0.5583,-0.5521,0.0,0.0,0.0,0.0,0.0,0.0,0.0,0.0,0.0,0.0,0.0,0.0,0.0,0.0,0.0,0.0,0.0,0.0,0.0,0.0,0.0,0.0,0.0,0.0,0.0,0.0,0.0,0.0,0.0,0.0,0.0,0.0,0.0,0.0,0.0,0.0,0.0,0.0,0.0,-0.3488,-0.4434,-0.5592,-0.5959,-0.6196,0.0,0.0,0.0,0.0,0.0,0.0,0.0,0.0,0.0,-0.6702,-0.6783,-0.6861,-0.6886,-0.6861,-0.6603,-0.6168,-0.6674,-0.6677,-0.6206,-0.6694,-0.7034,-0.716,-0.7118,-0.7153,-0.7273,-0.7004,-0.6943,-0.7025,0.0,0.0,0.0,0.0,-0.7727,-0.7762,0.0,0.0,0.0,0.0,0.0,0.0,0.0,0.0,0.0,0.0,0.0,0.0,-0.4984,-0.4941,-0.4904,-0.4617,-0.5775,-0.5966,-0.4629,0.0,0.0,0.0,0.0,-0.4491,-0.4491,-0.4358,-0.4314,-0.4392,-0.4763,-0.4982,-0.5094,-0.5355,-0.5508,-0.5511,-0.5549,-0.5566,-0.5559,-0.5443,-0.5528,-0.5708,0.0,0.0,0.0,0.0,0.0,0.0,0.0,0.0,0.0,0.0,0.0,0.0,0.0,0.0,0.0,0.0,0.0,0.0,0.0,0.0,0.0,0.0,0.0,0.0,0.0,0.0,0.0,0.0,0.0,0.0,0.0,0.0,0.0,0.0,0.0,0.0,0.0,-0.4323,-0.4815,-0.5635,-0.5915,-0.6132,0.0,0.0,0.0,0.0,0.0,0.0,-0.68,-0.6814,-0.6814,-0.6814,-0.6879,-0.6957,-0.7041,-0.7041,-0.6716,-0.6127,-0.685,-0.6863,-0.6198,-0.6913,-0.7316,-0.7507,-0.7476,-0.749,-0.7552,-0.7216,-0.7058,-0.7119,-0.7372,-0.7502,-0.7509,-0.7627,-0.7733,-0.7778,0.0,0.0,0.0,0.0,0.0,0.0,0.0,0.0,0.0,0.0,0.0,-0.7155,-0.5881,-0.5868,-0.5649,-0.4958,-0.5574,-0.5654,-0.4745,-0.5218,-0.5238,-0.4543,-0.4491,-0.4491,-0.4491,-0.4484,-0.4621,-0.4854,-0.5012,-0.5238,-0.5559,-0.5708,-0.5779,-0.5786,-0.5932,-0.5959,-0.5932,-0.5576,-0.561,-0.5959,-0.5857,0.0,0.0,0.0,0.0,0.0,0.0,0.0,0.0,0.0,0.0,0.0,0.0,0.0,0.0,0.0,0.0,0.0,0.0,0.0,0.0,0.0,0.0,0.0,0.0,0.0,0.0,0.0,0.0,0.0,0.0,0.0,0.0,0.0,0.0,0.0,0.0,0.0,0.0,-0.5583,-0.5854,0.0,0.0,0.0,0.0,-0.6862,-0.6862,-0.6916,-0.7065,-0.7071,-0.7071,-0.7071,-0.7082,-0.72,-0.7395,-0.7395,-0.7424,-0.7483,-0.753,-0.7624,-0.7706,-0.7598,-0.7671,-0.7776,-0.7648,-0.7589,-0.7612,-0.7584,-0.7583,-0.7598,-0.7731,-0.7793,-0.7763,-0.7804,-0.7808,-0.7799,0.0,0.0,0.0,0.0,0.0,0.0,0.0,0.0,0.0,-0.7155,-0.7592,-0.7307,-0.5437,-0.6524,-0.6755,-0.5154,-0.6634,-0.6822,-0.4834,-0.5566,-0.5657,-0.467,-0.4542,-0.4491,-0.4491,-0.4586,-0.4755,-0.5022,-0.5304,-0.5579,-0.5878,-0.6122,-0.6234,-0.624,-0.6393,-0.6461,-0.642,-0.5779,-0.5579,-0.5586,-0.5433,-0.5542,0.0,0.0,0.0,0.0,0.0,0.0,0.0,0.0,0.0,0.0,0.0,0.0,0.0,0.0,0.0,0.0,0.0,0.0,0.0,0.0,0.0,0.0,0.0,0.0,0.0,0.0,0.0,0.0,0.0,0.0,0.0,0.0,0.0,0.0,0.0,0.0,0.0,-0.6016,-0.6153,0.0,-0.6658,-0.6868,-0.6964,-0.7018,-0.6937,-0.6947,-0.7088,-0.7095,-0.7142,-0.7285,-0.7383,-0.7506,-0.7651,-0.7655,-0.7733,-0.7833,-0.7833,-0.7899,-0.7929,-0.7858,-0.7906,-0.7932,-0.788,-0.7841,-0.7875,-0.7837,-0.7735,-0.7617,-0.7655,-0.7688,-0.766,-0.7654,-0.773,-0.7798,0.0,0.0,0.0,0.0,0.0,0.0,0.0,0.0,0.0,-0.7477,-0.7856,-0.7576,-0.5884,-0.6942,-0.7096,-0.5425,-0.6842,-0.6974,-0.4888,-0.5606,-0.5665,-0.4676,-0.4545,-0.4515,-0.4566,-0.4691,-0.4938,-0.5255,-0.5538,-0.5813,-0.6112,-0.6308,-0.6467,-0.6518,-0.663,-0.6702,-0.6668,-0.6173,-0.582,-0.5576,-0.542,-0.5566,-0.5867,0.0,0.0,0.0,0.0,0.0,0.0,0.0,0.0,0.0,0.0,0.0,0.0,0.0,0.0,0.0,0.0,0.0,0.0,0.0,0.0,0.0,0.0,0.0,0.0,0.0,0.0,0.0,0.0,0.0,0.0,0.0,0.0,0.0,0.0,0.0,-0.602,-0.6434,-0.6485,-0.662,-0.6923,-0.7041,-0.7119,-0.7214,-0.7129,-0.7163,-0.7311,-0.7368,-0.7446,-0.7594,-0.7746,-0.7848,-0.7889,-0.7889,-0.7891,-0.7988,-0.7988,-0.7988,-0.7988,-0.7988,-0.7988,-0.7988,-0.7988,-0.7988,-0.7988,-0.7988,-0.7885,-0.772,-0.7742,-0.7741,-0.7758,-0.7737,-0.7773,-0.7853,0.0,0.0,0.0,0.0,0.0,0.0,0.0,0.0,-0.8752,-0.8725,-0.8458,-0.7985,-0.7334,-0.711,-0.6608,-0.5696,-0.6097,-0.5981,-0.4992,-0.5267,-0.5187,-0.4515,-0.4498,-0.4576,-0.4694,-0.4853,-0.5152,-0.5596,-0.5739,-0.5962,-0.63,-0.631,-0.6385,-0.6525,-0.6644,-0.6715,-0.6715,-0.6719,-0.6468,-0.6013,-0.5878,-0.5898,-0.5996,0.0,0.0,0.0,0.0,0.0,0.0,0.0,0.0,0.0,0.0,0.0,0.0,0.0,0.0,0.0,0.0,0.0,0.0,0.0,0.0,0.0,0.0,0.0,0.0,0.0,0.0,0.0,0.0,0.0,0.0,0.0,0.0,0.0,-0.5959,-0.6169,-0.6474,-0.6839,-0.6896,-0.6953,-0.7095,-0.7112,-0.7224,-0.7419,-0.7436,-0.7516,-0.7801,-0.7911,-0.7992,-0.7995,-0.8194,-0.8201,-0.8002,-0.7995,-0.7995,-0.7988,-0.7988,-0.7988,-0.7988,-0.7988,-0.7988,-0.7988,-0.7988,-0.7988,-0.7988,-0.7988,-0.7988,-0.7988,-0.7988,-0.7988,-0.7988,-0.7988,-0.7988,-0.7988,0.0,0.0,0.0,0.0,0.0,0.0,0.0,0.0,-0.7803,-0.7262,-0.843,-0.8587,-0.6702,-0.7946,-0.8194,-0.6326,-0.632,-0.6163,-0.5606,-0.4936,-0.4536,-0.4512,-0.4674,-0.4813,-0.4857,-0.5108,-0.5406,-0.5742,-0.5891,-0.6067,-0.6306,-0.6518,-0.66,-0.6651,-0.6905,-0.6974,-0.6984,-0.7139,-0.7051,-0.6741,-0.6161,-0.6057,-0.6173,0.0,0.0,0.0,0.0,0.0,0.0,0.0,0.0,0.0,0.0,0.0,0.0,0.0,0.0,0.0,0.0,0.0,0.0,0.0,0.0,0.0,0.0,0.0,0.0,0.0,0.0,0.0,0.0,0.0,0.0,0.0,0.0,-0.5976,-0.6169,-0.6361,-0.658,-0.6987,-0.718,-0.7309,-0.7458,-0.7567,-0.7645,-0.7685,-0.7794,-0.7843,-0.7924,-0.7968,-0.8092,-0.8204,-0.8248,-0.8265,-0.8204,-0.8225,-0.815,-0.7988,-0.7988,-0.7988,-0.7988,-0.7988,-0.7988,-0.7988,-0.7988,-0.7988,-0.7988,-0.7988,-0.7988,-0.7988,-0.7988,-0.7988,-0.7988,-0.7988,-0.7988,-0.7988,0.0,0.0,0.0,0.0,0.0,0.0,0.0,0.0,-0.7074,-0.6669,-0.7564,-0.7809,-0.6687,-0.7419,-0.7535,-0.6403,-0.6381,-0.6267,-0.5986,-0.5377,-0.4895,-0.4586,-0.4847,-0.5036,-0.5104,-0.5368,-0.5603,-0.5895,-0.5949,-0.6139,-0.6392,-0.6525,-0.6675,-0.6807,-0.6994,-0.7132,-0.7248,-0.74,-0.7414,-0.7295,-0.6861,-0.6742,-0.6776,-0.6342,-0.5356,-0.413,-0.3361,-0.2871,-0.2464,-0.1973,0.0,0.0,0.0,0.0,0.0,0.0,0.0,0.0,0.0,0.0,0.0,0.0,0.0,0.0,0.0,0.0,0.0,0.0,0.0,0.0,0.0,0.0,0.0,0.0,-0.6217,-0.6335,-0.6719,-0.6692,-0.6851,-0.7314,-0.7502,-0.7614,-0.777,-0.7858,-0.7906,-0.7906,-0.7938,-0.7988,-0.7988,-0.8157,-0.8238,-0.832,-0.837,-0.8335,-0.8313,-0.8221,-0.813,-0.7988,-0.7988,-0.7988,-0.7988,-0.7988,-0.7988,0.0,-0.7988,-0.7988,-0.7988,-0.7988,-0.7988,0.0,0.0,0.0,0.0,0.0,-0.7988,-0.7988,0.0,0.0,0.0,0.0,0.0,0.0,0.0,0.0,-0.647,-0.6445,-0.6364,-0.6459,-0.6865,-0.6181,-0.5822,-0.6252,-0.632,-0.634,-0.6318,-0.6152,-0.5717,-0.4921,-0.5054,-0.5247,-0.5419,-0.5552,-0.5769,-0.5993,-0.601,-0.6196,-0.6511,-0.6528,-0.6661,-0.6916,-0.7058,-0.7251,-0.7453,-0.756,-0.7624,-0.7624,-0.7641,-0.7617,-0.7512,-0.6959,-0.6328,-0.5575,-0.4128,-0.3512,-0.3272,-0.2186,0.0,0.0,0.0,0.0,0.0,0.0,0.0,0.0,0.0,0.0,0.0,0.0,0.0,0.0,0.0,0.0,0.0,0.0,0.0,0.0,0.0,0.0,0.0,0.0,-0.659,-0.6753,-0.7385,-0.7193,-0.7183,-0.7773,-0.7838,-0.7889,-0.7975,-0.7988,-0.7988,-0.7988,-0.7988,-0.7945,-0.7762,0.0,0.0,0.0,0.0,-0.8282,-0.8347,-0.8191,-0.8062,-0.8056,-0.8046,-0.8039,-0.8039,-0.8079,-0.8079,-0.8039,-0.8029,-0.8019,-0.8015,-0.7995,-0.7988,-0.7988,-0.7988,-0.7988,-0.7988,-0.7988,-0.7988,-0.7988,0.0,0.0,0.0,0.0,0.0,0.0,0.0,0.0,-0.568,-0.5558,-0.6355,-0.664,-0.5892,-0.596,-0.6267,-0.6735,-0.6334,-0.6374,-0.7032,-0.588,-0.5441,-0.603,-0.5698,-0.5515,-0.5545,-0.5806,-0.5936,-0.5993,-0.6156,-0.6344,-0.6515,-0.66,-0.6814,-0.7061,-0.7258,-0.7411,-0.7563,-0.7709,-0.777,-0.778,-0.7853,-0.774,-0.739,-0.7146,-0.6461,-0.5559,-0.4998,-0.369,-0.2261,-0.1902,-0.19,-0.2047,-0.2362,-0.3564,0.0,0.0,0.0,0.0,0.0,0.0,0.0,0.0,0.0,0.0,0.0,0.0,0.0,0.0,0.0,0.0,0.0,0.0,0.0,-0.69,-0.6967,-0.7177,-0.7658,-0.7678,-0.7729,-0.7917,-0.7944,-0.7958,-0.7985,-0.7988,-0.7988,-0.7988,-0.7988,-0.7535,-0.6468,-0.6465,0.0,-0.6847,-0.6864,-0.7419,-0.8587,-0.8602,-0.8507,-0.8414,0.0,0.0,-0.8394,-0.8422,-0.8378,-0.8391,-0.8265,-0.8262,-0.8214,-0.8092,-0.7988,-0.7988,-0.7988,-0.7988,-0.7988,-0.7988,-0.7988,-0.7988,0.0,0.0,0.0,0.0,0.0,0.0,0.0,0.0,-0.4976,-0.4919,-0.5493,-0.5786,-0.5536,-0.5536,-0.5769,-0.6301,-0.6196,-0.6675,-0.8058,-0.6678,-0.6018,-0.6514,-0.6053,-0.5847,-0.5962,-0.6139,-0.6288,-0.6366,-0.6444,-0.6556,-0.6702,-0.678,-0.6973,-0.7261,-0.7417,-0.7567,-0.7716,-0.7862,-0.7877,-0.7884,-0.7958,-0.7857,-0.7689,-0.7533,-0.7152,-0.6584,-0.5688,-0.4276,-0.2792,-0.2067,-0.137,-0.0895,-0.139,-0.2348,-0.3491,0.0,0.0,0.0,0.0,0.0,0.0,0.0,0.0,0.0,0.0,0.0,0.0,0.0,0.0,-0.6034,0.0,0.0,-0.7021,-0.7319,-0.7431,-0.7533,-0.7833,-0.7877,-0.7904,-0.7982,-0.7988,-0.7988,-0.7988,-0.8109,-0.8153,-0.8153,-0.8221,-0.7645,-0.6213,-0.6205,-0.6346,-0.6475,-0.6503,-0.7212,-0.8712,-0.8615,-0.8581,-0.8507,-0.8506,-0.8482,-0.8479,-0.8487,-0.849,-0.8476,-0.8357,-0.8292,-0.831,-0.8102,-0.7988,-0.7988,-0.7988,-0.7988,-0.7988,-0.7988,-0.7988,-0.7988,0.0,0.0,0.0,0.0,0.0,0.0,0.0,0.0,0.0,-0.4453,-0.458,-0.4823,-0.5262,-0.5053,-0.5188,-0.6005,-0.6065,-0.6878,-0.8845,-0.7383,-0.6573,-0.681,-0.6324,-0.6159,-0.6381,-0.6467,-0.6549,-0.6702,-0.6702,-0.6793,-0.6927,-0.6927,-0.7146,-0.7461,-0.7587,-0.7723,-0.7865,-0.7938,-0.7988,-0.7988,-0.7988,-0.7988,-0.7975,-0.7902,-0.7838,-0.7626,-0.6403,-0.5099,-0.3858,-0.278,-0.157,-0.0692,-0.1436,-0.2016,-0.2704,-0.4316,-0.5195,0.0,0.0,0.0,0.0,0.0,0.0,0.0,0.0,0.0,-0.5568,-0.6552,-0.6217,-0.6043,-0.6979,-0.7312,-0.7475,-0.7655,-0.7807,-0.7943,-0.8065,-0.8032,-0.8032,-0.8032,-0.8008,-0.8002,-0.8032,-0.8197,-0.8333,-0.8361,-0.8418,-0.787,-0.6393,-0.6173,-0.6202,-0.6529,-0.6239,-0.6974,-0.8703,-0.8608,-0.8598,-0.857,-0.857,-0.857,-0.857,-0.857,-0.857,-0.856,-0.8387,-0.8347,-0.831,-0.8102,-0.7988,-0.7988,-0.7988,-0.7988,-0.7988,-0.7988,-0.7988,-0.7988,0.0,0.0,0.0,0.0,0.0,0.0,0.0,0.0,0.0,-0.4264,-0.4399,-0.4536,-0.4601,-0.467,-0.5368,-0.7003,-0.6176,-0.6502,-0.8688,-0.6782,-0.604,-0.7191,-0.6617,-0.6405,-0.6647,-0.6532,-0.6549,-0.6702,-0.6702,-0.6844,-0.7071,-0.7071,-0.7301,-0.7763,-0.778,-0.7872,-0.7965,-0.7982,-0.7988,-0.7988,-0.7988,-0.7988,-0.7988,-0.7971,-0.788,-0.7722,-0.7336,-0.616,-0.475,-0.4613,-0.3671,-0.265,-0.2972,-0.3744,-0.4599,-0.4972,-0.5674,-0.6404,-0.663,-0.6614,-0.6549,-0.6651,-0.6586,-0.6593,0.0,0.0,-0.6711,-0.6856,-0.6887,-0.6982,-0.7319,-0.7472,-0.7665,-0.7894,-0.8119,-0.8225,-0.8241,-0.8245,-0.8245,-0.8245,-0.8123,-0.8092,-0.8231,-0.831,-0.8323,-0.8448,-0.8472,-0.7893,-0.6544,-0.5214,-0.516,-0.6652,-0.5419,-0.6079,-0.8858,-0.8851,-0.8844,-0.8834,-0.8834,-0.8834,-0.8834,-0.8834,-0.8834,-0.8817,-0.8584,-0.8387,-0.831,-0.8102,-0.7988,-0.7988,-0.7988,-0.7988,-0.7988,-0.7988,-0.7988,-0.7988,0.0,0.0,0.0,0.0,0.0,0.0,0.0,0.0,0.0,0.0,0.0,-0.4525,-0.4614,-0.4806,-0.5493,-0.684,-0.5848,-0.6062,-0.8191,-0.649,-0.5927,-0.7133,-0.6617,-0.6436,-0.6695,-0.6725,-0.6854,-0.7092,-0.718,-0.7288,-0.7407,-0.7407,-0.7553,-0.7811,-0.7811,-0.7896,-0.7988,-0.7988,-0.7988,-0.7988,-0.7988,-0.7988,-0.7971,-0.7848,-0.758,-0.7305,-0.7353,-0.6378,0.0,-0.4732,-0.3865,-0.2884,-0.2867,-0.3265,-0.3891,-0.4541,-0.5141,-0.5732,-0.641,-0.6586,-0.662,-0.6685,-0.678,-0.6909,-0.7055,-0.7163,-0.721,-0.7302,-0.7431,-0.7604,-0.7848,-0.7946,-0.8058,0.0,-0.835,-0.8364,-0.8333,-0.8323,-0.8238,-0.8147,-0.8029,-0.8015,-0.813,-0.8292,-0.8418,-0.8476,-0.8648,-0.8109,-0.6668,-0.6007,-0.5978,-0.67,-0.6198,-0.6878,-0.8885,-0.9022,-0.9022,-0.8885,-0.8885,-0.8885,-0.8885,-0.8885,-0.8834,-0.8798,-0.8669,-0.8482,-0.8316,-0.8201,-0.8123,-0.7988,-0.7988,-0.7988,-0.7988,-0.7988,-0.7988,-0.7988,0.0,0.0,0.0,0.0,0.0,0.0,0.0,0.0,0.0,0.0,0.0,0.0,0.0,-0.4948,-0.5488,-0.6468,-0.5557,-0.562,-0.7348,-0.6108,-0.5728,-0.6639,-0.636,-0.6351,-0.6692,-0.681,-0.701,-0.7309,-0.7461,-0.7556,-0.76,-0.7641,-0.7736,-0.7875,-0.7875,-0.7887,-0.7988,-0.7988,-0.7988,-0.7988,-0.7988,-0.7965,-0.7891,-0.76,-0.7272,-0.696,-0.7139,-0.6349,-0.5214,-0.5053,-0.4453,-0.373,-0.3653,-0.3772,-0.4082,-0.4844,-0.5176,-0.5464,-0.6337,-0.6617,-0.6729,-0.6854,-0.7044,-0.7179,-0.726,-0.7414,-0.7536,-0.7689,-0.7801,-0.7957,-0.8221,-0.8235,-0.8265,-0.8452,-0.8482,-0.8445,-0.8395,-0.8381,-0.8272,-0.8119,-0.8015,-0.7988,-0.7988,-0.8272,-0.8459,-0.8537,-0.8791,-0.8429,-0.7351,-0.6964,-0.6985,-0.7399,-0.7128,-0.7613,-0.9006,-0.9123,-0.91,-0.8998,-0.8902,-0.8885,-0.8885,-0.8885,-0.8824,-0.8771,-0.8726,-0.8587,-0.8387,-0.8347,-0.8262,-0.8157,-0.8119,-0.8102,-0.8099,-0.8005,-0.7988,-0.7988,0.0,0.0,0.0,0.0,0.0,0.0,0.0,0.0,0.0,0.0,0.0,0.0,0.0,0.0,-0.5413,-0.6163,-0.5397,-0.5222,-0.6009,-0.5459,-0.5274,-0.5617,-0.5735,-0.6091,-0.6688,-0.6705,-0.6851,-0.7102,-0.7302,-0.7455,-0.7604,-0.774,-0.7885,-0.7982,-0.7982,-0.7985,-0.7988,-0.7988,-0.7988,-0.7988,-0.7988,-0.7901,-0.777,-0.7277,-0.7102,-0.7055,-0.682,-0.6251,-0.5659,-0.6081,-0.609,-0.5947,-0.6297,-0.6491,-0.6585,-0.6475,-0.6337,-0.6335,0.0,0.0,-0.6803,-0.7286,-0.7402,-0.7441,-0.7726,-0.7794,-0.7841,-0.7944,-0.7978,-0.8079,-0.8241,-0.8147,-0.8143,-0.8435,-0.8482,-0.8479,-0.8476,-0.8476,-0.8421,-0.8333,-0.813,-0.7988,0.0,-0.8184,-0.8394,-0.8682,-0.8849,-0.8881,-0.8826,-0.7709,-0.7726,-0.909,-0.778,-0.7843,-0.9367,-0.9282,-0.9207,-0.92,-0.9005,-0.8885,-0.8885,-0.8885,-0.8881,-0.8868,-0.8774,-0.8706,-0.8686,-0.8537,-0.8472,-0.8455,-0.8319,-0.8313,-0.8245,-0.8096,-0.7988,-0.7988,0.0,0.0,0.0,0.0,0.0,0.0,0.0,0.0,0.0,0.0,0.0,0.0,0.0,0.0,0.0,0.0,-0.5272,-0.5196,-0.5585,-0.5286,-0.5223,-0.5463,-0.5583,-0.58,-0.6098,-0.6396,-0.6647,-0.6848,-0.7095,-0.7295,-0.7448,-0.7495,-0.76,-0.775,-0.7845,-0.7889,-0.7889,-0.7889,-0.7889,-0.7862,-0.7516,-0.7475,-0.7468,-0.7021,-0.6787,-0.6698,0.0,-0.6539,-0.6318,-0.6317,-0.6265,-0.6166,-0.6061,-0.6132,-0.6264,-0.6354,0.0,0.0,0.0,0.0,-0.7356,-0.76,-0.7818,-0.8067,-0.8211,-0.8184,-0.813,-0.818,-0.7957,-0.7824,-0.8072,-0.7994,-0.8018,-0.8418,-0.8567,-0.8632,-0.8632,-0.8632,-0.8543,-0.835,-0.8225,0.0,0.0,0.0,0.0,-0.8563,-0.8769,-0.896,-0.9083,-0.8826,-0.8784,-0.9217,-0.8926,-0.8903,-0.9289,-0.9337,-0.9309,-0.9207,-0.9008,-0.8885,-0.8885,-0.8885,-0.8885,-0.8878,-0.8828,-0.8804,-0.8706,-0.8655,-0.8574,-0.8476,-0.8428,-0.8411,-0.8394,-0.8248,-0.8194,-0.8177,0.0,0.0,0.0,0.0,0.0,0.0,0.0,0.0,0.0,0.0,0.0,0.0,0.0,0.0,0.0,0.0,0.0,-0.5233,-0.5277,-0.5186,-0.5143,-0.5274,-0.546,-0.5599,-0.5796,-0.6231,-0.6511,-0.662,-0.6807,-0.698,-0.7132,-0.7119,-0.7132,-0.7285,-0.7431,-0.7495,-0.7495,-0.7495,-0.7526,-0.7539,-0.7156,-0.7126,-0.717,-0.677,-0.6624,0.0,-0.6624,-0.6688,-0.6736,-0.6477,-0.634,-0.6265,-0.6064,-0.6034,0.0,0.0,0.0,0.0,0.0,-0.7343,-0.7723,-0.7923,-0.8163,-0.8357,-0.8397,-0.8388,-0.8275,-0.8065,-0.7801,-0.7624,-0.7655,-0.7591,-0.7702,-0.8102,-0.8292,-0.8428,-0.8537,-0.8598,-0.856,-0.837,-0.8368,-0.831,0.0,0.0,0.0,-0.8491,-0.8841,-0.907,-0.9199,-0.9407,-0.9471,-0.9323,-0.9554,-0.9591,-0.9395,-0.9439,-0.9357,-0.9207,-0.9008,-0.8885,-0.8885,-0.8885,-0.8885,-0.8885,-0.8885,-0.8828,-0.8791,-0.8791,-0.8733,-0.8638,-0.8584,-0.853,-0.8465,-0.8323,-0.8235,-0.8174,0.0,0.0,0.0,0.0,0.0,0.0,0.0,0.0,0.0,0.0,0.0,0.0,0.0,0.0,0.0,0.0,0.0,0.0,-0.5106,-0.5093,-0.509,-0.509,-0.5267,-0.5515,-0.5759,-0.6105,-0.633,-0.6467,-0.6474,-0.6519,-0.6675,-0.6529,-0.6549,-0.6709,-0.6861,-0.6886,-0.6886,-0.6886,-0.6964,-0.7071,-0.6916,-0.6856,-0.6829,-0.6573,-0.6647,-0.6825,-0.6583,-0.6671,-0.6832,-0.659,0.0,0.0,0.0,0.0,0.0,0.0,0.0,-0.6881,-0.7455,-0.7733,-0.7926,-0.8218,-0.8394,-0.8459,-0.8323,-0.832,-0.8126,-0.7651,-0.7533,-0.7422,0.0,0.0,-0.7196,-0.755,-0.7736,-0.795,-0.8252,-0.8414,-0.8503,0.0,0.0,0.0,0.0,0.0,0.0,-0.8515,0.0,-0.9203,-0.9199,-0.9593,-0.9754,-0.9615,-0.9747,-0.9819,-0.9812,-0.9676,-0.9456,-0.9207,-0.9015,-0.8892,-0.8885,-0.8885,-0.8885,-0.8885,-0.8885,-0.8885,-0.8885,-0.8885,-0.8885,-0.8868,-0.8771,-0.8621,-0.8476,-0.8378,-0.8177,-0.8002,0.0,0.0,0.0,0.0,0.0,0.0,0.0,0.0,0.0,0.0,0.0,0.0,0.0,0.0,0.0,0.0,0.0,0.0,-0.51,-0.5002,-0.4941,-0.4941,-0.5111,-0.5223,-0.5268,-0.5603,-0.5779,-0.5813,-0.5922,-0.6112,-0.6412,-0.6371,-0.6494,-0.6709,-0.6861,-0.6886,-0.6886,-0.6886,-0.6906,-0.6906,-0.658,-0.6495,-0.6569,-0.6422,-0.6467,-0.6593,-0.6627,-0.6692,-0.6763,0.0,0.0,0.0,0.0,-0.6488,-0.6773,0.0,0.0,-0.756,-0.7716,-0.8109,-0.8499,-0.8577,-0.8625,-0.8642,-0.8608,-0.8252,-0.77,-0.6813,-0.6769,-0.6721,0.0,0.0,0.0,-0.755,-0.8001,0.0,-0.857,-0.8726,0.0,-0.8781,0.0,-0.8804,-0.8779,-0.8938,0.0,0.0,-0.9145,-0.9268,-0.9466,-0.967,-0.9754,-0.9615,-0.9747,-0.9771,-0.9663,-0.9629,-0.9456,-0.921,-0.9173,-0.9042,-0.8885,-0.8885,-0.8885,-0.8885,-0.8885,-0.8885,-0.8885,-0.8885,-0.8885,-0.8868,-0.8771,-0.8686,-0.8621,-0.8367,-0.8245,-0.8197,0.0,0.0,0.0,0.0,0.0,0.0,0.0,0.0,0.0,0.0,0.0,0.0,0.0,0.0,0.0,0.0,0.0,0.0,0.0,-0.4988,-0.4982,-0.4982,-0.5155,-0.5032,-0.4637,-0.4848,-0.4991,-0.4991,-0.5004,-0.5335,-0.6003,-0.5934,-0.6027,-0.6224,-0.6437,-0.6492,-0.6492,-0.6492,-0.6573,0.0,0.0,-0.6247,-0.6416,-0.6399,-0.6443,-0.6532,-0.6647,-0.6658,0.0,0.0,0.0,-0.6597,-0.6563,-0.677,-0.7018,-0.7213,0.0,-0.7855,-0.8052,-0.8401,-0.871,-0.871,-0.871,-0.8659,-0.8462,-0.8102,-0.7528,-0.6655,-0.6597,0.0,-0.5891,-0.637,0.0,0.0,0.0,0.0,-0.8469,-0.8664,-0.8888,0.0,-0.9096,0.0,-0.9109,-0.9231,-0.9327,0.0,-0.9384,-0.9414,-0.9616,-0.9697,-0.9785,-0.9703,-0.9778,-0.9781,-0.9703,-0.9642,-0.949,-0.9309,-0.9241,-0.9079,-0.8885,-0.8885,-0.8885,-0.8885,0.0,-0.8885,-0.8885,-0.8885,-0.8885,-0.8875,-0.8845,-0.8726,-0.8591,-0.8425,-0.8282,-0.8157,0.0,0.0,0.0,0.0,0.0,0.0,0.0,0.0,0.0,0.0,0.0,0.0,0.0,0.0,0.0,0.0,0.0,0.0,0.0,0.0,0.0,-0.51,-0.5179,-0.4821,-0.4015,-0.401,-0.3991,-0.3991,-0.3895,-0.4388,-0.5439,-0.5345,-0.5443,-0.5691,-0.5945,-0.6023,-0.6023,-0.6023,-0.6149,-0.6317,-0.6142,-0.6169,-0.634,0.0,0.0,-0.6508,-0.6637,0.0,0.0,0.0,-0.6658,-0.6583,-0.6868,-0.7051,-0.7291,-0.7726,-0.7896,-0.8045,-0.8435,-0.8652,-0.8767,-0.8767,-0.871,-0.8543,-0.8083,-0.781,-0.7459,-0.6665,0.0,-0.6522,-0.6149,-0.6314,-0.6603,-0.6866,0.0,-0.7682,-0.8265,-0.8564,-0.881,-0.9193,-0.932,-0.9442,-0.9429,-0.947,-0.9508,-0.9633,-0.9633,-0.9633,-0.9633,-0.9758,-0.9822,-0.9822,-0.9822,-0.9822,-0.9822,-0.97,-0.9551,-0.9381,-0.9303,-0.9096,-0.8885,-0.8885,-0.8885,-0.8885,0.0,0.0,-0.8885,-0.8885,-0.8885,-0.8881,-0.8861,-0.8747,-0.8509,-0.8489,-0.8306,-0.8019,0.0,0.0,0.0,0.0,0.0,0.0,0.0,0.0,0.0,0.0,-0.3418,-0.4193,0.0,0.0,0.0,0.0,0.0,0.0,0.0,0.0,0.0,0.0,-0.4549,-0.4184,-0.4015,0.0,0.0,0.0,0.0,-0.3534,-0.4679,-0.4657,-0.521,-0.6184,-0.6235,-0.6259,-0.6259,-0.6259,-0.6344,-0.6474,-0.6446,-0.6453,-0.6477,-0.6504,0.0,0.0,0.0,0.0,0.0,0.0,-0.6923,-0.6836,-0.7007,-0.7415,-0.785,-0.7928,-0.8302,-0.8706,-0.8784,-0.8964,-0.9132,-0.9132,-0.8763,-0.8292,-0.8035,-0.7496,0.0,0.0,-0.5891,-0.6081,-0.5165,-0.5907,-0.6759,-0.7011,-0.7458,-0.7902,-0.8377,-0.8613,-0.8849,0.0,-0.9362,-0.9508,0.0,0.0,0.0,0.0,0.0,-0.9758,-0.9758,-0.9761,-0.9822,-0.9822,-0.9822,-0.9822,-0.9822,-0.9795,-0.9649,-0.9381,-0.9354,-0.9201,-0.8885,-0.8885,-0.8885,-0.8885,-0.8885,0.0,-0.8885,-0.8885,-0.8885,-0.8871,-0.8801,-0.8716,-0.8655,-0.853,-0.8377,-0.8231,0.0,0.0,0.0,0.0,0.0,0.0,0.0,-0.0832,-0.1218,-0.1708,-0.2622,-0.3674,-0.4871,-0.5091,-0.5162,0.0,0.0,0.0,0.0,0.0,0.0,0.0,0.0,0.0,0.0,0.0,0.0,0.0,0.0,0.0,0.0,0.0,0.0,0.0,0.0,0.0,-0.63,-0.63,-0.6381,-0.6511,-0.6511,-0.6559,0.0,0.0,0.0,0.0,0.0,0.0,0.0,0.0,-0.7112,-0.694,-0.7285,-0.7634,-0.8019,-0.8225,-0.853,-0.8852,-0.9008,-0.9161,-0.9309,-0.9228,-0.8818,-0.8282,-0.7899,0.0,0.0,0.0,-0.6038,-0.6141,-0.5628,-0.6112,0.0,-0.6875,-0.7092,-0.7434,-0.8064,-0.8268,0.0,-0.9061,-0.934,-0.9571,0.0,0.0,0.0,0.0,0.0,-0.9822,-0.9822,-0.9822,-0.9822,-0.9822,-0.9822,-0.9822,-0.9822,-0.9822,-0.9713,-0.95,-0.9418,-0.9266,-0.9049,-0.8974,-0.8885,-0.8885,-0.8885,0.0,-0.8885,-0.8885,-0.8885,-0.8875,-0.8804,-0.8781,-0.8703,-0.8628,-0.8509,-0.8381,0.0,0.0,0.0,0.0,0.0,0.0,0.0,-0.0147,-0.0537,-0.1329,-0.2108,-0.3158,-0.4685,-0.4951,-0.506,0.0,0.0,0.0,0.0,0.0,0.0,0.0,0.0,0.0,0.0,0.0,0.0,0.0,0.0,0.0,0.0,0.0,0.0,0.0,0.0,0.0,0.0,0.0,-0.6429,0.0,0.0,0.0,0.0,0.0,0.0,0.0,0.0,0.0,0.0,0.0,-0.7166,-0.6997,-0.7428,-0.7753,-0.7995,-0.8309,-0.8584,-0.8855,-0.9146,-0.9347,-0.9395,-0.9299,-0.8869,-0.8289,-0.7729,-0.7224,0.0,-0.6385,-0.63,-0.63,-0.63,-0.6392,-0.6538,0.0,-0.6739,-0.6983,-0.7753,-0.7986,-0.828,0.0,-0.9266,0.0,0.0,0.0,0.0,0.0,0.0,0.0,-0.9822,-0.9822,-0.9822,-0.9822,-0.9822,-0.9822,-0.9822,-0.9822,-0.9751,-0.9608,-0.949,-0.9351,-0.9255,-0.9083,-0.9035,-0.9032,-0.8998,0.0,0.0,-0.8895,-0.8885,-0.8885,-0.8885,-0.8811,-0.876,-0.876,-0.8662,-0.853,0.0,0.0,0.0,0.0,0.0,0.0,0.0,-0.0559,-0.1379,-0.241,-0.2377,-0.2706,-0.3977,-0.486,-0.5358,0.0,0.0,0.0,0.0,0.0,0.0,0.0,0.0,0.0,0.0,0.0,0.0,0.0,0.0,0.0,0.0,0.0,0.0,0.0,0.0,0.0,0.0,0.0,0.0,0.0,0.0,0.0,0.0,0.0,0.0,0.0,0.0,0.0,0.0,0.0,0.0,-0.7109,-0.7336,-0.7594,-0.7865,-0.7982,0.0,0.0,-0.9204,-0.9364,-0.9551,-0.9398,-0.8821,-0.8167,-0.7706,0.0,-0.6634,-0.6364,-0.63,-0.63,-0.63,-0.631,-0.6457,-0.6841,-0.6865,-0.7149,-0.7899,-0.8167,-0.8453,-0.8838,0.0,0.0,0.0,0.0,0.0,0.0,0.0,0.0,0.0,-0.9822,-0.9822,-0.9822,-0.9822,-0.9822,-0.9822,-0.9822,-0.9751,-0.9608,-0.9595,-0.9507,-0.9361,-0.9347,-0.934,-0.9334,-0.9251,0.0,0.0,-0.8991,-0.8885,-0.8885,-0.8885,-0.8875,-0.8861,-0.8861,-0.8821,-0.8689,0.0,0.0,0.0,0.0,0.0,0.0,0.0,-0.0235,-0.0602,-0.1022,-0.1401,-0.1829,-0.2333,-0.3624,-0.4437,-0.4437,0.0,0.0,0.0,0.0,0.0,0.0,0.0,0.0,0.0,0.0,0.0,0.0,0.0,0.0,0.0,0.0,0.0,0.0,0.0,0.0,0.0,0.0,0.0,0.0,0.0,0.0,0.0,0.0,0.0,0.0,0.0,0.0,0.0,0.0,0.0,0.0,-0.7187,-0.7312,0.0,0.0,-0.8377,-0.8788,-0.8974,-0.9242,-0.9415,-0.9174,-0.8618,-0.8014,-0.7563,0.0,-0.6641,-0.647,-0.6426,-0.6426,-0.6426,-0.6358,-0.6358,-0.6498,-0.6549,0.0,-0.7255,0.0,0.0,0.0,0.0,0.0,0.0,0.0,0.0,0.0,0.0,0.0,0.0,-0.9822,-0.9822,-0.9822,-0.9822,-0.9781,-0.9693,-0.9778,-0.9751,-0.9608,-0.9608,-0.953,-0.9378,-0.9344,-0.9195,-0.9113,-0.9052,0.0,0.0,-0.8905,-0.8885,-0.8885,-0.8885,-0.8885,-0.8885,-0.8885,-0.8844,-0.8849,0.0,0.0,0.0,0.0,0.0,0.0,0.0,0.0,-0.009,-0.0348,-0.07,-0.1124,-0.1649,-0.2684,-0.3458,-0.3773,-0.4582,0.0,0.0,0.0,0.0,0.0,0.0,0.0,0.0,0.0,0.0,0.0,0.0,0.0,0.0,0.0,0.0,0.0,0.0,0.0,0.0,0.0,0.0,0.0,0.0,0.0,0.0,0.0,0.0,0.0,0.0,0.0,0.0,0.0,0.0,0.0,0.0,-0.7095,-0.7186,0.0,-0.8116,-0.8465,-0.8682,-0.8991,-0.9191,-0.8933,-0.8399,-0.7884,0.0,0.0,-0.6725,-0.6569,-0.6539,-0.6539,-0.6539,-0.6497,-0.6446,-0.6491,-0.6476,-0.6602,-0.6978,-0.733,0.0,0.0,0.0,0.0,0.0,0.0,0.0,0.0,0.0,0.0,0.0,-0.9822,-0.9822,-0.9822,-0.9822,-0.9751,-0.9612,-0.9707,-0.9707,-0.9608,-0.9608,-0.9574,-0.9507,-0.9398,-0.9273,-0.9077,0.0,0.0,0.0,-0.8902,-0.8885,-0.8885,-0.8885,-0.8885,-0.8885,-0.8885,-0.8885,-0.8885,0.0,0.0,0.0,0.0,0.0,0.0,0.0,0.0,-0.0298,-0.1165,-0.0555,-0.0686,-0.2495,-0.2404,-0.2645,-0.3697,-0.4582,0.0,0.0,0.0,0.0,0.0,0.0,0.0,0.0,0.0,0.0,0.0,0.0,-0.1081,-0.3081,0.0,0.0,0.0,0.0,0.0,0.0,0.0,0.0,0.0,0.0,0.0,0.0,0.0,0.0,0.0,0.0,0.0,0.0,0.0,0.0,0.0,0.0,-0.7095,-0.7129,-0.7333,-0.7852,-0.8327,-0.8327,-0.8604,-0.8851,-0.875,-0.8374,-0.7914,0.0,0.0,-0.6839,-0.6729,-0.6698,-0.6698,-0.6698,-0.6698,-0.6746,-0.6856,-0.6888,0.0,-0.7334,-0.7603,0.0,0.0,0.0,0.0,0.0,0.0,0.0,0.0,0.0,0.0,0.0,-0.9822,-0.9822,-0.9822,-0.9822,-0.9751,-0.9612,-0.9612,-0.9612,-0.9608,-0.9608,-0.9683,-0.9815,-0.9815,-0.9737,0.0,0.0,0.0,0.0,-0.8998,-0.8885,-0.8885,-0.8885,-0.8885,-0.8885,-0.8885,-0.8885,-0.8885,0.0,0.0,0.0,0.0,0.0,0.0,0.0,0.0,-0.0086,-0.0387,-0.0179,-0.0212,-0.0778,-0.1654,-0.2383,-0.2855,-0.4173,0.0,0.0,0.0,0.0,0.0,0.0,0.0,0.0,0.0,0.0,0.0,0.0,-0.1026,-0.2976,-0.3076,-0.4178,0.0,0.0,0.0,0.0,0.0,0.0,0.0,0.0,0.0,0.0,0.0,0.0,0.0,0.0,0.0,0.0,0.0,0.0,0.0,0.0,0.0,0.0,-0.7326,-0.758,0.0,-0.7929,-0.8136,-0.8238,-0.8133,-0.7838,-0.7529,-0.7333,-0.7055,-0.6873,-0.6825,-0.6858,-0.6858,-0.6858,-0.676,-0.6706,-0.6753,-0.6846,0.0,0.0,0.0,0.0,0.0,0.0,0.0,0.0,0.0,0.0,0.0,0.0,0.0,0.0,-0.9822,-0.9822,-0.9822,-0.9822,-0.9703,-0.9456,-0.9557,-0.9557,-0.9456,-0.9561,-0.9632,-0.9673,-0.9568,0.0,0.0,0.0,0.0,0.0,-0.9042,-0.8994,-0.9076,-0.8977,-0.8885,-0.8885,-0.8885,-0.8885,-0.8885,0.0,0.0,0.0,0.0,0.0,0.0,0.0,0.0,0.0,0.0,0.0,-0.0117,-0.0453,-0.1527,-0.2442,-0.3016,-0.4206,0.0,0.0,0.0,0.0,0.0,0.0,0.0,0.0,0.0,0.0,0.0,0.0,-0.0841,-0.2398,-0.2495,-0.3394,-0.4865,-0.4327,-0.4686,0.0,0.0,0.0,0.0,0.0,0.0,-0.6732,0.0,0.0,0.0,0.0,0.0,0.0,0.0,0.0,0.0,0.0,0.0,0.0,0.0,-0.7485,0.0,0.0,-0.7756,-0.7851,-0.7753,-0.755,0.0,0.0,-0.7071,-0.6964,-0.6964,-0.6964,-0.6964,-0.6964,-0.6927,-0.6859,-0.6847,-0.691,0.0,0.0,0.0,0.0,0.0,0.0,0.0,0.0,0.0,0.0,0.0,0.0,0.0,0.0,0.0,-0.9822,-0.9822,-0.9822,-0.968,-0.9384,-0.9476,-0.9476,-0.9384,-0.9479,-0.9581,-0.9686,-0.9591,0.0,0.0,0.0,0.0,0.0,-0.9096,-0.9042,-0.9062,-0.8974,-0.8885,-0.8885,-0.8885,-0.8885,-0.8885,0.0,0.0,0.0,0.0,0.0,0.0,0.0,0.0,0.0,0.0,-0.0056,-0.0397,-0.1196,-0.1877,-0.275,-0.3859,0.0,0.0,0.0,0.0,0.0,0.0,0.0,0.0,0.0,0.0,0.0,0.0,0.0,-0.0554,-0.1591,-0.1593,-0.2134,-0.3113,-0.3026,-0.3599,-0.4649,-0.5757,-0.6236,-0.634,-0.66,-0.6715,0.0,0.0,0.0,0.0,0.0,0.0,0.0,0.0,0.0,0.0,0.0,0.0,0.0,0.0,0.0,0.0,0.0,-0.7468,-0.7567,-0.7567,-0.7468,0.0,-0.7402,-0.7251,0.0,-0.7098,-0.7095,-0.7095,-0.7095,-0.7095,-0.7095,-0.7095,0.0,0.0,0.0,0.0,0.0,0.0,0.0,0.0,0.0,0.0,0.0,0.0,0.0,0.0,0.0,0.0,-0.9822,-0.9822,-0.9822,-0.9683,-0.9401,-0.9398,-0.9398,-0.9398,-0.9398,-0.9547,-0.9822,-0.9812,0.0,0.0,0.0,0.0,0.0,-0.9207,-0.9066,-0.8898,-0.8888,-0.8885,-0.8885,-0.8885,-0.8885,-0.8885,0.0,0.0,0.0,0.0,0.0,0.0,0.0,0.0,0.0,0.0,-0.0504,-0.0926,-0.113,-0.2326,-0.327,0.0,0.0,0.0,0.0,0.0,0.0,0.0,0.0,0.0,0.0,0.0,0.0,0.0,0.0,-0.0559,-0.1594,-0.1593,-0.2125,-0.3067,-0.2286,-0.2507,-0.3558,-0.474,-0.5701,-0.6491,-0.6753,-0.6832,0.0,0.0,0.0,0.0,-0.7095,-0.7217,0.0,0.0,0.0,0.0,0.0,0.0,0.0,0.0,-0.7577,0.0,-0.7415,0.0,-0.7203,-0.7203,-0.7309,-0.7343,0.0,-0.7258,-0.7285,-0.7122,-0.7095,-0.7095,0.0,0.0,0.0,0.0,0.0,0.0,0.0,0.0,0.0,0.0,0.0,0.0,0.0,0.0,0.0,0.0,0.0,0.0,0.0,0.0,-0.9822,-0.9822,-0.9822,-0.9737,-0.9557,-0.9554,-0.9554,-0.9554,-0.9554,-0.9649,-0.9819,-0.9707,0.0,0.0,0.0,0.0,-0.9476,-0.913,-0.9032,-0.9093,-0.8981,-0.8885,-0.8885,-0.8885,-0.8885,-0.8885,0.0,0.0,0.0,0.0,0.0,0.0,0.0,0.0,0.0,0.0,0.0,0.0,0.0,0.0,0.0,0.0,0.0,0.0,0.0,0.0,0.0,0.0,0.0,0.0,0.0,0.0,0.0,0.0,0.0,-0.0297,-0.0849,-0.087,-0.1152,-0.1689,-0.1608,-0.2187,-0.3271,-0.4417,-0.5551,-0.6597,-0.6834,0.0,0.0,0.0,0.0,0.0,-0.7122,-0.7241,0.0,-0.7356,-0.736,-0.7421,0.0,0.0,0.0,0.0,-0.7706,-0.7478,-0.7478,-0.7312,-0.7095,-0.7095,-0.7204,-0.7244,-0.7115,-0.7204,-0.7241,-0.7112,-0.7095,-0.7095,0.0,0.0,0.0,0.0,0.0,0.0,0.0,0.0,0.0,0.0,0.0,0.0,0.0,0.0,0.0,0.0,0.0,0.0,0.0,0.0,-0.9822,-0.9822,-0.9822,-0.9751,-0.9612,-0.9608,-0.9608,-0.9608,-0.9537,-0.9615,-0.9815,-0.9602,-0.9585,0.0,0.0,0.0,-0.9381,-0.9137,-0.9045,-0.9049,-0.8967,-0.8885,-0.8885,-0.8885,-0.8885,-0.8885,0.0,0.0,0.0,0.0,0.0,0.0,0.0,0.0,0.0,0.0,0.0,0.0,0.0,0.0,0.0,0.0,0.0,0.0,0.0,0.0,0.0,0.0,-0.0404,0.0,0.0,0.0,0.0,0.0,0.0,0.0,0.0,0.0,0.0,-0.0039,-0.096,-0.2095,-0.3394,-0.4287,-0.5474,-0.6749,-0.6859,0.0,0.0,0.0,0.0,0.0,0.0,0.0,0.0,-0.75,-0.7512,-0.7478,-0.7879,0.0,0.0,0.0,0.0,0.0,-0.7604,-0.739,-0.7125,-0.7102,-0.7112,-0.7125,-0.7102,-0.7112,-0.7125,-0.7102,-0.7139,-0.7143,0.0,-0.7122,0.0,0.0,0.0,0.0,0.0,0.0,0.0,0.0,0.0,0.0,0.0,0.0,0.0,0.0,0.0,0.0,0.0,0.0,0.0,-0.9822,-0.9822,-0.9764,-0.9642,-0.9642,-0.9632,-0.9608,-0.9479,-0.9534,-0.9744,-0.9496,-0.9452,0.0,0.0,0.0,-0.9207,-0.9187,-0.9049,-0.8885,-0.8885,-0.8885,-0.8885,-0.8885,-0.8885,-0.8885,0.0,0.0,0.0,0.0,0.0,0.0,0.0,0.0,0.0,0.0,0.0,0.0,0.0,0.0,0.0,0.0,0.0,0.0,0.0,0.0,0.0,-0.0202,-0.0067,0.0,0.0,0.0,0.0,0.0,0.0,0.0,0.0,0.0,0.0,0.0,-0.0164,-0.1398,-0.3397,-0.3677,-0.4996,-0.6862,-0.7007,0.0,0.0,0.0,0.0,0.0,0.0,0.0,0.0,-0.7216,-0.7584,-0.7597,-0.7787,0.0,0.0,0.0,0.0,0.0,-0.7634,-0.7472,-0.7305,-0.7129,-0.7238,-0.7302,-0.7125,-0.7241,-0.7299,-0.7122,-0.7231,0.0,0.0,-0.7327,-0.7499,0.0,0.0,0.0,0.0,0.0,0.0,0.0,0.0,0.0,0.0,0.0,0.0,0.0,0.0,0.0,0.0,0.0,0.0,-0.9822,-0.9822,-0.9812,-0.9788,-0.9788,-0.9727,-0.9608,-0.9585,-0.953,-0.9449,-0.9401,-0.9395,0.0,0.0,-0.9231,-0.92,-0.9022,-0.8902,-0.8885,-0.8885,-0.8885,-0.8885,-0.8885,-0.8885,-0.8885,0.0,0.0,0.0,0.0,0.0,0.0,0.0,0.0,0.0,0.0,0.0,0.0,0.0,0.0,0.0,0.0,0.0,0.0,0.0,0.0,0.0,0.0,0.0,0.0,0.0,0.0,0.0,0.0,0.0,0.0,0.0,0.0,0.0,-0.0042,-0.0665,-0.1936,-0.3557,-0.4253,-0.5501,-0.7004,0.0,0.0,0.0,0.0,0.0,0.0,0.0,0.0,0.0,0.0,-0.7712,-0.774,-0.7889,0.0,0.0,0.0,0.0,0.0,-0.7617,-0.7428,-0.721,-0.7018,-0.7136,-0.7207,-0.7014,-0.7139,-0.7227,-0.7248,-0.732,0.0,0.0,0.0,0.0,0.0,0.0,0.0,0.0,0.0,0.0,0.0,0.0,0.0,0.0,0.0,0.0,0.0,0.0,0.0,0.0,0.0,0.0,0.0,-0.7544,-0.7573,-0.8489,-0.8417,-0.875,-0.9608,-0.9442,-0.9367,-0.9374,-0.9215,-0.9184,-0.9306,0.0,-0.9035,-0.9032,-0.8964,-0.8885,-0.8885,-0.8885,-0.8885,-0.8885,-0.8885,-0.8885,-0.8885,0.0,0.0,0.0,0.0,0.0,0.0,0.0,0.0,0.0,0.0,0.0,0.0,0.0,0.0,0.0,0.0,0.0,0.0,0.0,0.0,-0.0101,-0.0303,-0.0101,0.0,0.0,0.0,0.0,0.0,0.0,0.0,0.0,0.0,0.0,-0.0042,-0.0966,-0.2189,-0.3659,-0.4285,-0.5401,-0.6697,0.0,0.0,0.0,0.0,0.0,0.0,0.0,0.0,0.0,0.0,0.0,0.0,0.0,0.0,0.0,-0.7988,-0.7879,-0.7689,-0.7617,-0.7428,-0.7152,-0.694,-0.6991,-0.7055,-0.6989,-0.7085,-0.7268,-0.7476,-0.7502,0.0,0.0,0.0,0.0,0.0,0.0,0.0,0.0,0.0,0.0,0.0,0.0,0.0,0.0,0.0,0.0,0.0,0.0,0.0,0.0,0.0,0.0,0.0,-0.551,-0.5661,-0.7342,-0.7166,-0.7871,-0.9554,-0.934,-0.9255,-0.9269,-0.9042,-0.8998,-0.9096,-0.8988,-0.8885,-0.8885,-0.8885,-0.8885,-0.8885,-0.8885,-0.8885,-0.8885,-0.8885,-0.8885,-0.8885,0.0,0.0,0.0,0.0,0.0,0.0,0.0,0.0,0.0,0.0,0.0,0.0,0.0,0.0,0.0,0.0,0.0,0.0,0.0,0.0,-0.037,-0.1173,-0.0437,0.0,0.0,0.0,0.0,0.0,0.0,0.0,0.0,0.0,0.0,0.0,-0.0084,-0.1419,-0.3525,-0.2504,-0.3396,-0.5411,-0.4284,0.0,0.0,0.0,0.0,0.0,0.0,0.0,0.0,0.0,0.0,0.0,0.0,0.0,-0.7988,-0.7988,-0.7975,-0.7897,-0.7675,-0.7584,-0.7465,-0.6994,-0.6991,-0.7092,-0.7069,-0.7313,-0.7594,-0.7766,-0.7893,0.0,0.0,0.0,0.0,0.0,0.0,0.0,0.0,0.0,0.0,0.0,0.0,0.0,0.0,0.0,0.0,0.0,0.0,0.0,0.0,0.0,0.0,0.0,-0.4984,-0.5631,-0.7102,-0.6986,-0.7738,-0.9395,-0.9289,-0.9089,-0.8915,-0.8895,-0.8888,-0.8898,-0.8888,-0.8885,-0.8885,-0.8885,-0.8885,-0.8885,-0.8885,-0.8885,-0.8885,-0.8885,-0.8885,-0.8885,0.0,0.0,0.0,0.0,0.0,0.0,0.0,0.0,0.0,0.0,0.0,0.0,0.0,0.0,0.0,0.0,0.0,0.0,0.0,0.0,-0.0404,-0.1274,-0.0471,-0.024,-0.078,-0.0286,0.0,0.0,0.0,0.0,0.0,0.0,0.0,-0.0041,-0.0793,-0.1621,-0.25,-0.2799,-0.3464,-0.4235,-0.3763,-0.3663,0.0,0.0,0.0,0.0,0.0,0.0,0.0,0.0,-0.6299,-0.6819,-0.772,-0.7988,-0.7988,-0.7988,-0.7924,-0.7851,-0.7655,-0.7529,-0.7363,-0.7016,-0.701,-0.7122,-0.7091,-0.7372,-0.7651,-0.7763,-0.8022,0.0,0.0,0.0,0.0,0.0,0.0,0.0,0.0,0.0,0.0,0.0,0.0,0.0,0.0,0.0,0.0,0.0,0.0,0.0,0.0,0.0,0.0,0.0,-0.2324,-0.2633,-0.4217,-0.5,-0.6249,-0.7847,-0.8633,-0.8991,-0.8885,-0.8885,-0.8885,-0.8885,-0.8885,-0.8885,-0.8885,-0.8885,-0.8885,-0.8885,-0.8885,-0.8885,-0.8885,-0.8885,-0.8885,-0.8885,0.0,0.0,0.0,0.0,0.0,0.0,0.0,0.0,0.0,0.0,0.0,0.0,0.0,0.0,0.0,0.0,0.0,0.0,0.0,-0.0269,-0.0806,-0.1708,-0.1175,-0.1253,-0.2136,-0.1,-0.0258,0.0,0.0,0.0,0.0,0.0,0.0,-0.0041,-0.0876,-0.145,-0.1841,-0.2266,-0.2703,-0.3015,-0.2638,-0.2508,0.0,0.0,0.0,0.0,0.0,0.0,0.0,0.0,-0.5927,-0.6783,-0.7686,-0.7988,-0.7988,-0.7988,-0.788,-0.778,-0.7638,-0.7499,-0.7319,-0.7057,-0.7068,-0.7195,-0.724,-0.7482,-0.7785,-0.7968,-0.8197,-0.8388,-0.8435,0.0,0.0,0.0,0.0,0.0,0.0,0.0,0.0,0.0,0.0,0.0,0.0,0.0,0.0,0.0,0.0,0.0,0.0,0.0,0.0,0.0,-0.0548,-0.0776,-0.2408,-0.3762,-0.521,-0.6868,-0.8186,-0.8838,-0.8885,-0.8885,-0.8885,-0.8885,-0.8885,-0.8854,-0.8811,-0.8811,-0.8811,-0.8817,-0.8865,-0.8885,-0.8885,-0.8885,-0.8885,-0.8885,0.0,0.0,0.0,0.0,0.0,0.0,0.0,0.0,0.0,0.0,0.0,0.0,0.0,0.0,0.0,0.0,0.0,0.0,0.0,-0.0806,-0.1708,-0.2644,-0.2678,-0.3111,-0.3982,-0.2226,-0.0884,0.0,0.0,0.0,0.0,0.0,0.0,0.0,0.0,-0.0646,-0.17,-0.0494,-0.0673,-0.1663,-0.0469,0.0,0.0,0.0,0.0,0.0,0.0,0.0,0.0,0.0,-0.5772,-0.7988,-0.7988,-0.7988,-0.7988,-0.7988,-0.7884,-0.7784,-0.7641,-0.7522,-0.7348,-0.7146,-0.7233,-0.7453,-0.7553,-0.7783,-0.8109,-0.8423,-0.8528,-0.8438,-0.835,0.0,0.0,0.0,0.0,0.0,0.0,0.0,0.0,0.0,0.0,0.0,0.0,0.0,0.0,0.0,0.0,0.0,0.0,0.0,0.0,0.0,0.0,-0.0693,-0.218,-0.3502,-0.5028,-0.6694,-0.8053,-0.8788,-0.8881,-0.8881,-0.8878,-0.8878,-0.8881,-0.8849,-0.871,-0.871,-0.871,-0.8726,-0.8821,-0.8881,-0.8885,-0.8885,-0.8885,-0.8885,0.0,0.0,0.0,0.0,0.0,0.0,0.0,0.0,0.0,0.0,0.0,0.0,0.0,0.0,0.0,0.0,0.0,0.0,0.0,-0.0236,-0.1074,-0.2644,-0.2076,-0.2444,-0.3982,-0.2226,-0.0855,0.0,0.0,0.0,0.0,0.0,0.0,0.0,0.0,-0.0217,-0.0527,-0.0134,-0.0228,-0.0515,-0.0142,0.0,0.0,0.0,0.0,0.0,0.0,0.0,0.0,0.0,0.0,0.0,-0.7686,-0.7988,-0.7988,-0.7988,-0.7958,-0.7891,-0.779,-0.7651,0.0,-0.7348,0.0,0.0,0.0,-0.7829,-0.8137,0.0,-0.8565,-0.8503,-0.8567,0.0,0.0,0.0,0.0,0.0,0.0,0.0,0.0,0.0,0.0,0.0,0.0,0.0,0.0,0.0,0.0,0.0,0.0,0.0,0.0,0.0,0.0,-0.0213,-0.0639,-0.3027,-0.4466,-0.4971,-0.7422,-0.8628,-0.8777,-0.8777,-0.872,-0.8625,-0.873,-0.8693,-0.855,-0.855,-0.8615,-0.8716,-0.876,-0.8845,-0.8885,-0.8885,-0.8885,-0.8898,0.0,0.0,0.0,0.0,0.0,0.0,0.0,0.0,0.0,0.0,0.0,0.0,0.0,0.0,0.0,0.0,0.0,0.0,0.0,-0.0339,-0.1181,-0.2722,-0.2552,-0.2785,-0.355,-0.2504,-0.1318,0.0,0.0,0.0,0.0,0.0,0.0,0.0,0.0,0.0,0.0,0.0,0.0,0.0,0.0,0.0,0.0,0.0,0.0,0.0,0.0,0.0,0.0,0.0,0.0,0.0,-0.7739,-0.7988,-0.7978,-0.7917,-0.786,-0.7834,-0.7699,-0.7506,0.0,-0.7399,-0.7456,-0.7547,-0.7714,0.0,0.0,0.0,0.0,-0.8442,-0.8591,0.0,0.0,0.0,0.0,0.0,0.0,0.0,0.0,0.0,0.0,0.0,0.0,0.0,0.0,0.0,0.0,0.0,0.0,0.0,0.0,0.0,0.0,0.0,0.0,-0.2755,-0.4167,-0.425,-0.7081,-0.8445,-0.8537,-0.8594,-0.857,-0.8482,-0.852,-0.8482,-0.8404,-0.8459,-0.8503,-0.8554,-0.873,-0.8821,-0.8801,-0.8861,-0.8974,-0.9035,0.0,0.0,0.0,0.0,0.0,0.0,0.0,0.0,0.0,0.0,0.0,0.0,0.0,0.0,0.0,0.0,0.0,0.0,0.0,-0.0821,-0.1805,-0.2868,-0.3816,-0.3908,-0.294,-0.2905,-0.1948,0.0,0.0,0.0,0.0,0.0,0.0,0.0,0.0,0.0,0.0,0.0,0.0,0.0,0.0,0.0,0.0,0.0,0.0,0.0,0.0,0.0,0.0,0.0,0.0,0.0,-0.7988,-0.7988,-0.7961,-0.7872,-0.7729,-0.76,-0.7469,-0.7277,-0.7152,-0.7346,-0.749,0.0,-0.7941,-0.813,-0.8329,-0.8621,0.0,0.0,0.0,0.0,0.0,0.0,0.0,0.0,0.0,0.0,0.0,0.0,0.0,0.0,0.0,0.0,0.0,0.0,0.0,0.0,0.0,0.0,0.0,0.0,0.0,0.0,0.0,-0.2514,-0.39,0.0,-0.6799,-0.8095,-0.8098,-0.8346,-0.8462,-0.8455,-0.8206,-0.8153,-0.8279,-0.829,-0.827,-0.8313,-0.8733,-0.8821,-0.873,-0.8828,-0.9028,-0.921,0.0,0.0,0.0,0.0,0.0,0.0,0.0,0.0,0.0,0.0,0.0,0.0,0.0,0.0,0.0,0.0,0.0,0.0,0.0,-0.0975,-0.1928,-0.2877,-0.453,-0.467,-0.294,-0.2905,-0.1948,0.0,0.0,0.0,0.0,0.0,0.0,0.0,0.0,0.0,0.0,0.0,0.0,0.0,0.0,0.0,0.0,0.0,0.0,0.0,0.0,0.0,0.0,0.0,0.0,0.0,-0.7988,-0.7988,-0.7982,-0.7951,-0.7882,-0.7739,-0.7736,-0.7509,0.0,0.0,-0.7489,-0.7655,-0.7928,-0.8022,-0.8103,-0.833,0.0,0.0,0.0,0.0,0.0,0.0,0.0,0.0,0.0,0.0,0.0,0.0,0.0,0.0,0.0,0.0,0.0,0.0,0.0,0.0,0.0,0.0,0.0,0.0,0.0,0.0,0.0,-0.1611,-0.2469,0.0,-0.5205,-0.6472,-0.6525,-0.7782,-0.8368,-0.8255,-0.7033,-0.7187,-0.8211,-0.7047,-0.7214,-0.8344,-0.8499,-0.8632,-0.873,-0.8828,-0.9028,-0.9228,0.0,0.0,0.0,0.0,0.0,0.0,0.0,0.0,0.0,0.0,0.0,0.0,0.0,0.0,0.0,0.0,0.0,0.0,0.0,0.0,-0.2017,-0.2957,-0.4447,-0.4336,-0.2305,-0.228,-0.1518,0.0,0.0,0.0,0.0,0.0,0.0,0.0,0.0,0.0,0.0,0.0,0.0,0.0,0.0,0.0,0.0,0.0,0.0,-0.0252,-0.2314,0.0,0.0,0.0,0.0,0.0,0.0,0.0,-0.717,-0.7753,-0.7875,-0.778,-0.7648,0.0,0.0,-0.7492,0.0,-0.776,-0.7938,-0.7934,-0.7974,0.0,0.0,0.0,0.0,0.0,0.0,0.0,0.0,0.0,0.0,0.0,0.0,0.0,0.0,0.0,0.0,0.0,0.0,0.0,0.0,0.0,0.0,0.0,0.0,0.0,0.0,0.0,0.0,-0.131,-0.2013,-0.2013,-0.4069,-0.5022,-0.5072,-0.6547,-0.683,-0.6212,-0.5395,-0.5505,-0.6164,-0.5447,-0.5989,-0.7349,-0.7548,-0.81,-0.873,-0.8828,-0.9028,-0.9221,0.0,0.0,0.0,0.0,0.0,0.0,0.0,0.0,0.0,0.0,0.0,0.0,0.0,0.0,0.0,0.0,0.0,0.0,0.0,0.0,0.0,-0.3054,-0.3969,-0.3538,-0.1632,-0.1602,-0.1082,0.0,0.0,0.0,0.0,0.0,0.0,0.0,0.0,0.0,0.0,0.0,0.0,0.0,0.0,0.0,0.0,0.0,0.0,-0.0151,-0.1509,-0.2013,-0.2213,-0.3566,0.0,0.0,0.0,0.0,-0.6211,-0.7146,-0.7637,-0.7736,-0.7485,0.0,-0.7422,-0.7553,-0.7668,0.0,-0.7911,-0.7882,0.0,0.0,0.0,0.0,0.0,0.0,0.0,0.0,0.0,0.0,0.0,0.0,0.0,0.0,0.0,0.0,0.0,0.0,0.0,0.0,0.0,0.0,0.0,0.0,-0.01,-0.03,-0.01,0.0,0.0,-0.1107,-0.1661,-0.1661,-0.3015,-0.3665,-0.3715,-0.4822,-0.4822,-0.3966,-0.3765,-0.3765,-0.4021,-0.4135,-0.4982,-0.6287,-0.6786,-0.7693,-0.8693,-0.8817,-0.9028,-0.921,0.0,0.0,0.0,0.0,0.0,0.0,0.0,0.0,0.0,0.0,0.0,0.0,0.0,0.0,0.0,0.0,0.0,0.0,0.0,0.0,0.0,-0.3044,-0.3256,-0.2769,-0.1627,-0.1582,-0.1083,0.0,0.0,0.0,0.0,0.0,0.0,0.0,0.0,0.0,0.0,0.0,0.0,0.0,0.0,0.0,0.0,0.0,0.0,-0.0197,-0.1502,-0.2013,-0.2213,-0.3566,-0.4016,0.0,0.0,0.0,0.0,-0.6059,-0.6874,-0.7776,-0.7599,0.0,-0.7424,0.0,-0.7512,-0.7502,0.0,0.0,0.0,0.0,0.0,0.0,0.0,0.0,0.0,0.0,0.0,0.0,0.0,0.0,0.0,0.0,0.0,0.0,0.0,0.0,0.0,0.0,0.0,0.0,0.0,-0.0576,-0.048,-0.1535,-0.0537,0.0,0.0,-0.02,-0.0252,-0.0303,-0.1611,-0.2264,-0.2264,-0.2465,-0.3065,-0.3915,-0.2764,-0.2914,-0.4017,-0.4028,-0.4839,-0.6176,-0.766,-0.8351,-0.8547,-0.8832,-0.9028,-0.921,0.0,0.0,0.0,0.0,0.0,0.0,0.0,0.0,0.0,0.0,0.0,0.0,0.0,0.0,0.0,0.0,0.0,0.0,0.0,0.0,0.0,-0.2227,-0.2256,-0.1753,-0.0727,-0.0719,-0.0465,0.0,0.0,0.0,0.0,0.0,0.0,0.0,0.0,0.0,0.0,0.0,0.0,0.0,0.0,0.0,0.0,0.0,0.0,-0.0097,-0.0649,-0.0857,-0.0958,-0.1561,-0.1762,-0.1913,-0.2665,0.0,0.0,0.0,-0.6344,-0.6926,-0.7476,-0.7571,-0.7515,0.0,-0.7485,-0.7533,-0.7662,0.0,0.0,0.0,0.0,0.0,0.0,0.0,0.0,0.0,0.0,0.0,0.0,0.0,0.0,0.0,0.0,0.0,0.0,0.0,0.0,0.0,0.0,0.0,-0.2755,-0.1665,-0.1238,-0.1761,-0.0625,0.0,0.0,0.0,0.0,0.0,-0.0605,-0.0857,-0.0857,-0.0857,-0.1209,-0.1712,-0.1159,-0.1662,-0.2864,-0.2864,-0.4221,-0.6329,-0.7113,-0.794,-0.8754,-0.8834,-0.8977,-0.9032,0.0,0.0,0.0,0.0,0.0,0.0,0.0,0.0,0.0,0.0,0.0,0.0,0.0,0.0,0.0,0.0,0.0,0.0,0.0,0.0,0.0,-0.1187,-0.1206,-0.0809,0.0,0.0,0.0,0.0,0.0,0.0,0.0,0.0,0.0,0.0,0.0,0.0,0.0,0.0,0.0,0.0,0.0,0.0,0.0,0.0,0.0,0.0,0.0,0.0,0.0,0.0,0.0,-0.0151,-0.1159,0.0,0.0,0.0,0.0,0.0,0.0,0.0,-0.7611,-0.7495,-0.7485,-0.7543,0.0,0.0,0.0,0.0,0.0,0.0,0.0,0.0,0.0,0.0,0.0,0.0,0.0,0.0,0.0,0.0,0.0,0.0,0.0,0.0,0.0,0.0,0.0,0.0,-0.3973,-0.2622,-0.1921,-0.2248,-0.0801,0.0,0.0,0.0,0.0,0.0,0.0,0.0,0.0,-0.0353,-0.0303,0.0,-0.0353,-0.1058,-0.2063,-0.2715,-0.434,-0.6438,-0.6868,-0.7758,-0.8832,-0.8854,-0.8885,-0.8885,0.0,0.0,0.0,0.0,0.0,0.0,0.0,0.0,0.0,0.0,0.0,0.0,0.0,0.0,0.0,0.0,0.0,-0.0038,-0.0076,-0.0078,-0.008,-0.0084,-0.0084,0.0,0.0,0.0,0.0,0.0,0.0,0.0,0.0,0.0,0.0,0.0,0.0,0.0,0.0,0.0,0.0,0.0,0.0,0.0,0.0,0.0,0.0,0.0,0.0,0.0,0.0,0.0,0.0,0.0,-0.0101,0.0,0.0,0.0,0.0,0.0,0.0,-0.7801,0.0,-0.7634,-0.7485,0.0,0.0,0.0,0.0,0.0,0.0,0.0,0.0,0.0,0.0,0.0,0.0,0.0,0.0,0.0,0.0,0.0,0.0,0.0,0.0,0.0,0.0,0.0,0.0,0.0,-0.5196,-0.3094,-0.2333,-0.3448,-0.1235,0.0,0.0,0.0,0.0,0.0,0.0,0.0,-0.0051,-0.131,-0.1209,-0.005,-0.136,-0.1913,-0.2213,-0.4722,-0.5884,-0.6168,-0.7794,-0.8437,-0.854,-0.8832,-0.8885,-0.8885,0.0,0.0,0.0,0.0,0.0,0.0,0.0,0.0,0.0,0.0,0.0,0.0,0.0,0.0,0.0,0.0,0.0,0.0,0.0,0.0,0.0,0.0,0.0,0.0,0.0,0.0,0.0,0.0,0.0,0.0,0.0,0.0,0.0,0.0,0.0,0.0,0.0,0.0,0.0,0.0,0.0,0.0,0.0,0.0,0.0,0.0,0.0,0.0,0.0,0.0,0.0,0.0,0.0,0.0,0.0,0.0,0.0,0.0,0.0,0.0,0.0,-0.7617,-0.756,0.0,0.0,0.0,0.0,0.0,0.0,0.0,0.0,0.0,0.0,0.0,0.0,0.0,0.0,0.0,0.0,0.0,0.0,0.0,0.0,0.0,0.0,0.0,0.0,0.0,-0.6425,-0.4239,-0.317,-0.357,-0.1263,0.0,0.0,0.0,0.0,0.0,-0.0857,-0.126,-0.131,-0.2665,-0.2564,-0.136,-0.2715,-0.3265,-0.3416,-0.5225,-0.6578,-0.7537,-0.8245,-0.854,-0.8655,-0.8807,-0.8885,-0.8885,0.0,0.0,0.0,0.0,0.0,0.0,0.0,0.0,0.0,0.0,0.0,0.0,0.0,0.0,0.0,0.0,0.0,0.0,0.0,0.0,0.0,0.0,0.0,0.0,0.0,0.0,0.0,0.0,0.0,0.0,0.0,0.0,0.0,0.0,0.0,0.0,0.0,0.0,0.0,0.0,0.0,0.0,0.0,0.0,0.0,0.0,0.0,0.0,0.0,0.0,0.0,0.0,0.0,0.0,-0.0252,-0.1613,-0.3268,-0.4814,-0.5663,0.0,0.0,0.0,0.0,0.0,0.0,0.0,0.0,0.0,0.0,0.0,0.0,0.0,0.0,0.0,0.0,0.0,0.0,0.0,0.0,0.0,0.0,0.0,0.0,0.0,0.0,0.0,0.0,0.0,-0.6473,-0.4685,-0.3215,-0.2413,-0.0858,0.0,0.0,0.0,-0.0251,-0.0706,-0.1561,-0.2213,-0.2715,-0.4067,-0.3717,-0.2113,-0.3917,-0.4168,-0.3466,-0.5275,-0.6581,-0.7594,-0.8248,-0.8543,-0.8659,-0.8807,-0.8885,-0.8885,0.0,0.0,0.0,0.0,0.0,0.0,0.0,0.0,0.0,0.0,0.0,0.0,0.0,0.0,0.0,0.0,0.0,0.0,0.0,0.0,0.0,0.0,0.0,0.0,0.0,0.0,0.0,0.0,0.0,0.0,0.0,0.0,0.0,0.0,0.0,0.0,0.0,0.0,0.0,0.0,0.0,0.0,0.0,0.0,0.0,0.0,0.0,0.0,0.0,0.0,0.0,0.0,0.0,0.0,-0.0253,-0.1566,-0.1971,-0.2574,0.0,0.0,0.0,0.0,0.0,0.0,0.0,0.0,0.0,0.0,0.0,0.0,0.0,0.0,0.0,0.0,0.0,0.0,0.0,0.0,0.0,0.0,0.0,0.0,0.0,0.0,0.0,0.0,0.0,-0.5403,-0.5403,-0.4241,-0.2458,-0.009,0.0,0.0,0.0,-0.0049,-0.0693,-0.2013,-0.2063,-0.2815,-0.4116,-0.5425,-0.4622,-0.2264,-0.4824,-0.4422,-0.2213,-0.4874,-0.5982,-0.6158,-0.7791,-0.8486,-0.8526,-0.8828,-0.8885,-0.8885,0.0,0.0,0.0,0.0,0.0,0.0,0.0,0.0,0.0,0.0,0.0,0.0,0.0,0.0,0.0,0.0,0.0,0.0,0.0,0.0,0.0,0.0,0.0,0.0,0.0,0.0,0.0,0.0,0.0,0.0,0.0,0.0,0.0,0.0,0.0,0.0,0.0,0.0,0.0,0.0,0.0,0.0,0.0,0.0,0.0,0.0,0.0,0.0,0.0,0.0,0.0,0.0,0.0,0.0,-0.0051,-0.0455,-0.1261,-0.2166,-0.2917,0.0,0.0,0.0,0.0,0.0,0.0,0.0,0.0,0.0,0.0,0.0,0.0,0.0,0.0,0.0,0.0,0.0,0.0,0.0,0.0,0.0,0.0,0.0,0.0,0.0,0.0,0.0,-0.5403,-0.5403,-0.5403,-0.3439,-0.1612,-0.0045,0.0,0.0,0.0,-0.0984,-0.1653,-0.2013,-0.3969,-0.5072,-0.5475,-0.683,-0.6531,-0.4872,-0.467,-0.3566,-0.2113,-0.3867,-0.5212,-0.6261,-0.6829,-0.7693,-0.8672,-0.8811,-0.8885,-0.8885,0.0,0.0,0.0,0.0,0.0,0.0,0.0,0.0,0.0,0.0,0.0,0.0,0.0,0.0,0.0,0.0,0.0,0.0,0.0,0.0,0.0,0.0,0.0,0.0,0.0,0.0,0.0,0.0,0.0,0.0,0.0,0.0,0.0,0.0,0.0,0.0,0.0,0.0,0.0,0.0,0.0,0.0,0.0,0.0,0.0,0.0,0.0,0.0,0.0,0.0,0.0,0.0,0.0,0.0,0.0,0.0,-0.0555,-0.131,-0.1862,-0.3116,-0.4622,0.0,0.0,0.0,0.0,-0.7658,0.0,0.0,0.0,0.0,0.0,0.0,0.0,0.0,0.0,0.0,0.0,0.0,0.0,0.0,0.0,0.0,0.0,0.0,0.0,0.0,-0.5669,-0.4956,-0.3931,-0.2103,-0.0718,0.0,0.0,-0.0286,-0.081,-0.1631,-0.2565,-0.3668,-0.5275,-0.6279,-0.6883,-0.7637,-0.698,-0.5122,-0.4318,-0.2914,-0.121,-0.203,-0.3529,-0.5478,-0.621,-0.7396,-0.873,-0.8828,-0.8885,-0.8892,0.0,0.0,0.0,0.0,0.0,0.0,0.0,0.0,0.0,0.0,0.0,0.0,0.0,0.0,0.0,0.0,0.0,0.0,0.0,0.0,0.0,0.0,0.0,0.0,0.0,0.0,0.0,0.0,0.0,0.0,0.0,0.0,0.0,0.0,0.0,0.0,0.0,0.0,0.0,0.0,0.0,0.0,0.0,0.0,0.0,0.0,0.0,0.0,0.0,0.0,0.0,0.0,0.0,0.0,0.0,0.0,0.0,-0.0252,-0.146,-0.1862,-0.2565,-0.4974,0.0,0.0,-0.7225,-0.7553,-0.7567,0.0,0.0,0.0,0.0,0.0,0.0,0.0,0.0,0.0,0.0,0.0,0.0,0.0,0.0,0.0,0.0,0.0,-0.5935,-0.683,-0.5714,-0.402,-0.1701,-0.0584,0.0,0.0,-0.014,-0.081,-0.1999,-0.2272,-0.362,-0.5979,-0.6129,-0.6833,-0.7988,-0.7839,-0.6476,-0.4216,-0.3915,-0.2414,-0.0202,-0.0052,-0.1555,-0.4098,-0.549,-0.704,-0.8476,-0.8611,-0.8771,-0.8905,0.0,0.0,0.0,0.0,0.0,0.0,0.0,0.0,0.0,0.0,0.0,0.0,0.0,0.0,0.0,0.0,0.0,0.0,0.0,0.0,0.0,0.0,0.0,0.0,0.0,0.0,0.0,0.0,0.0,0.0,0.0,0.0,0.0,0.0,0.0,0.0,0.0,0.0,0.0,0.0,0.0,0.0,0.0,0.0,0.0,0.0,0.0,0.0,0.0,0.0,0.0,0.0,0.0,0.0,0.0,0.0,0.0,0.0,0.0,0.0,0.0,0.0,0.0,0.0,-0.6273,-0.7156,-0.7853,0.0,0.0,0.0,0.0,0.0,0.0,0.0,0.0,0.0,0.0,0.0,0.0,0.0,0.0,0.0,0.0,0.0,-0.6473,-0.5802,-0.3708,-0.188,-0.0449,-0.0135,0.0,0.0,-0.1026,-0.1714,-0.1999,-0.4144,-0.5477,-0.6029,-0.7083,-0.7739,-0.7939,-0.6883,-0.6129,-0.5475,-0.3317,-0.2113,-0.1513,-0.0463,-0.1046,-0.2594,-0.291,-0.4709,-0.7116,-0.7138,-0.7875,-0.8905,0.0,0.0,0.0,0.0,0.0,0.0,0.0,0.0,0.0,0.0,0.0,0.0,0.0,0.0,0.0,0.0,0.0,0.0,0.0,0.0,0.0,0.0,0.0,0.0,0.0,0.0,0.0,0.0,0.0,0.0,0.0,0.0,0.0,0.0,0.0,0.0,0.0,0.0,0.0,0.0,0.0,0.0,0.0,0.0,0.0,0.0,0.0,0.0,0.0,0.0,0.0,0.0,0.0,0.0,0.0,0.0,0.0,0.0,0.0,0.0,0.0,-0.1812,0.0,0.0,0.0,-0.54,-0.586,0.0,0.0,0.0,0.0,0.0,0.0,0.0,0.0,0.0,0.0,0.0,0.0,0.0,0.0,0.0,0.0,0.0,-0.6381,-0.4641,-0.2816,-0.1254,-0.0045,0.0,0.0,0.0,-0.0653,-0.1665,-0.2994,-0.4339,-0.5675,-0.6983,-0.7686,-0.7637,-0.6983,-0.6331,-0.5275,-0.392,-0.2565,-0.1611,-0.096,-0.026,-0.0423,-0.1226,-0.2763,-0.4733,-0.6813,-0.7537,-0.8266,-0.8905,0.0,0.0,0.0,0.0,0.0,0.0,0.0,0.0,0.0,0.0,0.0,0.0,0.0,0.0,0.0,0.0,0.0,0.0,0.0,0.0,0.0,0.0,0.0,0.0,0.0,0.0,0.0,0.0,0.0,0.0,0.0,0.0,0.0,0.0,0.0,0.0,0.0,0.0,0.0,0.0,0.0,0.0,0.0,0.0,0.0,0.0,0.0,0.0,0.0,0.0,0.0,0.0,0.0,0.0,0.0,0.0,0.0,0.0,0.0,0.0,0.0,0.0,0.0,-0.2255,0.0,0.0,0.0,0.0,0.0,0.0,0.0,0.0,0.0,0.0,0.0,0.0,0.0,0.0,0.0,0.0,0.0,0.0,0.0,0.0,-0.5691,-0.3749,-0.2281,-0.1031,-0.0045,0.0,0.0,0.0,-0.0513,-0.1807,-0.3987,-0.4534,-0.5872,-0.7988,-0.7988,-0.7437,-0.6379,-0.5827,-0.4422,-0.2363,-0.1862,-0.101,0.0,0.0,-0.016,-0.0644,-0.3102,-0.4968,-0.6478,-0.7931,-0.8657,-0.8908,0.0,0.0,0.0,0.0,0.0,0.0,0.0,0.0,0.0,0.0,0.0,0.0,0.0,0.0,0.0,0.0,0.0,0.0,0.0,0.0,0.0,0.0,0.0,0.0,0.0,0.0,0.0,0.0,0.0,0.0,0.0,0.0,0.0,0.0,0.0,0.0,0.0,0.0,0.0,0.0,0.0,0.0,0.0,0.0,0.0,0.0,0.0,0.0,0.0,0.0,0.0,0.0,0.0,0.0,0.0,0.0,0.0,0.0,0.0,0.0,0.0,0.0,-0.1109,0.0,0.0,0.0,0.0,0.0,0.0,0.0,0.0,0.0,0.0,0.0,0.0,0.0,0.0,0.0,0.0,0.0,0.0,0.0,0.0,0.0,0.0,-0.3619,-0.1478,-0.0135,0.0,0.0,0.0,0.0,-0.2329,-0.3703,-0.3987,-0.6358,-0.7686,-0.7988,-0.7988,-0.7939,-0.7686,-0.532,-0.4066,-0.3615,-0.126,-0.0153,0.0,0.0,-0.0753,-0.1962,-0.2327,-0.3402,-0.4916,-0.6422,-0.7762,-0.8925,0.0,0.0,0.0,0.0,0.0,0.0,0.0,0.0,0.0,0.0,0.0,0.0,0.0,0.0,0.0,0.0,0.0,0.0,0.0,0.0,0.0,0.0,0.0,0.0,0.0,0.0,0.0,0.0,0.0,0.0,0.0,0.0,0.0,0.0,0.0,0.0,0.0,0.0,0.0,0.0,0.0,0.0,0.0,0.0,0.0,0.0,0.0,0.0,0.0,0.0,0.0,0.0,0.0,0.0,0.0,0.0,0.0,0.0,0.0,0.0,0.0,0.0,0.0,0.0,-0.0857,0.0,-0.1661,0.0,0.0,0.0,0.0,0.0,0.0,0.0,0.0,0.0,0.0,0.0,0.0,0.0,0.0,0.0,0.0,0.0,0.0,0.0,0.0,0.0,0.0,0.0,-0.0361,-0.1141,-0.225,-0.3582,-0.5163,-0.6295,-0.7235,-0.7988,-0.7988,-0.7587,-0.6783,-0.5675,-0.432,-0.2765,-0.1662,-0.1222,-0.1297,-0.1268,-0.2149,-0.3604,-0.4493,-0.5192,-0.5975,-0.7426,-0.8377,-0.8912,0.0,0.0,0.0,0.0,0.0,0.0,0.0,0.0,0.0,0.0,0.0,0.0,0.0,0.0,0.0,0.0,0.0,0.0,0.0,0.0,0.0,0.0,0.0,0.0,0.0,0.0,0.0,0.0,0.0,0.0,0.0,0.0,0.0,0.0,0.0,0.0,0.0,0.0,0.0,0.0,0.0,0.0,0.0,0.0,0.0,0.0,0.0,0.0,0.0,0.0,0.0,0.0,0.0,0.0,0.0,0.0,0.0,0.0,0.0,0.0,0.0,0.0,0.0,0.0,0.0,0.0,0.0,0.0,0.0,0.0,0.0,0.0,0.0,0.0,0.0,0.0,0.0,0.0,0.0,0.0,0.0,0.0,0.0,0.0,0.0,0.0,-0.2148,-0.0986,-0.0986,-0.0677,-0.1093,-0.2444,-0.2508,-0.3663,-0.5958,-0.6372,-0.7033,-0.7988,-0.7988,-0.7487,-0.6531,-0.6179,-0.4722,-0.2564,-0.2564,-0.2396,-0.2244,-0.259,-0.3658,-0.5215,-0.628,-0.6924,-0.7426,-0.8491,-0.8908,-0.9018,0.0,0.0,0.0,0.0,0.0,0.0,0.0,0.0,0.0,0.0,0.0,0.0,0.0,0.0,0.0,0.0,0.0,0.0,0.0,0.0,0.0,0.0,0.0,0.0,0.0,0.0,0.0,0.0,0.0,0.0,0.0,0.0,0.0,0.0,0.0,0.0,0.0,0.0,0.0,0.0,0.0,0.0,0.0,0.0,0.0,0.0,0.0,0.0,0.0,0.0,0.0,0.0,0.0,0.0,0.0,0.0,0.0,0.0,0.0,0.0,0.0,0.0,0.0,0.0,0.0,0.0,0.0,0.0,0.0,0.0,0.0,0.0,-0.2051,-0.1967,-0.4103,0.0,0.0,0.0,0.0,0.0,0.0,0.0,0.0,0.0,0.0,-0.5374,-0.4194,-0.3481,-0.3481,-0.2371,-0.2351,-0.3684,-0.3878,-0.459,-0.6007,-0.7267,-0.7939,-0.7988,-0.7988,-0.7988,-0.7889,-0.6581,-0.5222,-0.3915,-0.3915,-0.3283,-0.2284,-0.3608,-0.5142,-0.6642,-0.67,-0.7595,-0.8826,-0.8881,-0.9025,-0.9224,0.0,0.0,0.0,0.0,0.0,0.0,0.0,0.0,0.0,0.0,0.0,0.0,0.0,0.0,0.0,0.0,0.0,0.0,0.0,0.0,0.0,0.0,0.0,0.0,0.0,0.0,0.0,0.0,0.0,0.0,0.0,0.0,0.0,0.0,0.0,0.0,0.0,0.0,0.0,0.0,0.0,0.0,0.0,0.0,0.0,0.0,0.0,0.0,0.0,0.0,0.0,0.0,0.0,0.0,0.0,0.0,0.0,0.0,0.0,0.0,0.0,0.0,0.0,0.0,0.0,0.0,0.0,0.0,0.0,0.0,0.0,0.0,-0.1257,-0.299,-0.3941,-0.5054,0.0,0.0,0.0,0.0,0.0,0.0,0.0,0.0,0.0,-0.5676,-0.4396,-0.3659,0.0,-0.3376,-0.3776,-0.5215,-0.5287,-0.5945,-0.7313,-0.7763,-0.7988,-0.7988,-0.7988,-0.7988,-0.7988,-0.7537,-0.6581,-0.5322,-0.5322,-0.5143,-0.4952,-0.5485,-0.6613,-0.8025,-0.8118,-0.8546,-0.9069,-0.8974,-0.9028,-0.9248,0.0,0.0,0.0,0.0,0.0,0.0,0.0,0.0,0.0,0.0,0.0,0.0,0.0,0.0,0.0,0.0,0.0,0.0,0.0,0.0,0.0,0.0,0.0,0.0,0.0,0.0,0.0,0.0,0.0,0.0,0.0,0.0,0.0,0.0,0.0,0.0,0.0,0.0,0.0,0.0,0.0,0.0,0.0,0.0,0.0,0.0,0.0,0.0,0.0,0.0,0.0,0.0,0.0,0.0,0.0,0.0,0.0,0.0,0.0,0.0,0.0,0.0,0.0,0.0,0.0,0.0,0.0,0.0,0.0,0.0,0.0,0.0,-0.0555,-0.2314,-0.3283,-0.4771,0.0,-0.7733,0.0,0.0,0.0,0.0,0.0,0.0,-0.6478,-0.6389,-0.5535,-0.5078,0.0,0.0,-0.5185,-0.6586,-0.6244,-0.6651,-0.7988,-0.7988,-0.7988,-0.7988,-0.7988,-0.7988,-0.7988,-0.7988,-0.7285,-0.6032,-0.6578,-0.6664,-0.6417,-0.7012,-0.7895,-0.8801,-0.8844,-0.8994,-0.9072,-0.9028,-0.9144,-0.9344,0.0,0.0,0.0,0.0,0.0,0.0,0.0,0.0,0.0,0.0,0.0,0.0,0.0,0.0,0.0,0.0,0.0,0.0,0.0,0.0,0.0,0.0,0.0,0.0,0.0,0.0,0.0,0.0,0.0,0.0,0.0,0.0,0.0,0.0,0.0,0.0,0.0,0.0,0.0,0.0,0.0,0.0,0.0,0.0,0.0,0.0,0.0,0.0,0.0,0.0,0.0,0.0,0.0,0.0,0.0,0.0,0.0,0.0,0.0,0.0,0.0,0.0,0.0,0.0,0.0,0.0,0.0,0.0,0.0,0.0,0.0,0.0,0.0,-0.0101,-0.2314,-0.4837,0.0,0.0,0.0,0.0,0.0,0.0,0.0,0.0,-0.7699,-0.747,-0.7526,-0.7607,0.0,0.0,-0.6494,-0.7773,-0.6717,-0.6731,-0.7988,-0.7988,-0.7988,-0.7988,-0.7988,-0.7988,-0.7988,-0.7988,-0.7288,-0.6195,-0.7642,-0.7671,-0.6687,-0.8107,-0.8798,-0.8871,-0.8878,-0.8888,-0.8912,-0.9113,-0.9347,-0.9602,0.0,0.0,0.0,0.0,0.0,0.0,0.0,0.0,0.0,0.0,0.0,0.0,0.0,0.0,0.0,0.0,0.0,0.0,0.0,0.0,0.0,0.0,0.0,0.0,0.0,0.0,0.0,0.0,0.0,0.0,0.0,0.0,0.0,0.0,0.0,0.0,0.0,0.0,0.0,0.0,0.0,0.0,0.0,0.0,0.0,0.0,0.0,0.0,0.0,0.0,0.0,0.0,0.0,0.0,0.0,0.0,0.0,0.0,0.0,0.0,0.0,0.0,0.0,0.0,0.0,0.0,0.0,0.0,0.0,0.0,0.0,0.0,0.0,-0.131,-0.2914,-0.4209,0.0,0.0,0.0,0.0,0.0,0.0,0.0,0.0,-0.7828,-0.7865,-0.7702,0.0,0.0,0.0,0.0,-0.7928,-0.7667,-0.7637,-0.7988,-0.7988,-0.7988,-0.7988,-0.7988,-0.7988,-0.7988,-0.7988,-0.7899,-0.775,-0.815,-0.8195,-0.8016,-0.8485,-0.8733,-0.8781,-0.8841,-0.9005,-0.9117,-0.9266,-0.9371,-0.9469,0.0,0.0,0.0,0.0,0.0,0.0,0.0,0.0,0.0,0.0,0.0,0.0,0.0,0.0,0.0,0.0,0.0,0.0,0.0,0.0,0.0,0.0,0.0,0.0,0.0,0.0,0.0,0.0,0.0,0.0,0.0,0.0,0.0,0.0,0.0,0.0,0.0,0.0,0.0,0.0,0.0,0.0,0.0,0.0,0.0,0.0,0.0,0.0,0.0,0.0,0.0,0.0,0.0,0.0,0.0,0.0,0.0,0.0,0.0,0.0,0.0,0.0,0.0,0.0,0.0,0.0,0.0,0.0,0.0,0.0,0.0,0.0,0.0,0.0,0.0,0.0,0.0,0.0,0.0,0.0,0.0,0.0,0.0,0.0,0.0,0.0,0.0,0.0,0.0,0.0,0.0,-0.7985,-0.7988,-0.7988,-0.7988,-0.7988,-0.7988,-0.7988,-0.7988,-0.7988,-0.7988,-0.7988,-0.8126,-0.8327,-0.8388,-0.8445,-0.8594,-0.8747,-0.8811,-0.8818,-0.8851,-0.9025,-0.9228,-0.9323,-0.9422,-0.9503,0.0,0.0,0.0,0.0,0.0,0.0,0.0,0.0,0.0,0.0,0.0,0.0,0.0,0.0,0.0,0.0,0.0,0.0,0.0,0.0,0.0,0.0,0.0,0.0,0.0,0.0,0.0,0.0,0.0,0.0,0.0,0.0,0.0,0.0,0.0,0.0,0.0,0.0,0.0,0.0,0.0,0.0,0.0,0.0,0.0,0.0,0.0,0.0,0.0,0.0,0.0,0.0,0.0,0.0,0.0,0.0,0.0,0.0,0.0,0.0,0.0,0.0,0.0,0.0,0.0,0.0,0.0,0.0,0.0,0.0,0.0,0.0,0.0,0.0,0.0,0.0,0.0,0.0,0.0,0.0,0.0,0.0,0.0,0.0,0.0,0.0,0.0,0.0,0.0,0.0,0.0,-0.7988,-0.7988,0.0,-0.7988,0.0,-0.7988,-0.7988,-0.7988,-0.7889,-0.7739,-0.7739,-0.7878,-0.8097,-0.8164,-0.8418,-0.875,-0.8828,-0.8885,-0.8885,-0.8885,-0.9025,-0.9228,-0.9323,-0.9479,-0.9612,0.0,0.0,0.0,0.0,0.0,0.0,0.0,0.0,0.0,0.0,0.0,0.0,0.0,0.0,0.0,0.0,0.0,0.0,0.0,0.0,0.0,0.0,0.0,0.0,0.0,0.0,0.0,0.0,0.0,0.0,0.0,0.0,0.0,0.0,0.0,0.0,0.0,0.0,0.0,0.0,0.0,0.0,0.0,0.0,0.0,0.0,0.0,0.0,0.0,0.0,0.0,0.0,0.0,0.0,0.0,0.0,0.0,0.0,0.0,0.0,0.0,0.0,0.0,0.0,0.0,0.0,0.0,0.0,0.0,0.0,0.0,0.0,0.0,0.0,0.0,0.0,0.0,0.0,0.0,0.0,0.0,0.0,0.0,0.0,0.0,0.0,0.0,0.0,0.0,0.0,0.0,0.0,0.0,0.0,0.0,0.0,-0.7988,-0.7988,-0.7988,-0.7434,-0.6329,-0.6329,-0.6497,-0.6807,-0.6829,-0.7612,-0.8844,-0.8871,-0.8885,-0.8885,-0.8885,-0.9025,-0.9228,-0.9323,-0.9479,-0.9625,0.0,0.0,0.0,0.0,0.0,0.0,0.0,0.0,0.0,0.0,0.0,0.0,0.0,0.0,0.0,0.0,0.0,0.0,0.0,0.0,0.0,0.0,0.0,0.0,0.0,0.0,0.0,0.0,0.0,0.0,0.0,0.0,0.0,0.0,0.0,0.0,0.0,0.0,0.0,0.0,0.0,0.0,0.0,0.0,0.0,0.0,0.0,0.0,0.0,0.0,0.0,0.0,0.0,0.0,0.0,0.0,0.0,0.0,0.0,0.0,0.0,0.0,0.0,0.0,0.0,0.0,0.0,0.0,0.0,0.0,0.0,0.0,0.0,0.0,0.0,0.0,0.0,0.0,0.0,0.0,0.0,0.0,0.0,0.0,0.0,0.0,0.0,0.0,0.0,0.0,0.0,0.0,0.0,0.0,0.0,0.0,0.0,-0.7988,-0.7988,-0.7686,-0.7033,-0.7033,-0.7226,-0.7527,-0.7527,-0.8059,-0.883,-0.81,-0.8211,-0.8833,-0.8115,-0.8452,-0.9347,-0.9442,-0.9591,-0.973,0.0,0.0,0.0,0.0,0.0,0.0,0.0,0.0,0.0,0.0,0.0,0.0,0.0,0.0,0.0,0.0,0.0,0.0,0.0,0.0,0.0,0.0,0.0,0.0,0.0,0.0,0.0,0.0,0.0,0.0,0.0,0.0,0.0,0.0,0.0,0.0,0.0,0.0,0.0,0.0,0.0,0.0,0.0,0.0,0.0,0.0,0.0,0.0,0.0,0.0,0.0,0.0,0.0,0.0,0.0,0.0,0.0,0.0,0.0,0.0,0.0,0.0,0.0,0.0,0.0,0.0,0.0,0.0,0.0,0.0,0.0,0.0,0.0,0.0,0.0,0.0,0.0,0.0,0.0,0.0,0.0,0.0,0.0,0.0,0.0,0.0,0.0,0.0,0.0,0.0,0.0,0.0,0.0,-0.7988,-0.7988,0.0,-0.7988,0.0,-0.7988,-0.7852,-0.7629,-0.7629,-0.7833,-0.8104,-0.8104,-0.8414,-0.8771,-0.7315,-0.761,-0.8827,-0.7452,-0.793,-0.9445,-0.9564,-0.97,-0.9822,0.0,0.0,0.0,0.0,0.0,0.0,0.0,0.0,0.0,0.0,0.0,0.0,0.0,0.0,0.0,0.0,0.0,0.0,0.0,0.0,0.0,0.0,0.0,0.0,0.0,0.0,0.0,0.0,0.0,0.0,0.0,0.0,0.0,0.0,0.0,0.0,0.0,0.0,0.0,0.0,0.0,0.0,0.0,0.0,0.0,0.0,0.0,0.0,0.0,0.0,0.0,0.0,0.0,0.0,0.0,0.0,0.0,0.0,0.0,0.0,0.0,0.0,0.0,0.0,0.0,0.0,0.0,0.0,0.0,0.0,0.0,0.0,0.0,0.0,0.0,0.0,0.0,0.0,0.0,0.0,0.0,0.0,0.0,0.0,0.0,0.0,0.0,0.0,0.0,0.0,0.0,-0.7988,0.0,-0.7988,-0.7988,-0.7988,0.0,-0.7988,-0.7988,-0.7447,-0.6481,-0.6481,-0.6615,-0.6897,-0.6897,-0.7629,-0.8771,-0.7315,-0.7659,-0.902,-0.7485,-0.7985,-0.9591,-0.9605,-0.97,-0.9822,0.0,0.0,0.0,0.0,0.0,0.0,0.0,0.0,0.0,0.0,0.0,0.0,0.0,0.0,0.0,0.0,0.0,0.0,0.0,0.0,0.0,0.0,0.0,0.0,0.0,0.0,0.0,0.0,0.0,0.0,0.0,0.0,0.0,0.0,0.0,0.0,0.0,0.0,0.0,0.0,0.0,0.0,0.0,0.0,0.0,0.0,0.0,0.0,0.0,0.0,0.0,0.0,0.0,0.0,0.0,0.0,0.0,0.0,0.0,0.0,0.0,0.0,0.0,0.0,0.0,0.0,0.0,0.0,0.0,0.0,0.0,0.0,0.0,0.0,0.0,0.0,0.0,0.0,0.0,0.0,0.0,0.0,0.0,0.0,0.0,0.0,0.0,0.0,0.0,0.0,0.0,-0.7988,0.0,-0.7988,-0.7988,-0.7988,-0.8085,-0.8177,-0.8177,-0.7993,-0.7602,-0.7602,-0.7709,-0.7897,-0.798,-0.788,-0.7482,-0.5975,-0.6371,-0.7669,-0.6242,-0.7296,-0.9618,-0.9703,-0.9771,-0.9822,0.0,0.0,0.0,0.0,0.0,0.0,0.0,0.0,0.0,0.0,0.0,0.0,0.0,0.0,0.0,0.0,0.0,0.0,0.0,0.0,0.0,0.0,0.0,0.0,0.0,0.0,0.0,0.0,0.0,0.0,0.0,0.0,0.0,0.0,0.0,0.0,0.0,0.0,0.0,0.0,0.0,0.0,0.0,0.0,0.0,0.0,0.0,0.0,0.0,0.0,0.0,0.0,0.0,0.0,0.0,0.0,0.0,0.0,0.0,0.0,0.0,0.0,0.0,0.0,0.0,0.0,0.0,0.0,0.0,0.0,0.0,0.0,0.0,0.0,0.0,0.0,0.0,0.0,0.0,0.0,0.0,-0.0353,-0.131,0.0,0.0,0.0,0.0,0.0,0.0,0.0,0.0,0.0,0.0,0.0,0.0,-0.8085,-0.8163,-0.8323,-0.8364,-0.8408,-0.855,-0.8598,-0.8676,-0.8784,-0.8838,-0.8045,-0.6591,-0.511,-0.5451,-0.6807,-0.5455,-0.6852,-0.9683,-0.9785,-0.9822,-0.9822,0.0,0.0,0.0,0.0,0.0,0.0,0.0,0.0,0.0,0.0,0.0,0.0,0.0,0.0,0.0,0.0,0.0,0.0,0.0,0.0,0.0,0.0,0.0,0.0,0.0,0.0,0.0,0.0,0.0,0.0,0.0,0.0,0.0,0.0,0.0,0.0,0.0,0.0,0.0,0.0,0.0,0.0,0.0,0.0,0.0,0.0,0.0,0.0,0.0,0.0,0.0,0.0,0.0,0.0,0.0,0.0,0.0,0.0,0.0,0.0,0.0,0.0,0.0,0.0,0.0,0.0,0.0,0.0,0.0,0.0,0.0,0.0,0.0,0.0,0.0,0.0,0.0,0.0,0.0,0.0,0.0,0.0,0.0,0.0,0.0,0.0,0.0,0.0,0.0,0.0,0.0,-0.7988,-0.7988,0.0,-0.7988,-0.8191,-0.832,-0.8323,-0.8414,-0.856,-0.8713,-0.8811,-0.8878,-0.8881,-0.8885,-0.8045,-0.6596,-0.5111,-0.5541,-0.6922,-0.5487,-0.6902,-0.9819,-0.9822,-0.9822,-0.9822,0.0,0.0,0.0,0.0,0.0,0.0,0.0,0.0,0.0,0.0,0.0,0.0,0.0,0.0,0.0,0.0,0.0,0.0,0.0,0.0,0.0,0.0,0.0,0.0,0.0,0.0,0.0,0.0,0.0,0.0,0.0,0.0,0.0,0.0,0.0,0.0,0.0,0.0,0.0,0.0,0.0,0.0,0.0,0.0,0.0,0.0,0.0,0.0,0.0,0.0,0.0,0.0,0.0,0.0,0.0,0.0,0.0,0.0,0.0,0.0,0.0,0.0,0.0,0.0,0.0,0.0,0.0,0.0,0.0,0.0,0.0,0.0,0.0,0.0,0.0,0.0,0.0,0.0,0.0,0.0,0.0,0.0,0.0,0.0,0.0,0.0,0.0,0.0,0.0,0.0,0.0,0.0,-0.8143,0.0,-0.8197,-0.8343,-0.8469,-0.857,-0.8615,-0.8716,-0.8814,-0.8861,-0.8885,-0.883,-0.782,-0.6589,-0.5091,-0.3582,-0.3987,-0.5578,-0.5072,-0.6904,-0.9822,-0.9822,-0.9822,-0.9822,0.0,0.0,0.0,0.0,0.0,0.0,0.0,0.0,0.0,0.0,0.0,0.0,0.0,0.0,0.0,0.0,0.0,0.0,0.0,0.0,0.0,0.0,0.0,0.0,0.0,0.0,0.0,0.0,0.0,0.0,0.0,0.0,0.0,0.0,0.0,0.0,0.0,0.0,0.0,0.0,0.0,0.0,0.0,0.0,0.0,0.0,0.0,0.0,0.0,0.0,0.0,0.0,0.0,0.0,0.0,0.0,0.0,0.0,0.0,0.0,0.0,0.0,0.0,0.0,0.0,0.0,0.0,0.0,0.0,0.0,0.0,0.0,0.0,0.0,0.0,0.0,0.0,0.0,0.0,0.0,0.0,0.0,0.0,0.0,0.0,0.0,0.0,0.0,0.0,0.0,0.0,-0.8076,-0.8272,0.0,-0.835,-0.8492,-0.8615,-0.871,-0.8767,-0.8845,-0.8885,-0.8885,-0.8602,-0.8042,-0.7091,-0.5528,-0.358,-0.2618,-0.2892,-0.4054,-0.4656,-0.654,-0.8958,-0.9576,-0.9822,-0.9822,0.0,0.0,0.0,0.0,0.0,0.0,0.0,0.0,0.0,0.0,0.0,0.0,0.0,0.0,0.0,0.0,0.0,0.0,0.0,0.0,0.0,0.0,0.0,0.0,0.0,0.0,0.0,0.0,0.0,0.0,0.0,0.0,0.0,0.0,0.0,0.0,0.0,0.0,0.0,0.0,0.0,0.0,0.0,0.0,0.0,0.0,0.0,0.0,0.0,0.0,0.0,0.0,0.0,0.0,0.0,0.0,0.0,0.0,0.0,0.0,0.0,0.0,0.0,0.0,0.0,0.0,0.0,0.0,0.0,0.0,0.0,0.0,0.0,0.0,0.0,0.0,0.0,0.0,0.0,0.0,0.0,0.0,0.0,0.0,0.0,0.0,0.0,0.0,0.0,0.0,-0.6678,-0.8128,-0.8317,-0.8286,-0.8177,-0.8431,-0.8615,-0.8726,-0.8814,-0.8826,-0.8771,-0.8771,-0.7931,-0.6533,-0.6422,-0.4801,-0.2182,-0.2109,-0.2201,-0.2647,-0.4124,-0.5821,-0.7604,-0.9083,-0.9697,-0.9822,0.0,0.0,0.0,0.0,0.0,0.0,0.0,0.0,0.0,0.0,0.0,0.0,0.0,0.0,0.0,0.0,0.0,0.0,0.0,0.0,0.0,0.0,0.0,0.0,0.0,0.0,0.0,0.0,0.0,0.0,0.0,0.0,0.0,0.0,0.0,0.0,0.0,0.0,0.0,0.0,0.0,0.0,0.0,0.0,0.0,0.0,0.0,0.0,0.0,0.0,0.0,0.0,0.0,0.0,0.0,0.0,0.0,0.0,0.0,0.0,0.0,0.0,0.0,0.0,0.0,0.0,0.0,0.0,0.0,0.0,0.0,0.0,0.0,0.0,0.0,0.0,0.0,0.0,0.0,0.0,0.0,0.0,0.0,0.0,0.0,0.0,0.0,0.0,0.0,-0.2918,-0.4276,-0.6692,-0.6911,-0.6434,-0.5246,-0.6493,-0.7714,-0.8828,-0.8865,-0.8322,-0.7204,-0.7204,-0.6422,-0.4973,-0.3798,-0.2849,-0.2129,-0.0983,-0.1289,-0.2532,-0.2906,-0.4836,-0.7421,-0.785,-0.8772,-0.9822,0.0,0.0,0.0,0.0,0.0,0.0,0.0,0.0,0.0,0.0,0.0,0.0,0.0,0.0,0.0,0.0,0.0,0.0,0.0,0.0,0.0,0.0,0.0,0.0,0.0,0.0,0.0,0.0,0.0,0.0,0.0,0.0,0.0,0.0,0.0,0.0,0.0,0.0,0.0,0.0,0.0,0.0,0.0,0.0,0.0,0.0,0.0,0.0,0.0,0.0,0.0,0.0,0.0,0.0,0.0,0.0,0.0,0.0,0.0,0.0,0.0,0.0,0.0,0.0,0.0,0.0,0.0,0.0,0.0,0.0,0.0,0.0,0.0,0.0,0.0,0.0,0.0,0.0,0.0,0.0,0.0,0.0,0.0,0.0,0.0,0.0,0.0,0.0,-0.2015,-0.2161,-0.3148,-0.526,-0.5513,-0.5178,-0.4354,-0.5892,-0.6755,-0.6924,-0.7595,-0.7146,-0.5697,-0.5697,-0.486,-0.3409,-0.2571,-0.1797,-0.1134,-0.0347,-0.0528,-0.1429,-0.2179,-0.4032,-0.6261,-0.6261,-0.7301,-0.8711,0.0,0.0,0.0,0.0,0.0,0.0,0.0,0.0,0.0,0.0,0.0,0.0,0.0,0.0,0.0,0.0,0.0,0.0,0.0,0.0,0.0,0.0,0.0,0.0,0.0,0.0,0.0,0.0,0.0,0.0,0.0,0.0,0.0,0.0,0.0,0.0,0.0,0.0,0.0,0.0,0.0,0.0,0.0,0.0,0.0,0.0,0.0,0.0,0.0,0.0,0.0,0.0,0.0,0.0,0.0,0.0,0.0,0.0,0.0,0.0,0.0,0.0,0.0,0.0,0.0,0.0,0.0,0.0,0.0,0.0,0.0,0.0,0.0,0.0,0.0,0.0,0.0,0.0,0.0,0.0,0.0,0.0,0.0,0.0,0.0,0.0,0.0,-0.0539,0.0,-0.1861,-0.2409,-0.3555,-0.3938,-0.4136,-0.4136,-0.5417,-0.5528,-0.4528,-0.5753,-0.5592,-0.4151,-0.414,-0.3301,-0.1852,-0.1852,-0.1132,0.0,0.0,0.0,-0.0121,-0.157,-0.3102,-0.4548,-0.4548,-0.5588,-0.6994,0.0,0.0,0.0,0.0,0.0,0.0,0.0,0.0,0.0,0.0,0.0,0.0,0.0,0.0,0.0,0.0,0.0,0.0,0.0,0.0,0.0,0.0,0.0,0.0,0.0,0.0,0.0,0.0,0.0,0.0,0.0,0.0,0.0,0.0,0.0,0.0,0.0,0.0,0.0,0.0,0.0,0.0,0.0,0.0,0.0,0.0,0.0,0.0,0.0,0.0,0.0,0.0,0.0,0.0,0.0,0.0,0.0,0.0,0.0,0.0,0.0,0.0,0.0,0.0,0.0,0.0,0.0,0.0,0.0,0.0,0.0,0.0,0.0,0.0,0.0,0.0,0.0,0.0,0.0,0.0,0.0,0.0,0.0,0.0,0.0,0.0,0.0,-0.0109,-0.0328,-0.0333,-0.0447,-0.067,-0.1899,-0.2571,-0.2571,-0.2793,-0.3463,-0.4526,-0.4749,-0.4053,-0.2567,-0.2531,-0.1747,-0.0343,-0.0343,-0.0229,0.0,0.0,0.0,0.0,-0.0306,-0.1415,-0.2893,-0.2893,-0.3873,-0.5284,0.0,0.0,0.0,0.0,0.0,0.0,0.0,0.0,0.0,0.0,0.0,0.0,0.0,0.0,0.0,0.0,0.0,0.0,0.0,0.0,0.0,0.0,0.0,0.0,0.0,0.0,0.0,0.0,0.0,0.0,0.0,0.0,0.0,0.0,0.0,0.0,0.0,0.0,0.0,0.0,0.0,0.0,0.0,0.0,0.0,0.0,0.0,0.0,0.0,0.0,0.0,0.0,0.0,0.0,0.0,0.0,0.0,0.0,0.0,0.0,0.0,0.0,0.0,0.0,0.0,0.0,0.0,0.0,0.0,0.0,0.0,0.0,0.0,0.0,0.0,0.0,0.0,0.0,0.0,0.0,0.0,0.0,0.0,0.0,0.0,0.0,0.0,0.0,0.0,0.0,0.0,0.0,-0.0672,-0.1008,-0.1008,-0.1789,-0.2134,-0.2098,-0.289,-0.2458,-0.0988,-0.1038,-0.0636,0.0,0.0,0.0,0.0,0.0,0.0,0.0,0.0,-0.1048,-0.2401,-0.1479,-0.2217,-0.3633,0.0,0.0,0.0,0.0,0.0,0.0,0.0,0.0,0.0,0.0,0.0,0.0,0.0,0.0,0.0,0.0,0.0,0.0,0.0,0.0,0.0,0.0,0.0,0.0,0.0,0.0,0.0,0.0,0.0,0.0,0.0,0.0,0.0,0.0,0.0,0.0,0.0,0.0,0.0,0.0,0.0,0.0,0.0,0.0,0.0,0.0,0.0,0.0,0.0,0.0,0.0,0.0,0.0,0.0,0.0,0.0,0.0,0.0,0.0,0.0,0.0,0.0,0.0,0.0,0.0,0.0,0.0,0.0,0.0,0.0,0.0,0.0,0.0,0.0,0.0,0.0,0.0,0.0,0.0,0.0,0.0,0.0,0.0,0.0,0.0,0.0,0.0,0.0,0.0,0.0,0.0,0.0,0.0,0.0,0.0,-0.1119,-0.1129,0.0,-0.1148,-0.1102,0.0,0.0,0.0,0.0,0.0,0.0,0.0,0.0,0.0,0.0,0.0,-0.0803,-0.1734,-0.0496,-0.0808,-0.1933,0.0,0.0,0.0,0.0,0.0,0.0,0.0,0.0,0.0,0.0,0.0,0.0,0.0,0.0,0.0,0.0,0.0,0.0,0.0,0.0,0.0,0.0,0.0,0.0,0.0,0.0,0.0,0.0,0.0,0.0,0.0,0.0,0.0,0.0,0.0,0.0,0.0,0.0,0.0,0.0,0.0,0.0,0.0,0.0,0.0,0.0,0.0,0.0,0.0,0.0,0.0,0.0,0.0,0.0,0.0,0.0,0.0,0.0,0.0,0.0,0.0,0.0,0.0,0.0,0.0,0.0,0.0,0.0,0.0,0.0,0.0,0.0,0.0,0.0,0.0,0.0,0.0,0.0,0.0,0.0,0.0,0.0,0.0,0.0,0.0,0.0,0.0,0.0,0.0,0.0,0.0,0.0,0.0,0.0,0.0,-0.0112,-0.0113,0.0,-0.0115,-0.0117,0.0,0.0,0.0,0.0,0.0,0.0,0.0,0.0,0.0,0.0,0.0,-0.0062,-0.0189,-0.0063,-0.0064,-0.0193,0.0,0.0,0.0,0.0,0.0,0.0,0.0,0.0,0.0,0.0,0.0,0.0,0.0,0.0,0.0,0.0,0.0,0.0,0.0,0.0,0.0,0.0,0.0,0.0,0.0,0.0,0.0,0.0,0.0,0.0,0.0,0.0,0.0,0.0,0.0,0.0,0.0,0.0,0.0,0.0,0.0,0.0,0.0,0.0,0.0,0.0,0.0,0.0,0.0,0.0,0.0,0.0,0.0,0.0,0.0,0.0,0.0,0.0,0.0,0.0,0.0,0.0,0.0,0.0,0.0,0.0,0.0,0.0,0.0,0.0,0.0,0.0,0.0,0.0,0.0,0.0,0.0,0.0,0.0,0.0,0.0,0.0,0.0,0.0,0.0,0.0,0.0,0.0,0.0,0.0,0.0,0.0,0.0,0.0,0.0,0.0,0.0,0.0,0.0,0.0,0.0,0.0,0.0,0.0,0.0,0.0,0.0,0.0,0.0,0.0,0.0,0.0,0.0,0.0,0.0,0.0,0.0,0.0,0.0,0.0,0.0,0.0,0.0,0.0,0.0,0.0,0.0,0.0,0.0,0.0,0.0,0.0,0.0,0.0,0.0,0.0,0.0,0.0,0.0,0.0,0.0,0.0,0.0,0.0,0.0,0.0,0.0,0.0,0.0,0.0,0.0,0.0,0.0,0.0,0.0,0.0,0.0,0.0,0.0,0.0,0.0,0.0,0.0,0.0,0.0,0.0,0.0,0.0,0.0,0.0,0.0,0.0,0.0,0.0,0.0,0.0,0.0,0.0,0.0,0.0,0.0,0.0,0.0,0.0,0.0,0.0,0.0,0.0,0.0,0.0,0.0,0.0,0.0,0.0,0.0,0.0,0.0,0.0,0.0,0.0,0.0,0.0,0.0,0.0,0.0,0.0,0.0,0.0,0.0,0.0,0.0,0.0,0.0,0.0,0.0,0.0,0.0,0.0,0.0,0.0,0.0,0.0,0.0,0.0,0.0,0.0,0.0,0.0,0.0,0.0,0.0,0.0,0.0,0.0,0.0,0.0,0.0,0.0,0.0,0.0,0.0,0.0,0.0,0.0,0.0,0.0,0.0,0.0,0.0,0.0,0.0,0.0,0.0,0.0,0.0,0.0,0.0,0.0,0.0,0.0,0.0,0.0,0.0,0.0,0.0,0.0,0.0,0.0,0.0,0.0,0.0,0.0,0.0,0.0,0.0,0.0,0.0,0.0,0.0,0.0,0.0,0.0,0.0,0.0,0.0,0.0,0.0,0.0,0.0,0.0,0.0,0.0,0.0,0.0,0.0,0.0,0.0,0.0,0.0,0.0,0.0,0.0,0.0,0.0,0.0,0.0,0.0,0.0,0.0,0.0,0.0,0.0,0.0,0.0,0.0,0.0,0.0,0.0,0.0,0.0,0.0,0.0,0.0,0.0,0.0,0.0,0.0,0.0,0.0,0.0,0.0,0.0,0.0,0.0,0.0,0.0,0.0,0.0,0.0,0.0,0.0,0.0,0.0,0.0,0.0,0.0,0.0,0.0,0.0,0.0,0.0,0.0,0.0,0.0,0.0,0.0,0.0,0.0,0.0,0.0,0.0,0.0,0.0,0.0,0.0,0.0,0.0,0.0,0.0,0.0,0.0,0.0,0.0,0.0,0.0,0.0,0.0,0.0,0.0,0.0,0.0,0.0,0.0,0.0,0.0,0.0,0.0,0.0,0.0,0.0,0.0,0.0,0.0,0.0,0.0,0.0,0.0,0.0,0.0,0.0,0.0,0.0,0.0,0.0,0.0,0.0,0.0,0.0,0.0,0.0,0.0,0.0,0.0,0.0,0.0,0.0,0.0,0.0,0.0,0.0,0.0,0.0,0.0,0.0,0.0,0.0,0.0,0.0,0.0,0.0,0.0,0.0,0.0,0.0,0.0,0.0,0.0,0.0,0.0,0.0,0.0,0.0,0.0,0.0,0.0,0.0,0.0,0.0,0.0,0.0,0.0,0.0,0.0,0.0,0.0,0.0,0.0,0.0,0.0,0.0,0.0,0.0,0.0,0.0,0.0,0.0,0.0,0.0,0.0,0.0,0.0,0.0,0.0,0.0,0.0,0.0,0.0,0.0,0.0,0.0,0.0,0.0,0.0,0.0,0.0,0.0,0.0,0.0,0.0,0.0,0.0,0.0,0.0,0.0,0.0,0.0,0.0,0.0,0.0,0.0,0.0,0.0,0.0,0.0,0.0,0.0,0.0,0.0,0.0,0.0,0.0,0.0,0.0,0.0,0.0,0.0,0.0,0.0,0.0,0.0,0.0,0.0,0.0,0.0,0.0,0.0,0.0,0.0,0.0,0.0,0.0,0.0,0.0,0.0,0.0,0.0,0.0,0.0,0.0,0.0,0.0,0.0,0.0,0.0,0.0,0.0,0.0,0.0,0.0,0.0,0.0,0.0,0.0,0.0,0.0,0.0,0.0,0.0,0.0,0.0,0.0,0.0,0.0,0.0,0.0,0.0,0.0,0.0,0.0,0.0,0.0,0.0,0.0,0.0,0.0,0.0,0.0,0.0,0.0,0.0,0.0,0.0,0.0,0.0,0.0,0.0,0.0,0.0,0.0,0.0,0.0,0.0,0.0,0.0,0.0,0.0,0.0,0.0,0.0,0.0,0.0,0.0,0.0,0.0,0.0,0.0,0.0,0.0,0.0,0.0,0.0,0.0,0.0,0.0,0.0,0.0,0.0,0.0,0.0,0.0,0.0,0.0,0.0,0.0,0.0,0.0,0.0,0.0,0.0,0.0,0.0,0.0,0.0,0.0,0.0,0.0,0.0,0.0,0.0,0.0,0.0,0.0,0.0,0.0,0.0,0.0,0.0,0.0,0.0,0.0,0.0,0.0,0.0,0.0,0.0,0.0,0.0,0.0,0.0,0.0,0.0,0.0,0.0,0.0,0.0,0.0,0.0,0.0,0.0,0.0,0.0,0.0,0.0,0.0,0.0,0.0,0.0,0.0,0.0,0.0,0.0,0.0,0.0,0.0,0.0,0.0,0.0,0.0,0.0,0.0,0.0,0.0,0.0,0.0,0.0,0.0,0.0,0.0,0.0,0.0,0.0,0.0,0.0,0.0,0.0,0.0,0.0,0.0,0.0,0.0,0.0,0.0,0.0,0.0,0.0,0.0,0.0,0.0,0.0,0.0,0.0,0.0,0.0,0.0,0.0,0.0,0.0,0.0,0.0,0.0,0.0,0.0,0.0,0.0,0.0,0.0,0.0,0.0,0.0,0.0,0.0,0.0,0.0,0.0,0.0,0.0,0.0,0.0,0.0,0.0,0.0,0.0,0.0,0.0,0.0,0.0,0.0,0.0,0.0,0.0,0.0,0.0,0.0,0.0,0.0,0.0,0.0,0.0,0.0,0.0,0.0,0.0,0.0,0.0,0.0,0.0,0.0,0.0,0.0,0.0,0.0,0.0,0.0,0.0,0.0,0.0,0.0,0.0,0.0,0.0,0.0,0.0,0.0,0.0,0.0,0.0,0.0,0.0,0.0,0.0,0.0,0.0,0.0,0.0,0.0,0.0,0.0,0.0,0.0,0.0,0.0,0.0,0.0,0.0,0.0,0.0,0.0,0.0,0.0,0.0,0.0,0.0,0.0,0.0,0.0,0.0,0.0,0.0,0.0,0.0,0.0,0.0,0.0,0.0,0.0,0.0,0.0,0.0,0.0,0.0,0.0,0.0,0.0,0.0,0.0,0.0,0.0,0.0,0.0,0.0,0.0,0.0,0.0,0.0,0.0,0.0,0.0,0.0,0.0,0.0,0.0,0.0,0.0,0.0,0.0,0.0,0.0,0.0,0.0,0.0,0.0,0.0,0.0,0.0,0.0,0.0,0.0,0.0,0.0,0.0,0.0,0.0,0.0,0.0,0.0,0.0,0.0,0.0,0.0,0.0,0.0,0.0,0.0,0.0,0.0,0.0,0.0,0.0,0.0,0.0,0.0,0.0,0.0,0.0,0.0,0.0,0.0,0.0,0.0,0.0,0.0,0.0,0.0,0.0,0.0,0.0,0.0,0.0,0.0,0.0,0.0,0.0,0.0,0.0,0.0,0.0,0.0,0.0,0.0,0.0,0.0,0.0,0.0,0.0,0.0,0.0,0.0,0.0,0.0,0.0,0.0,0.0,0.0,0.0,0.0,0.0,0.0,0.0,0.0,0.0,0.0,0.0,0.0,0.0,0.0,0.0,0.0,0.0,0.0,0.0,0.0,0.0,0.0,0.0,0.0,0.0,0.0,0.0,0.0,0.0,0.0,0.0,0.0,0.0,0.0,0.0,0.0,0.0,0.0,0.0,0.0,0.0,0.0,0.0,0.0,0.0,0.0,0.0,0.0,0.0,0.0,0.0,0.0,0.0,0.0,0.0,0.0,0.0,0.0,0.0,0.0,0.0,0.0,0.0,0.0,0.0,0.0,0.0,0.0,0.0,0.0,0.0,0.0,0.0,0.0,0.0,0.0,0.0,0.0,0.0,0.0,0.0,0.0,0.0,0.0,0.0,0.0,0.0,0.0,0.0,0.0,0.0,0.0,0.0,0.0,0.0,0.0,0.0,0.0,0.0,0.0,0.0,0.0,0.0,0.0,0.0,0.0,0.0,0.0,0.0,0.0,0.0,0.0,0.0,0.0,0.0,0.0,0.0,0.0,0.0,0.0,0.0,0.0,0.0,0.0,0.0,0.0,0.0,0.0,0.0,0.0,0.0,0.0,0.0,0.0,0.0,0.0,0.0,0.0,0.0,0.0,0.0,0.0,0.0,0.0,0.0,0.0,0.0,0.0,0.0,0.0,0.0,0.0,0.0,0.0,0.0,0.0,0.0,0.0,0.0,0.0,0.0,0.0,0.0,0.0,0.0,0.0,0.0,0.0,0.0,0.0,0.0,0.0,0.0,0.0,0.0,0.0,0.0,0.0,0.0,0.0,0.0,0.0,0.0,0.0,0.0,0.0,0.0,0.0,0.0,0.0,0.0,0.0,0.0,0.0,0.0,0.0,0.0,0.0,0.0,0.0,0.0,0.0,0.0,0.0,0.0,0.0,0.0,0.0,0.0,0.0,0.0,0.0,0.0,0.0,0.0,0.0,0.0,0.0,0.0,0.0,0.0,0.0,0.0,0.0,0.0,0.0,0.0,0.0,0.0,0.0,0.0,0.0,0.0,0.0,0.0,0.0,0.0,0.0,0.0,0.0,0.0,0.0,0.0,0.0,0.0,0.0,0.0,0.0,0.0,0.0,0.0,0.0,0.0,0.0,0.0,0.0,0.0,0.0,0.0,0.0,0.0,0.0,0.0,0.0,0.0,0.0,0.0,0.0,0.0,0.0,0.0,0.0,0.0,0.0,0.0,0.0,0.0,0.0,0.0,0.0,0.0,0.0,0.0,0.0,0.0,0.0,0.0,0.0,0.0,0.0,0.0,0.0,0.0,0.0,0.0,0.0,0.0,0.0,0.0,0.0,0.0,0.0,0.0,0.0,0.0,0.0,0.0,0.0,0.0,0.0,0.0,0.0,0.0,0.0,0.0,0.0,0.0,0.0,0.0,0.0,0.0,0.0,0.0,0.0,0.0,0.0,0.0,0.0,0.0,0.0,0.0,0.0,0.0,0.0,0.0]}]]